GEFSNGP_500_meanwind_006.txt.gz
Wind_Speed
5 10 15 21 29 36 40 37 26 26 29 24 22 21 19 16 15 14 14 14 15 17 18 19 21 23 25 27 28 29 30 32 35 38 41 44 46 48 51 53 56 61 65 68
10 10 14 20 28 34 34 29 25 31 31 27 23 19 16 14 13 12 11 11 12 14 16 18 20 23 25 27 28 29 31 35 38 41 43 45 47 49 52 56 61 65 68 68
15 15 15 15 18 23 21 24 30 30 24 20 19 16 15 14 13 12 12 12 13 15 17 19 21 23 25 26 28 31 34 37 40 43 45 47 49 51 55 60 64 67 67 65
18 18 17 16 17 19 22 22 20 18 17 17 17 16 16 17 17 16 16 17 18 18 19 20 22 23 25 27 30 33 37 40 43 46 47 48 50 54 58 62 65 65 63 63
18 17 16 16 16 17 18 18 18 17 16 16 16 17 16 17 17 16 16 17 17 18 19 20 22 24 26 29 32 36 39 42 44 46 47 50 54 57 60 63 62 60 62 65
12 12 13 12 12 13 13 14 14 14 14 16 17 17 17 17 14 13 14 15 17 18 19 21 23 26 29 31 34 37 39 41 42 45 49 53 56 58 59 58 57 60 64 69
7 7 9 10 10 10 12 12 14 15 16 17 17 17 17 15 14 15 17 17 18 19 20 23 25 28 30 33 36 38 40 42 45 49 52 54 56 56 55 55 58 62 66 72
8 7 8 9 10 11 11 12 13 14 15 16 16 16 16 16 17 17 18 18 19 20 23 25 28 31 33 35 37 39 42 45 47 50 52 53 53 52 54 57 61 65 69 76
12 12 10 10 11 12 13 13 13 14 15 15 16 16 16 16 16 17 18 20 22 24 27 28 30 31 34 36 39 41 44 45 48 50 51 50 51 53 57 60 64 68 74 81
14 13 13 12 12 11 12 13 14 14 15 15 16 15 15 15 16 18 21 23 25 26 27 28 30 33 35 37 39 41 43 46 48 48 48 50 52 56 59 63 68 74 80 86
15 15 15 14 14 14 12 12 13 13 13 15 15 15 14 14 15 16 17 19 21 24 26 29 31 33 35 36 38 41 44 45 46 46 48 51 54 58 63 68 75 81 86 91
18 18 17 16 16 16 14 14 14 13 12 12 12 11 10 10 11 13 16 19 22 25 27 29 31 33 35 37 40 42 43 44 45 47 49 53 56 62 68 75 81 86 91 95
20 21 19 17 17 15 14 15 15 14 12 11 10 9 10 11 14 16 19 22 25 26 28 29 31 34 36 38 40 41 43 44 46 48 52 56 60 65 72 79 84 89 93 97
18 20 20 19 17 15 14 13 12 11 10 10 11 12 14 15 18 21 23 25 26 27 29 31 33 35 37 39 41 42 44 45 48 51 55 59 65 71 76 81 86 90 94 95
16 17 18 16 15 13 12 11 11 10 11 12 14 16 18 20 22 25 26 26 27 29 31 32 34 36 38 40 42 43 45 48 51 55 59 65 70 75 80 84 88 91 92 86
15 16 16 15 15 14 13 13 13 13 14 16 19 21 23 25 26 27 27 27 29 30 32 34 36 38 40 41 43 45 47 50 54 59 64 70 75 79 83 87 90 90 85 75
15 15 15 16 16 16 17 18 18 20 21 23 24 25 26 27 27 27 27 28 28 31 33 36 38 40 41 42 44 46 49 53 59 64 69 74 78 82 86 88 89 84 74 65
15 15 16 18 19 20 21 22 23 24 25 26 26 26 26 25 25 25 26 28 31 34 36 38 40 40 41 42 45 48 53 59 64 69 73 78 81 84 87 87 83 73 64 56
20 20 21 22 23 23 23 24 25 26 26 25 25 24 24 24 25 26 28 31 34 36 37 38 38 39 41 44 48 53 58 64 68 73 77 81 83 86 87 83 73 64 56 48
23 23 24 25 25 25 24 24 24 25 25 24 24 24 24 25 27 29 31 33 35 35 36 36 38 40 44 48 53 58 63 67 72 76 80 82 85 86 83 73 64 57 48 38
25 25 25 25 25 25 24 24 24 24 24 24 24 24 25 27 29 31 32 33 33 34 35 37 40 44 48 53 58 62 66 71 75 78 80 83 85 81 73 64 57 49 37 27
24 24 24 24 25 24 23 23 23 23 23 24 25 26 27 29 31 31 31 32 32 34 37 40 44 49 53 58 62 66 70 74 77 79 82 84 80 70 62 56 49 38 26 16
22 22 22 23 23 22 22 22 23 24 25 26 26 27 29 29 29 29 30 31 34 37 41 45 49 54 58 62 66 70 74 77 79 82 83 79 68 60 53 48 39 27 16 6
21 22 23 23 23 23 23 23 24 25 25 26 26 26 26 27 27 29 31 34 38 42 46 50 54 58 62 66 70 74 77 79 82 84 77 67 59 53 46 38 28 16 6 2
22 23 23 23 22 22 22 23 23 23 23 23 23 24 25 26 29 32 35 39 43 47 51 55 59 62 66 70 73 77 79 83 83 76 65 58 52 45 37 28 17 6 4 10
22 22 21 20 20 19 20 20 20 20 21 22 24 26 27 30 33 37 41 45 48 52 56 60 62 66 69 73 76 80 83 83 74 65 59 53 46 37 27 18 7 5 12 16
20 19 18 18 18 18 19 20 20 22 24 25 27 29 32 35 39 42 45 49 52 56 59 62 65 68 72 75 80 84 81 72 65 60 54 46 38 28 17 8 6 13 19 21

GEFSNGP_500_meanwind_012.txt.gz
Wind_Speed
21 18 19 18 16 17 17 16 14 13 17 21 23 30 31 33 35 36 36 36 36 35 34 33 33 33 33 33 33 33 33 31 30 31 32 34 35 36 39 43 47 51 54 55
15 12 10 7 3 2 5 7 9 12 17 21 28 31 29 29 30 31 32 33 33 32 32 32 31 31 30 30 30 29 28 28 29 30 31 33 35 38 42 46 50 52 54 56
13 12 12 10 7 6 8 9 12 17 22 27 29 27 26 24 25 27 28 29 29 28 28 28 27 27 26 25 24 24 24 26 27 29 30 33 37 41 45 49 51 54 57 60
13 13 13 9 8 9 11 14 18 22 25 28 27 25 22 21 21 21 22 21 21 21 20 20 20 19 19 19 19 20 22 24 26 29 33 37 41 44 48 51 54 56 59 62
14 15 14 11 11 13 15 17 21 23 24 25 24 22 20 18 17 16 16 15 15 14 14 13 14 14 15 16 18 20 22 25 28 32 36 40 43 47 50 52 54 57 60 63
11 13 16 16 17 17 19 19 19 18 19 20 20 17 16 14 13 12 13 12 12 11 11 11 12 13 14 16 18 21 24 28 32 35 39 42 45 48 50 52 55 58 61 61
8 9 12 14 15 15 15 15 15 14 13 13 13 12 12 12 11 11 11 11 11 11 11 12 13 14 16 18 21 24 28 31 34 37 40 43 45 48 50 53 56 58 58 59
6 7 8 9 10 10 9 9 9 9 9 9 10 10 11 11 12 12 12 12 12 12 13 14 15 17 19 22 25 28 30 33 36 38 41 43 46 48 52 54 54 55 57 60
7 6 6 7 8 8 8 8 8 8 9 11 12 12 13 13 14 14 13 13 13 14 15 16 18 20 23 25 27 29 31 34 36 38 41 44 47 49 51 52 53 55 58 62
13 11 9 8 7 6 7 7 8 8 9 10 12 13 14 14 14 14 14 14 14 15 16 18 19 21 23 25 27 30 32 35 37 40 42 45 47 48 49 51 53 57 61 66
18 15 13 10 8 6 5 5 5 6 7 8 9 11 12 13 14 14 14 14 14 14 15 16 18 21 24 27 29 32 34 36 38 41 43 45 46 47 49 52 56 60 65 70
20 17 15 12 9 7 6 5 5 5 6 6 7 8 10 11 12 13 12 12 13 14 16 19 21 24 27 29 31 33 35 37 39 41 43 44 45 48 51 55 60 65 71 76
18 17 15 13 10 9 8 8 7 7 8 8 8 8 8 9 10 10 11 12 14 17 20 23 26 28 29 31 32 34 36 38 40 42 42 43 45 49 54 60 65 71 76 81
17 17 16 15 14 12 11 10 10 10 10 10 9 8 8 8 9 10 13 15 18 22 25 27 29 30 31 32 34 35 37 39 40 40 41 44 48 52 58 63 68 74 79 85
18 17 17 17 16 15 13 12 12 12 11 10 9 9 9 9 11 14 17 20 23 26 28 29 30 31 32 33 35 37 37 38 38 40 43 47 52 57 62 67 73 78 83 87
17 16 15 15 14 14 13 12 12 11 11 10 10 10 12 14 17 20 22 25 27 28 29 29 30 31 32 34 35 35 36 37 39 42 47 52 57 61 66 72 77 82 86 85
12 12 12 12 12 12 12 12 12 12 12 12 13 15 18 20 23 24 26 28 28 28 28 29 29 31 32 33 34 34 35 38 42 47 51 56 61 66 70 75 81 85 84 77
10 10 11 11 12 12 13 14 14 14 15 17 19 21 23 24 26 27 27 27 27 27 27 28 30 31 32 32 33 34 38 42 47 51 56 60 65 70 75 80 84 83 75 64
12 12 12 13 13 14 15 16 17 18 20 21 23 24 25 26 26 26 26 26 26 27 27 29 30 30 30 31 34 38 42 46 51 55 60 65 69 74 80 84 82 74 63 54
15 15 16 16 16 17 18 19 21 22 23 24 25 25 25 26 26 26 26 26 26 27 29 29 29 29 31 34 38 42 46 50 55 60 64 69 73 79 83 82 74 63 53 44
18 19 19 19 20 20 21 22 23 24 24 25 25 25 25 25 25 25 26 27 27 28 28 27 28 31 34 38 42 46 51 55 60 64 68 73 78 82 81 74 63 53 43 33
20 21 22 23 23 23 24 24 24 25 25 24 24 25 25 25 26 26 27 27 27 26 27 28 31 34 38 42 46 51 55 60 64 68 73 78 82 81 74 64 53 43 33 21
21 21 22 23 23 23 24 24 24 24 24 24 24 25 25 26 27 27 27 25 25 26 28 31 34 38 42 47 51 55 59 63 67 72 78 82 81 74 64 54 44 33 21 10
21 22 22 23 23 23 23 23 24 24 24 24 25 25 26 27 27 26 24 24 26 28 31 34 37 42 47 51 55 59 63 67 72 78 82 81 74 65 55 45 35 22 9 3
23 23 23 23 23 23 23 23 23 24 24 25 25 26 26 26 24 23 24 26 28 31 34 37 42 47 51 55 58 62 66 71 77 82 82 75 66 57 47 36 22 9 4 10
24 25 25 24 24 23 23 23 24 24 25 25 25 25 24 23 23 24 26 29 31 34 38 43 47 51 54 58 61 65 70 76 82 83 77 67 57 47 35 21 7 5 13 16
27 27 26 26 25 25 25 25 25 25 25 24 24 23 23 24 25 27 29 32 36 39 43 47 50 54 57 60 63 68 75 81 82 78 68 57 46 32 18 5 7 14 17 17

GEFSNGP_500_meanwind_018.txt.gz
Wind_Speed
16 19 20 21 21 21 22 23 22 16 15 11 14 17 19 18 22 26 33 37 39 38 38 37 37 37 39 39 39 38 37 37 37 37 37 38 39 39 40 40 40 41 44 45
11 13 14 15 16 17 17 16 14 10 6 7 10 11 12 15 20 25 30 33 34 34 34 34 34 34 35 35 35 34 34 35 35 36 37 38 39 39 38 39 40 42 44 47
6 9 11 13 14 14 13 11 9 6 3 2 4 8 14 18 22 25 27 30 31 30 30 30 31 31 31 31 32 31 32 33 34 36 37 36 36 36 36 37 40 43 46 49
6 8 12 12 12 11 11 10 8 8 8 9 11 15 17 20 23 23 25 26 27 27 27 27 27 27 28 28 28 29 31 32 33 33 32 32 32 33 35 38 42 45 49 51
7 9 10 11 12 12 11 10 10 11 12 14 15 17 20 21 21 22 22 22 23 23 23 23 23 23 23 25 26 27 28 28 28 28 29 30 32 34 37 41 44 47 50 52
6 7 9 10 10 11 12 12 12 12 12 13 13 14 16 17 19 21 21 20 20 21 21 21 21 21 22 23 23 24 24 25 26 27 28 30 33 36 40 43 46 48 50 53
4 4 5 6 8 9 11 11 11 10 9 10 11 12 13 13 14 15 16 17 18 18 18 18 18 19 19 19 20 21 22 23 25 27 29 32 35 39 41 43 46 48 51 54
3 2 0 2 4 5 7 8 9 8 8 8 8 8 9 10 10 11 12 13 13 13 14 14 15 15 16 16 17 19 20 23 25 28 31 34 37 39 41 44 46 49 52 54
7 5 3 2 2 2 3 4 4 5 4 4 3 3 4 5 6 7 8 8 9 9 10 11 12 13 14 15 17 19 21 24 27 29 32 35 37 39 42 44 47 49 51 52
11 9 8 6 5 5 5 4 4 3 3 2 1 1 1 2 4 5 6 7 8 9 10 10 11 13 14 16 17 19 22 25 28 30 33 35 37 40 42 45 47 48 49 51
15 13 12 10 9 8 7 6 6 5 5 4 3 3 3 4 5 6 6 7 8 9 9 10 11 12 14 16 18 21 24 27 30 32 34 36 39 41 43 45 45 46 49 53
17 15 14 13 12 11 10 9 8 7 6 5 4 4 4 5 5 6 7 7 8 9 9 10 11 13 16 19 22 25 27 29 31 33 35 37 40 41 42 43 45 48 52 57
17 15 15 14 14 13 12 11 10 8 7 7 7 6 6 6 6 6 7 7 7 8 10 12 14 16 20 23 26 28 29 30 32 34 36 38 39 39 41 45 49 53 58 63
16 15 14 14 14 14 13 12 11 10 9 9 8 7 6 6 6 6 6 7 8 9 12 15 18 21 23 26 27 28 29 31 33 35 36 36 37 40 44 48 53 58 63 67
16 15 14 14 14 15 14 13 12 11 11 10 9 8 7 6 5 6 6 8 10 13 16 19 22 23 25 26 27 28 30 33 34 34 35 37 40 44 48 52 57 62 66 71
17 16 16 16 16 16 16 15 14 13 12 11 10 8 7 6 6 7 9 12 15 18 20 22 23 23 24 26 28 30 32 32 32 34 37 41 44 48 52 57 62 66 71 76
17 17 17 17 16 15 15 14 14 13 12 10 9 9 8 9 10 12 14 17 19 20 21 21 22 23 25 27 29 30 30 31 33 37 41 45 48 52 57 61 66 71 77 81
15 15 16 16 16 14 14 13 12 12 11 10 10 10 11 12 14 16 18 19 20 20 21 21 22 24 26 28 28 29 30 33 37 41 45 49 52 57 61 66 71 77 81 81
14 14 14 14 14 14 14 13 13 12 11 11 12 13 14 16 17 18 20 20 20 20 20 22 23 25 26 27 27 30 33 37 41 45 49 52 57 61 66 72 77 82 81 73
14 13 13 14 14 14 14 13 13 12 12 13 14 15 17 18 19 20 20 19 19 20 21 23 24 25 25 27 29 32 36 40 44 48 52 57 62 67 72 78 82 81 73 60
15 15 15 15 15 15 14 14 14 14 15 16 17 18 19 19 20 20 19 19 20 21 22 23 23 24 26 29 32 36 40 44 48 52 57 62 67 73 79 83 81 72 59 45
17 18 18 18 18 18 17 17 17 17 18 19 19 19 19 19 19 19 19 19 20 21 22 22 23 26 28 32 35 39 43 48 52 57 62 67 73 79 82 80 71 58 43 27
19 20 20 20 20 20 20 20 20 20 20 20 20 20 19 19 19 19 19 19 20 21 21 23 25 28 31 35 39 43 47 52 57 61 67 73 79 81 78 68 54 39 23 10
20 20 21 21 21 21 20 20 20 20 20 20 20 19 19 19 19 19 19 19 20 20 22 24 27 31 34 38 42 46 51 56 60 66 72 77 79 75 64 50 35 20 7 4
20 21 21 21 21 21 21 21 21 20 20 20 19 19 19 19 19 19 19 19 20 21 23 26 30 33 37 41 45 50 54 59 64 70 75 77 71 60 45 30 16 6 7 11
22 22 22 23 23 22 22 22 21 21 20 20 19 20 20 20 20 20 20 20 21 23 25 29 32 36 40 44 48 52 57 62 67 72 74 68 56 41 26 13 7 9 11 11
25 25 24 24 23 23 23 23 22 21 21 21 21 21 21 21 21 20 20 20 22 24 27 31 35 39 42 46 50 54 59 64 68 70 65 53 39 24 12 7 9 11 11 9

GEFSNGP_500_meanwind_024.txt.gz
Wind_Speed
17 19 18 17 18 20 23 26 31 31 33 34 35 35 33 30 28 28 28 28 28 28 29 31 34 37 40 39 38 38 39 38 37 35 34 34 34 34 35 35 36 37 38 41
15 16 15 14 15 16 18 22 26 28 29 30 31 29 26 23 20 17 16 15 15 17 20 25 29 32 35 35 36 35 34 33 31 31 31 31 32 33 34 35 36 37 41 43
13 13 11 10 10 13 16 20 24 26 27 27 27 25 22 18 15 10 5 1 5 10 16 22 26 29 31 31 30 28 27 27 26 26 27 29 31 33 33 34 37 40 42 44
10 10 8 5 7 12 15 18 21 24 26 26 24 23 22 19 16 14 12 10 12 15 18 22 24 25 25 24 23 22 21 22 23 25 27 29 30 30 33 36 38 41 43 44
8 7 5 4 7 11 14 17 19 21 23 24 24 23 20 18 18 17 17 17 17 18 20 20 21 21 20 19 19 19 20 21 23 26 26 27 29 32 35 37 39 41 42 43
8 7 5 3 6 10 13 15 18 19 21 22 22 22 20 18 17 17 17 18 18 18 18 18 18 17 16 16 17 18 20 22 25 26 27 28 31 33 35 36 38 39 41 44
8 7 5 4 6 9 11 14 16 17 18 19 20 20 19 17 16 16 15 16 16 15 15 15 14 13 13 14 16 18 19 21 23 24 26 27 29 31 32 34 37 40 43 45
9 8 6 6 6 8 10 13 14 15 16 17 17 17 16 15 13 12 11 10 10 11 10 10 11 11 11 13 15 16 17 18 20 21 23 25 27 29 32 35 38 41 43 45
10 10 8 8 8 8 9 11 13 14 15 15 15 14 14 13 12 10 8 7 6 6 7 7 7 8 9 10 11 12 13 14 17 19 21 24 28 31 34 37 39 41 43 45
12 12 11 11 11 11 11 11 11 12 13 13 12 12 11 11 10 8 7 6 6 5 5 4 3 2 3 4 6 8 11 13 16 20 23 27 30 33 35 37 39 41 43 44
16 15 14 14 14 13 12 11 11 11 11 11 10 10 9 8 7 5 5 4 4 3 3 2 1 1 3 5 8 10 13 16 19 23 26 29 31 33 35 37 39 40 42 45
18 17 16 16 16 15 14 12 11 11 11 10 9 9 8 7 5 3 2 1 1 1 0 1 2 3 6 8 10 13 16 20 23 25 28 30 32 34 36 37 38 41 45 49
19 18 18 17 17 16 15 13 12 11 11 10 9 9 8 7 5 3 2 1 1 1 2 3 5 7 9 12 15 18 20 23 25 27 28 30 32 33 35 37 41 45 49 54
19 19 18 18 17 16 15 14 13 12 11 10 10 9 8 7 6 4 3 3 3 4 5 7 9 11 14 16 19 21 22 24 26 28 29 30 31 33 37 41 45 50 55 59
19 19 18 18 17 16 15 14 13 13 12 11 11 10 8 7 5 4 4 4 5 7 9 11 13 16 18 19 21 22 24 25 27 28 29 30 33 37 41 46 50 55 60 65
19 18 18 18 18 17 16 15 15 14 13 12 12 11 9 7 6 6 6 7 9 11 13 15 17 18 20 21 22 24 25 26 26 28 30 33 37 41 46 51 55 61 66 71
18 18 18 19 18 17 16 16 16 15 13 12 12 11 10 9 8 9 9 11 12 14 16 18 19 20 21 22 23 24 25 25 27 29 32 36 41 45 50 55 60 66 71 75
18 18 18 19 18 18 16 15 15 14 13 12 12 11 10 10 10 11 12 14 16 17 18 19 20 21 22 23 23 24 25 26 29 32 35 40 45 49 54 59 65 70 74 75
17 17 18 18 18 18 17 16 15 14 14 13 12 12 12 12 13 13 15 16 18 18 19 20 21 22 22 23 23 24 26 28 31 34 39 44 48 53 58 64 68 71 71 67
17 17 17 17 17 17 16 16 15 15 15 14 15 15 15 14 15 16 17 18 19 19 20 21 22 22 23 23 24 25 27 30 33 38 42 46 51 56 61 65 67 66 62 53
16 16 16 16 16 16 16 17 17 17 17 16 16 16 16 16 17 17 18 19 19 20 21 22 22 23 23 23 25 26 29 32 36 40 44 49 54 58 62 63 62 58 50 39
16 16 17 17 17 17 17 18 18 18 18 17 17 17 17 17 18 18 19 19 20 21 21 22 23 23 23 24 26 28 30 34 38 42 46 51 55 58 60 59 55 48 38 28
18 18 18 19 19 19 19 19 19 19 19 19 19 19 19 19 19 19 19 20 20 21 21 22 23 24 24 25 27 30 32 36 40 44 48 52 55 57 56 53 46 38 29 21
18 18 19 20 20 20 21 21 21 21 21 21 20 20 19 19 19 20 20 20 21 22 22 23 24 24 25 26 29 31 34 38 42 46 49 52 54 55 52 46 39 31 23 16
19 19 19 20 21 22 22 22 22 22 21 21 21 20 20 20 20 21 21 21 22 22 23 24 25 25 26 28 30 33 36 39 43 46 50 52 53 52 47 40 33 25 18 14
23 22 22 21 22 22 22 22 22 22 22 22 21 21 21 21 22 22 22 23 23 24 24 25 25 26 27 29 31 34 37 40 44 47 50 52 52 48 42 35 27 20 15 12
28 27 26 25 25 24 24 24 24 24 23 23 23 23 23 23 23 23 24 24 24 25 25 25 25 25 27 29 32 35 38 41 45 48 51 51 49 43 36 28 21 16 14 12

GEFSNGP_500_meanwind_030.txt.gz
Wind_Speed
11 11 10 11 11 10 9 8 7 8 12 15 19 22 25 28 31 33 35 35 33 29 24 22 23 25 26 27 29 32 35 38 41 43 44 44 43 42 40 39 37 37 37 37
11 10 10 10 9 7 5 4 6 9 12 16 19 21 23 26 28 30 30 29 26 21 16 13 13 15 18 20 22 25 28 31 34 36 38 39 38 37 35 35 34 34 34 36
11 10 9 7 6 4 3 4 7 10 13 16 18 20 22 24 25 26 27 26 23 17 11 6 4 8 12 15 18 21 23 25 27 30 32 33 32 31 31 32 32 32 34 38
11 10 7 6 5 4 3 4 7 10 13 15 17 19 21 22 23 23 23 22 20 17 12 7 4 7 11 13 16 18 21 23 25 27 28 28 28 29 29 30 31 33 36 37
10 9 7 7 6 5 4 4 6 9 12 15 17 19 19 20 21 21 20 19 18 16 14 12 11 10 12 15 17 19 20 22 23 24 24 25 26 26 28 30 32 34 34 36
10 9 9 8 8 6 5 4 5 8 11 13 16 17 17 18 18 19 18 17 16 15 15 14 13 14 15 16 16 18 19 20 21 21 21 22 23 25 27 30 31 32 33 35
12 11 11 9 9 7 6 5 5 7 9 12 14 16 16 16 16 16 15 14 13 13 14 14 14 14 14 14 15 15 15 15 16 16 18 20 21 23 24 25 25 28 31 33
13 13 13 11 10 9 7 6 6 7 9 11 13 14 15 14 14 13 13 12 11 11 10 11 11 11 10 8 7 7 7 9 11 13 14 16 16 17 18 21 24 28 31 34
15 14 14 13 12 10 9 8 7 8 9 10 12 13 13 13 12 11 11 10 9 9 9 8 8 8 7 6 5 4 4 4 4 5 7 10 12 14 18 22 26 29 33 36
17 16 15 14 13 12 11 10 9 9 10 10 11 11 12 12 11 10 9 8 7 6 7 7 6 6 6 5 4 3 3 3 4 6 9 12 15 18 22 25 28 32 34 37
19 19 17 15 14 13 13 12 11 11 11 10 11 10 11 11 10 9 8 6 5 4 4 5 5 5 5 5 5 5 6 7 9 11 14 17 20 22 25 28 30 33 35 39
20 21 20 18 16 15 14 13 12 12 12 11 11 10 11 10 10 8 7 5 4 4 4 4 5 6 6 7 8 9 11 12 14 16 19 21 23 25 27 29 31 34 37 41
20 21 21 20 19 17 16 15 14 14 13 12 12 11 11 11 10 9 7 6 5 5 5 5 6 8 9 11 12 13 15 16 18 20 21 23 24 26 28 30 33 36 40 44
20 21 21 22 21 19 18 17 16 15 14 13 12 12 11 11 10 9 8 7 7 7 6 7 9 10 12 14 15 16 18 19 20 21 22 24 26 27 30 32 36 39 44 48
21 21 22 22 22 20 19 18 17 16 15 14 13 13 12 11 10 9 9 8 8 9 10 11 12 13 15 17 18 19 20 20 21 22 23 25 27 29 32 35 38 42 47 52
22 22 23 23 22 22 20 19 18 17 16 15 14 13 13 13 12 11 10 10 10 11 12 14 15 16 18 19 20 20 21 22 22 24 25 27 29 31 34 37 41 45 50 54
22 22 23 23 23 22 21 20 19 18 17 17 15 14 14 14 14 13 13 13 13 14 14 15 17 18 19 20 21 21 22 23 24 25 27 29 30 33 36 40 43 48 52 54
21 22 23 23 23 22 22 21 21 19 18 17 17 16 16 16 15 15 14 15 15 16 16 17 18 19 20 21 22 22 23 24 25 27 28 30 33 36 39 42 45 50 53 54
20 21 22 22 22 22 22 21 21 20 19 19 18 18 17 17 16 16 16 16 17 17 18 19 20 20 21 22 23 23 24 26 27 28 30 32 35 38 41 44 47 51 52 53
18 19 20 21 22 22 22 22 21 21 21 21 20 19 19 18 18 18 18 18 18 19 19 20 21 21 22 23 24 25 26 27 29 30 32 34 37 39 42 45 49 51 52 51
16 17 18 19 20 20 21 21 21 21 21 22 21 21 21 20 20 20 19 20 20 20 21 21 22 22 23 24 25 26 27 29 30 32 34 36 38 41 43 47 49 51 51 49
14 16 17 17 18 19 20 20 21 21 21 22 22 23 22 22 22 21 21 21 21 21 21 22 22 23 24 25 26 27 29 30 32 33 35 37 39 42 44 48 50 51 50 47
14 15 16 17 18 18 20 20 21 21 21 22 22 22 23 23 22 21 21 22 22 22 22 23 23 24 25 26 27 29 30 32 33 34 36 38 40 43 45 49 51 51 48 43
17 17 17 18 18 19 20 21 22 23 22 22 23 23 23 22 22 22 23 23 23 23 23 24 25 26 26 27 29 30 31 32 33 35 36 39 41 44 47 50 51 49 45 39
20 20 20 19 19 20 20 21 22 22 23 23 23 23 23 23 24 24 24 24 24 24 25 26 27 27 28 29 30 31 32 32 34 35 37 40 42 45 49 51 50 46 41 34
23 23 23 23 23 23 23 22 22 23 23 23 24 24 24 24 25 25 25 25 26 26 27 28 28 29 29 30 30 31 32 33 34 36 38 40 43 47 49 50 47 43 36 30
28 28 27 27 26 26 25 25 25 25 25 25 25 25 25 25 26 27 27 27 28 28 28 29 30 30 30 30 30 31 32 33 34 37 39 41 45 48 49 48 44 38 32 28

GEFSNGP_500_meanwind_036.txt.gz
Wind_Speed
13 13 13 13 13 13 14 14 13 14 14 13 13 14 15 18 20 22 24 26 27 28 31 36 38 39 38 35 33 30 27 26 28 30 33 36 39 42 44 46 48 49 49 49
13 12 13 13 13 13 13 13 12 12 12 12 13 13 15 17 19 20 22 23 25 26 29 32 33 33 32 29 25 21 17 16 17 19 22 25 28 30 33 35 37 39 42 42
12 12 13 13 13 13 12 12 12 12 11 11 11 12 14 16 18 19 20 21 23 23 25 28 29 28 27 24 20 15 11 10 10 12 15 16 17 20 23 25 28 31 34 36
13 13 13 12 13 13 13 13 12 11 10 9 10 12 14 16 17 18 19 20 20 21 22 24 25 25 24 22 17 13 9 5 5 6 8 11 12 15 17 20 23 25 28 30
14 14 14 13 13 14 13 13 12 11 10 9 9 12 14 16 17 18 18 18 19 19 20 21 21 22 22 20 17 13 10 5 1 2 4 7 9 13 16 18 18 20 23 26
16 15 15 14 14 14 14 14 13 12 11 10 10 12 14 15 17 17 17 17 18 18 18 18 18 19 20 18 17 14 11 8 5 2 3 5 6 8 10 12 15 18 19 22
17 16 16 15 15 15 15 14 13 12 11 11 11 12 14 16 16 17 17 17 17 17 16 16 16 17 18 17 16 14 12 10 8 5 3 2 3 4 6 9 12 14 17 19
19 18 18 16 16 17 16 15 14 13 12 12 13 14 15 16 16 16 16 16 16 15 14 14 14 15 16 15 15 13 11 9 8 6 4 2 1 3 5 7 10 12 15 17
21 20 19 19 18 18 18 17 16 15 15 14 15 15 16 16 16 16 16 15 14 13 12 12 12 13 13 14 14 14 12 11 9 7 6 4 3 3 5 7 9 12 14 17
21 22 22 21 20 20 19 19 18 17 17 16 17 17 17 17 16 16 15 14 13 12 10 10 10 11 12 12 12 12 12 11 10 9 8 7 7 7 8 10 12 14 16 19
23 23 23 22 22 22 21 21 20 20 19 19 18 18 17 17 16 15 15 14 13 11 10 9 9 10 10 11 11 12 12 11 11 10 10 10 10 11 12 13 15 17 19 22
24 25 25 24 24 24 24 23 22 21 21 20 19 19 18 17 16 15 15 14 12 11 10 9 9 10 10 11 12 13 13 13 13 13 13 13 13 14 15 16 18 20 22 25
24 25 26 26 27 27 26 25 24 23 22 22 21 20 19 18 17 16 15 14 13 12 11 10 10 10 11 13 14 14 15 15 15 15 15 15 15 16 18 20 21 24 26 28
24 25 25 27 28 28 28 28 26 25 24 24 23 21 20 18 17 16 15 14 13 13 12 12 12 12 13 14 15 16 16 16 16 17 17 17 18 20 21 23 25 27 29 32
24 24 25 26 27 29 29 29 28 27 26 25 24 23 21 19 18 17 16 15 14 14 13 13 13 14 15 16 17 17 17 18 18 18 19 20 21 23 24 26 28 30 32 35
24 24 24 25 27 28 29 29 28 28 27 26 25 24 22 21 19 18 17 16 16 15 15 15 15 16 17 17 18 18 19 19 20 20 21 22 24 25 27 29 31 33 35 38
23 24 24 25 26 27 28 28 28 28 28 27 25 24 23 22 21 19 18 18 17 17 17 17 18 18 18 19 19 20 20 21 22 23 24 25 26 28 29 31 33 35 37 40
23 24 24 25 25 26 27 28 28 28 27 26 25 24 24 22 22 21 20 19 19 18 18 19 19 19 20 20 21 21 22 23 24 25 26 27 29 30 32 33 35 37 39 42
22 23 24 24 25 26 26 26 27 27 27 26 25 25 24 23 22 22 21 21 20 20 20 20 20 21 21 21 22 23 23 24 26 27 28 29 31 32 34 35 37 38 41 43
19 20 21 23 23 24 25 25 25 25 25 25 25 25 25 24 23 23 22 22 22 21 21 21 22 22 22 22 23 24 25 26 27 28 29 31 32 34 35 36 38 40 42 44
17 17 18 18 20 21 22 23 23 23 24 24 25 25 25 25 24 24 24 23 23 22 22 23 23 23 23 23 24 25 26 27 28 29 31 32 33 35 36 37 39 41 43 46
15 15 16 16 17 19 20 21 22 23 23 23 24 24 24 25 25 25 25 25 24 24 24 24 23 23 24 24 25 26 27 28 29 31 32 33 34 35 36 38 40 42 45 47
15 15 15 15 16 17 19 20 21 23 23 24 24 24 24 24 24 25 25 25 25 25 25 24 24 24 24 25 26 27 28 29 30 32 33 34 35 36 37 39 41 43 46 48
16 16 17 17 17 18 19 20 21 23 24 24 25 25 25 25 25 24 25 25 25 25 25 24 24 24 25 26 27 28 29 30 32 33 34 34 35 36 38 40 42 44 47 49
18 18 18 18 19 19 20 20 21 22 22 23 24 25 25 25 25 24 24 24 24 25 25 25 26 26 27 28 29 30 31 32 32 33 34 35 35 37 39 41 43 45 48 49
23 23 22 22 22 22 22 22 22 23 23 23 23 24 24 25 26 26 26 25 26 26 27 27 28 28 29 29 30 31 31 32 33 34 34 35 36 38 40 42 44 46 48 50
29 28 28 28 27 27 26 25 25 25 25 25 25 24 24 25 26 27 27 28 28 29 29 29 29 29 29 30 30 31 32 32 33 34 35 35 37 38 40 42 44 47 49 50

GEFSNGP_500_meanwind_042.txt.gz
Wind_Speed
15 16 17 18 18 18 19 19 20 20 20 18 17 18 18 18 18 18 18 19 20 21 23 24 24 24 24 25 26 28 30 31 33 35 35 34 32 30 29 29 31 33 34 35
15 16 16 17 17 17 17 18 19 19 18 17 16 16 16 15 15 15 16 17 19 20 21 21 22 22 22 23 23 25 26 27 27 28 28 28 26 24 23 22 22 23 25 25
15 15 15 15 16 16 17 17 18 17 16 16 15 15 14 13 13 14 15 16 18 19 20 20 21 21 20 20 21 21 22 23 23 23 23 22 21 20 19 17 16 16 16 17
15 15 15 14 15 15 16 16 16 16 16 16 15 14 13 13 13 13 14 15 17 17 18 18 18 18 18 19 18 18 19 19 20 20 19 19 17 16 15 13 12 10 10 11
15 15 14 14 14 15 15 15 16 16 16 16 15 14 13 13 13 13 14 14 15 16 17 17 17 17 16 16 16 16 16 17 17 17 16 16 15 14 12 11 8 6 6 8
16 16 15 15 14 14 15 15 16 16 17 17 16 15 14 13 13 13 13 13 14 15 15 15 15 15 14 14 14 14 14 15 15 15 15 14 14 13 12 11 8 6 5 5
17 17 16 16 15 15 15 15 16 16 17 17 17 16 14 14 13 13 13 14 14 14 14 14 14 14 13 13 12 13 13 13 13 14 14 14 13 13 13 11 10 8 6 6
19 19 18 17 17 17 17 17 17 17 18 18 17 16 15 14 14 14 14 14 14 14 14 13 13 13 12 12 12 12 12 13 13 13 14 13 13 13 12 11 10 9 8 8
20 20 20 20 19 19 19 18 19 19 19 19 18 18 16 15 15 15 15 15 14 14 14 13 13 13 13 12 12 12 12 13 13 14 14 14 13 12 11 11 10 10 11 11
21 22 21 21 21 20 20 20 20 21 21 20 20 19 18 17 16 16 16 15 15 14 14 13 13 13 13 13 13 13 13 13 14 14 14 14 13 13 12 12 12 12 13 14
21 23 23 22 22 22 22 22 22 22 22 22 21 21 20 19 18 17 17 17 16 15 14 14 13 13 13 13 13 13 14 14 14 14 14 14 14 13 13 14 14 15 16 17
21 22 23 23 23 23 23 23 24 24 23 23 23 22 22 21 20 19 19 18 18 17 16 15 14 14 15 15 14 15 15 15 15 15 15 15 15 15 15 16 17 18 19 21
21 22 23 23 24 24 24 24 24 25 25 25 24 24 23 23 22 21 20 19 18 18 17 16 16 16 16 16 16 16 16 16 16 16 16 16 16 17 18 19 20 21 22 24
20 21 22 23 23 24 24 25 26 26 26 26 26 26 25 24 23 22 21 20 20 19 19 18 17 17 17 17 17 17 18 18 18 18 18 18 18 19 20 21 22 23 25 27
20 20 21 22 23 23 24 25 26 26 26 27 27 27 26 25 25 24 23 22 21 21 21 20 19 18 18 19 19 19 19 19 19 19 19 20 20 21 22 23 25 26 27 29
21 20 20 21 22 23 24 24 25 26 26 27 27 27 27 27 26 25 25 24 23 22 22 21 21 20 20 20 20 20 21 21 21 21 21 22 22 23 24 25 27 28 29 31
21 21 21 21 22 23 24 24 24 25 25 26 27 27 27 27 27 26 25 25 24 23 23 23 22 22 21 21 21 21 22 22 22 22 22 23 24 25 26 27 28 30 31 33
22 21 21 22 22 23 24 24 25 25 26 26 26 27 27 27 27 26 26 25 25 25 24 23 23 23 23 23 23 23 23 23 23 23 23 24 25 26 27 28 30 31 33 34
20 20 21 21 22 22 23 24 25 25 26 26 26 27 27 27 27 26 26 25 25 25 25 24 24 24 24 24 24 24 24 24 24 24 25 25 26 27 28 29 31 32 34 35
19 20 20 21 21 21 22 23 24 24 25 25 26 26 27 27 27 26 26 26 26 26 26 25 25 25 25 25 25 25 25 25 25 25 26 26 27 28 29 30 32 33 35 36
17 17 18 18 18 19 20 20 21 22 23 24 25 25 26 26 26 26 26 26 26 26 26 26 26 26 26 26 26 26 26 26 26 26 26 26 27 28 30 31 33 34 36 37
15 15 15 16 16 16 17 17 18 20 21 22 23 24 25 25 26 26 26 26 26 26 26 26 26 27 27 27 27 26 26 26 26 26 26 27 28 29 31 32 33 35 36 38
16 15 15 14 14 15 15 16 16 17 18 19 20 22 23 25 25 26 26 26 27 27 27 27 27 27 27 27 26 26 26 26 26 26 27 28 29 30 32 33 34 36 37 39
16 16 16 15 16 16 16 16 16 16 17 18 19 20 22 23 24 25 26 26 26 27 27 28 28 27 27 26 26 25 26 26 27 28 29 30 30 31 32 34 35 37 38 39
18 18 18 18 18 18 18 18 18 18 18 18 19 19 20 22 23 23 24 24 25 26 27 27 27 27 27 26 26 26 27 28 29 29 30 30 31 32 33 34 35 37 38 40
22 22 22 21 21 21 22 22 22 22 22 21 21 21 21 21 22 22 23 24 24 24 25 26 27 27 27 28 28 28 29 29 30 30 30 30 31 32 33 34 35 37 38 40
25 25 25 25 24 24 24 24 24 24 24 24 24 24 24 24 23 24 24 25 25 25 25 26 27 27 28 29 29 29 30 30 30 30 30 30 31 32 33 34 36 37 39 40

GEFSNGP_500_meanwind_048.txt.gz
Wind_Speed
17 18 19 20 22 23 24 24 26 28 29 26 25 25 25 26 27 27 27 26 26 26 26 26 26 26 26 27 28 28 29 29 30 30 31 32 32 33 33 34 35 35 35 35
18 19 20 20 20 21 21 22 24 25 26 25 23 23 24 25 25 24 24 24 24 24 23 24 24 24 25 25 26 27 27 28 29 29 30 30 31 31 31 31 32 32 31 31
17 18 18 18 18 18 19 20 22 23 23 24 22 22 23 23 23 23 22 22 22 22 21 21 22 22 23 24 24 25 26 27 27 28 29 29 29 29 30 30 29 29 28 27
16 16 16 15 17 17 18 19 20 20 21 21 21 21 22 22 22 22 21 20 19 19 19 19 20 20 21 22 22 23 24 25 25 26 26 27 27 27 27 27 27 26 25 25
15 15 14 14 15 16 17 17 18 18 19 19 20 21 21 21 20 20 19 18 17 17 17 17 18 19 19 20 20 21 22 22 23 23 24 24 24 25 25 25 25 24 24 23
15 15 14 13 15 16 16 17 17 18 18 19 20 20 20 20 19 18 18 17 16 16 16 17 17 17 18 18 18 19 20 20 21 21 21 22 22 22 23 23 23 22 22 21
16 15 14 14 16 16 17 16 16 17 18 18 19 19 20 20 19 18 18 17 17 16 16 16 16 17 17 17 18 18 19 19 20 20 20 21 21 22 22 22 21 21 20 20
17 17 16 16 17 17 16 16 17 17 18 18 19 20 20 20 20 19 18 18 17 16 16 16 16 16 16 17 17 18 18 19 19 20 20 21 21 22 21 21 21 20 20 20
18 18 18 18 18 18 18 18 18 18 19 19 20 20 21 21 21 20 19 19 18 17 17 17 17 17 17 18 18 18 18 19 19 19 20 21 21 21 21 21 21 21 21 21
19 20 20 20 20 20 21 21 21 21 20 20 20 20 21 21 21 21 21 20 19 19 18 18 18 18 18 19 19 19 19 19 19 20 20 21 21 21 21 22 22 22 22 23
21 21 22 22 22 22 22 22 23 23 23 22 22 22 22 22 22 22 22 22 21 20 20 19 19 19 19 19 20 20 20 20 20 21 21 22 22 22 22 23 23 23 24 24
24 24 25 24 23 23 24 24 24 24 25 25 24 24 24 24 24 23 23 23 23 22 21 21 20 21 21 21 21 21 21 21 22 22 22 23 23 23 24 24 25 25 26 26
26 26 26 25 25 25 25 25 26 26 26 27 26 26 25 25 25 25 25 25 24 23 23 22 22 22 22 22 22 23 23 23 23 24 24 24 25 25 26 26 26 27 28 28
27 27 27 26 26 26 26 26 27 27 28 28 28 28 27 27 26 26 26 25 25 25 24 24 23 23 23 23 24 24 25 25 25 25 26 26 27 27 27 28 28 29 30 30
28 27 26 26 26 25 25 26 26 26 27 28 29 29 29 28 28 28 27 27 26 26 26 25 25 25 25 25 25 26 26 26 27 27 27 28 28 28 29 29 30 30 31 32
27 27 27 26 25 25 25 25 25 26 26 27 28 29 30 30 30 30 29 29 28 28 27 27 27 27 26 26 26 27 27 28 28 28 28 29 29 29 30 30 31 31 32 33
25 26 26 26 25 25 25 25 25 25 26 27 27 28 29 30 30 31 31 30 30 29 29 29 29 28 28 28 28 28 29 29 29 29 30 30 30 31 31 32 32 33 34 34
23 24 24 24 24 25 25 25 25 26 26 27 27 28 28 29 29 30 31 31 31 31 31 30 30 30 30 29 29 29 30 30 30 30 31 31 31 31 32 33 33 34 34 35
21 22 22 23 23 24 24 25 25 26 26 27 27 28 28 29 29 30 30 31 31 31 31 31 31 31 31 30 30 30 30 31 31 31 31 32 32 33 33 34 34 34 35 35
18 19 20 21 22 23 23 23 24 24 25 25 26 27 28 28 29 29 30 30 30 30 31 31 31 31 31 31 31 31 31 31 32 32 33 33 34 34 34 34 34 34 35 36
17 18 19 19 20 20 20 21 21 22 23 23 24 25 25 26 27 28 29 29 30 30 30 31 31 31 31 31 31 31 31 32 32 33 34 34 34 34 34 34 34 35 35 36
17 17 17 18 18 19 19 19 19 20 20 21 21 22 23 24 25 26 27 28 29 29 30 30 31 31 32 32 32 32 32 33 33 34 34 34 35 34 34 34 35 35 36 37
17 17 17 17 18 18 18 18 18 18 18 18 19 20 20 21 22 23 24 26 27 28 29 30 30 31 31 32 32 32 33 34 34 34 34 34 34 33 33 34 34 35 36 37
19 19 19 19 19 19 20 20 19 19 19 19 20 20 20 21 21 22 23 24 25 26 27 28 29 29 30 31 32 32 33 33 34 34 33 33 33 33 34 34 35 36 37 37
22 22 22 22 22 21 21 21 20 21 21 21 21 21 22 22 22 23 23 24 24 25 25 26 26 26 27 28 30 31 31 31 31 32 32 32 32 33 34 35 36 36 37 38
25 24 24 24 23 23 23 22 22 23 23 24 24 24 24 24 24 24 23 24 24 24 24 25 25 26 27 28 29 29 29 30 30 31 31 32 32 32 33 34 35 36 36 37
27 27 27 26 26 26 26 26 26 27 27 27 27 26 25 25 24 24 24 25 25 25 26 26 26 26 27 27 27 28 28 29 29 30 30 31 32 32 33 34 35 35 35 36

GEFSNGP_500_meanwind_054.txt.gz
Wind_Speed
17 18 19 19 20 21 21 21 23 22 24 23 24 25 25 25 26 26 28 29 31 32 32 33 33 33 32 32 32 32 32 32 32 32 32 32 32 32 32 33 33 33 33 34
16 17 18 19 20 20 21 21 21 23 23 22 23 24 25 25 26 27 27 27 27 28 28 28 28 28 28 28 28 28 28 29 29 29 29 29 29 29 30 30 31 31 31 32
17 17 18 17 18 20 20 20 21 21 21 23 24 23 24 24 25 25 25 25 25 25 25 25 25 25 25 25 25 26 26 27 27 27 27 27 27 27 27 28 29 29 30 30
17 17 17 16 17 18 19 19 21 20 21 22 22 22 23 23 24 24 24 23 23 23 23 23 23 23 23 23 24 24 24 25 24 23 23 24 24 24 25 26 27 27 28 28
16 16 15 15 15 16 16 17 17 17 18 19 19 20 20 21 22 22 22 22 22 22 22 22 22 22 22 22 22 22 22 21 21 21 21 21 22 22 23 24 25 25 26 27
15 15 15 14 15 14 15 15 16 15 16 16 17 18 18 20 21 21 21 21 22 22 22 21 21 21 21 21 20 20 20 20 19 20 20 20 21 22 23 23 24 24 25 25
16 15 14 15 15 14 14 14 15 15 16 16 17 18 18 19 19 20 21 21 22 22 22 21 21 20 20 20 20 19 19 19 19 19 19 20 20 21 22 23 23 24 24 25
16 16 16 15 15 15 15 15 15 15 16 16 17 17 18 18 18 19 20 21 22 22 22 21 21 21 20 19 19 19 19 19 19 19 19 20 20 21 22 23 24 24 24 25
16 16 16 17 16 16 16 16 16 16 16 16 16 17 17 18 18 19 20 22 22 23 23 22 22 21 21 20 20 20 20 20 20 20 20 21 21 22 22 23 24 25 25 26
17 17 18 18 18 18 17 17 17 17 18 18 18 18 18 19 19 20 21 22 23 24 24 23 23 23 22 22 21 21 21 21 21 21 21 22 23 23 24 24 25 26 26 27
20 19 20 20 20 20 20 20 20 20 20 20 20 20 21 21 21 21 22 22 23 24 25 25 25 24 24 23 23 23 22 22 22 23 23 23 24 25 25 26 27 27 27 28
23 22 22 22 22 22 22 22 22 22 22 22 22 22 23 23 24 24 24 25 25 25 25 25 26 26 26 25 25 25 24 24 24 25 25 25 26 26 27 28 28 28 29 29
24 24 24 24 23 23 23 23 23 24 24 24 25 25 25 26 26 26 26 27 27 27 27 27 27 28 28 27 27 27 27 27 27 27 27 28 28 29 29 29 30 30 30 31
25 25 25 24 24 24 24 24 25 25 25 26 26 27 27 28 28 28 28 29 29 29 29 29 29 29 29 29 29 29 29 29 29 29 29 30 30 30 30 31 31 31 32 32
26 25 25 25 25 25 25 25 25 25 26 26 27 27 28 29 29 29 30 30 30 30 30 30 30 31 31 31 31 31 31 31 31 31 31 32 32 32 32 32 32 33 33 34
25 25 25 25 26 26 27 26 27 27 26 26 27 27 28 28 29 29 30 31 31 31 31 31 32 32 32 32 32 32 32 32 33 33 33 33 33 33 33 33 34 34 34 35
23 24 25 26 26 25 25 25 26 26 26 26 26 26 26 27 28 28 29 30 31 31 32 33 33 34 34 34 34 34 34 34 34 34 34 34 34 34 34 34 35 35 35 36
22 23 24 24 25 25 24 24 25 25 26 26 26 26 26 27 27 28 28 29 30 31 32 33 34 34 34 34 35 35 35 35 35 35 35 34 35 35 35 35 35 35 36 37
19 20 21 22 22 22 22 23 23 23 24 24 25 25 26 27 27 28 28 29 29 30 31 32 32 33 34 34 34 34 34 34 34 34 34 35 35 35 36 36 36 36 37 38
16 17 17 18 19 20 21 22 22 22 22 23 24 25 25 25 26 27 27 28 29 30 30 30 31 32 33 33 33 34 34 34 35 35 35 35 35 36 36 36 37 38 38 39
16 17 17 18 19 19 20 21 21 22 22 22 23 23 24 24 24 24 25 26 27 28 29 29 30 30 31 32 32 33 33 34 34 34 35 35 35 36 36 37 38 38 39 39
17 18 18 19 19 19 19 20 21 21 21 22 21 22 22 22 22 23 23 23 24 25 25 26 27 28 29 30 30 31 32 32 33 33 34 34 35 35 36 37 37 38 38 38
19 19 19 20 20 20 20 20 21 21 21 21 21 21 21 22 22 22 23 23 23 23 24 24 25 26 26 27 28 29 30 31 31 31 32 33 34 34 35 36 36 37 37 37
22 22 22 22 23 22 22 22 22 22 22 22 22 22 22 22 22 22 23 23 23 24 24 24 25 25 25 26 26 27 28 29 29 29 30 31 32 32 33 33 34 34 35 35
24 24 25 25 25 25 25 24 24 24 24 23 23 23 23 23 23 23 23 24 24 25 25 25 26 26 26 27 27 27 27 27 28 28 28 29 29 30 30 31 32 32 33 34
27 27 27 27 27 27 27 26 26 25 25 25 24 24 24 24 24 24 25 25 24 24 24 25 25 25 25 26 26 26 26 27 27 27 27 28 28 29 30 31 31 32 33 34
28 28 28 28 28 28 28 27 27 27 27 26 26 26 26 26 26 26 26 25 25 25 26 26 25 25 25 24 24 24 25 25 26 27 27 28 29 30 30 31 32 33 34 35

GEFSNGP_500_meanwind_060.txt.gz
Wind_Speed
22 22 23 24 25 26 27 26 27 24 23 21 24 27 28 29 29 30 31 32 34 35 37 38 39 40 41 41 42 42 42 42 42 42 42 42 42 41 41 40 39 38 37 36
22 23 23 23 23 24 25 25 25 25 21 21 25 26 27 28 29 29 30 31 32 33 34 35 35 36 37 39 39 39 39 40 41 40 40 40 39 38 37 36 35 35 34 34
22 23 23 22 22 24 24 24 25 24 21 24 25 25 26 27 28 29 30 31 31 32 33 34 34 34 34 35 36 37 37 37 37 36 36 36 35 34 33 33 33 32 32 31
21 22 22 21 21 23 23 23 25 24 23 25 25 25 25 25 25 27 29 30 31 31 32 32 33 32 32 32 33 33 33 33 33 33 32 32 31 31 31 31 30 29 29 29
20 21 20 20 20 21 21 21 23 22 22 23 24 24 23 24 25 26 27 28 29 29 29 30 30 30 30 30 30 30 30 30 30 30 29 29 29 28 28 28 27 27 27 26
19 20 19 19 20 20 20 21 21 21 21 21 21 21 22 24 24 25 26 26 27 27 26 27 27 27 27 27 27 27 27 27 27 27 27 27 26 26 26 26 25 25 25 25
19 19 18 19 19 19 20 19 18 18 19 19 19 19 21 21 21 22 22 23 24 25 25 25 25 25 26 25 25 25 26 26 26 26 26 26 25 25 25 24 24 24 24 25
19 19 18 19 19 19 19 18 18 18 18 18 18 18 19 19 20 20 21 22 22 23 23 23 24 24 25 25 25 25 25 25 25 25 25 25 25 25 24 24 24 24 25 25
20 19 19 19 19 19 19 19 19 19 18 18 18 18 19 19 19 20 20 21 21 21 22 23 23 23 24 25 25 25 24 24 25 25 25 25 25 25 25 25 25 25 26 26
21 21 21 20 20 20 20 20 20 19 19 19 19 19 19 19 20 20 20 20 21 21 22 23 23 23 24 25 26 26 26 25 25 25 26 26 26 26 26 26 26 27 27 28
23 23 23 22 22 21 21 21 21 21 21 21 20 20 20 20 20 21 22 22 22 22 23 23 23 25 25 25 25 26 27 27 27 27 27 26 27 27 27 27 28 28 29 29
25 25 25 24 24 24 23 23 22 22 22 23 23 23 23 23 22 22 23 23 23 24 25 24 25 25 25 25 26 26 27 27 28 28 28 28 28 29 29 30 30 31 31 31
28 27 26 25 25 25 25 25 24 24 23 23 24 24 24 25 25 25 25 25 25 26 26 26 26 26 26 26 26 27 27 28 28 29 29 29 30 30 30 31 31 32 32 33
30 29 28 27 27 27 27 26 26 26 25 25 25 25 25 25 26 26 27 27 27 28 28 28 28 28 28 28 28 28 28 29 29 30 30 31 31 32 32 32 33 33 33 34
30 30 29 28 28 28 28 27 27 28 28 27 27 27 27 27 27 28 28 28 29 29 30 30 30 30 30 29 29 30 30 30 30 30 31 31 32 32 33 33 34 35 35 35
27 28 28 27 27 27 28 28 28 29 28 28 28 28 28 29 29 30 30 30 30 30 30 31 31 31 32 31 31 31 31 31 32 32 32 32 32 33 33 34 35 35 35 36
24 25 26 26 25 26 27 28 28 29 28 28 28 28 28 28 29 29 30 30 30 30 30 30 30 31 31 32 32 32 32 32 33 33 33 33 33 34 34 34 34 34 35 36
22 24 26 27 27 27 28 28 28 28 28 28 28 28 28 28 28 28 28 29 29 29 30 30 30 31 31 32 32 32 33 33 34 34 34 34 34 34 34 34 34 35 36 36
22 24 25 26 27 27 27 27 28 28 28 28 28 28 28 28 27 27 27 27 27 27 28 29 29 30 30 31 31 32 32 33 34 34 35 35 35 35 35 35 36 36 36 37
23 23 24 25 25 25 25 25 25 26 26 27 27 28 28 28 28 28 28 27 27 27 28 28 28 29 30 30 30 31 32 32 33 33 34 35 35 35 36 36 36 36 37 37
24 24 24 23 23 23 23 23 24 25 25 25 25 25 26 26 27 27 27 27 27 27 27 27 27 28 28 29 29 30 31 31 32 33 33 34 35 35 35 36 36 36 37 37
25 25 25 25 24 24 24 24 24 24 24 24 25 25 25 25 26 26 26 26 26 25 25 26 26 27 27 28 28 29 30 30 31 31 32 32 33 33 34 34 34 35 35 35
27 26 26 26 26 25 25 25 25 25 25 25 25 25 25 25 25 25 25 25 25 25 25 25 25 26 26 27 27 28 28 29 29 30 30 31 31 32 32 32 32 33 33 33
30 29 28 28 27 27 27 26 26 26 26 26 26 26 26 26 26 25 25 25 25 25 25 25 25 26 26 27 27 27 28 28 28 29 29 30 30 31 31 31 31 32 32 33
32 32 31 30 29 29 29 28 28 29 29 28 28 28 28 27 27 26 26 26 26 26 26 26 26 27 27 27 28 28 28 28 28 28 28 28 28 29 29 29 30 31 31 32
34 33 33 32 32 31 31 30 30 30 31 30 29 29 28 28 28 27 26 26 26 27 27 27 27 28 27 27 27 27 27 27 27 27 27 27 27 27 28 28 29 29 30 30
36 35 34 34 33 33 32 31 30 30 30 30 31 31 30 30 29 29 28 28 28 27 27 27 27 27 27 27 27 27 27 27 27 28 28 28 28 28 28 28 29 29 30 31

GEFSNGP_500_meanwind_066.txt.gz
Wind_Speed
20 21 22 22 23 23 24 25 25 23 22 21 25 28 29 30 30 31 32 32 33 34 34 35 36 37 38 39 41 42 43 43 44 45 45 45 45 45 45 45 44 44 44 43
21 21 22 23 23 24 25 25 26 26 23 24 27 28 29 29 30 31 31 32 33 34 34 35 36 37 38 39 40 41 41 41 42 42 42 42 42 43 43 43 42 42 42 42
22 22 23 23 23 24 25 26 27 27 25 26 27 28 28 29 29 29 30 31 32 33 33 34 34 35 36 37 38 39 40 40 40 40 40 40 40 40 40 40 40 40 40 40
21 22 23 22 23 24 25 26 27 27 27 26 26 27 28 29 29 29 29 31 31 32 32 33 33 34 35 36 37 37 38 38 38 38 38 38 37 37 37 37 37 37 36 36
21 22 23 23 22 23 24 25 26 26 26 26 26 26 28 28 28 29 29 30 31 31 32 32 32 33 34 34 35 36 36 36 37 37 37 36 35 35 35 35 34 34 33 33
21 22 22 23 23 24 24 25 25 25 25 25 25 25 26 27 26 27 27 28 29 29 30 30 31 31 32 32 33 33 33 33 34 34 34 34 34 33 32 32 31 31 31 31
21 22 22 22 22 23 23 24 23 23 23 23 23 23 24 24 24 25 25 26 26 27 28 29 29 30 30 29 29 29 29 29 30 30 30 31 31 31 30 30 29 29 30 29
22 23 22 22 22 22 23 23 22 22 22 22 22 22 22 22 22 23 24 24 24 25 25 26 27 28 28 28 27 27 27 28 28 28 28 28 28 28 28 28 28 28 29 29
22 23 23 22 22 22 23 23 22 22 22 22 22 22 22 22 21 21 22 22 23 24 25 25 26 26 26 26 26 26 26 26 26 26 27 27 28 28 28 28 28 28 28 28
22 23 23 22 22 22 22 22 23 23 23 23 23 23 23 23 22 22 22 22 22 23 24 24 24 25 25 25 25 25 25 26 26 26 27 27 27 27 27 27 28 28 28 29
23 23 24 24 24 24 23 23 23 23 23 23 23 23 23 23 23 23 23 23 23 23 23 23 24 25 25 25 25 26 26 26 26 26 26 27 27 27 28 28 29 29 29 30
23 24 24 24 24 25 25 25 25 24 25 24 24 24 23 24 24 24 24 24 24 24 24 24 25 25 26 26 26 26 26 27 27 28 28 28 27 28 28 28 29 30 30 30
24 25 26 26 27 27 27 27 27 27 26 26 25 25 25 24 24 24 25 25 25 25 25 25 25 25 26 26 27 27 27 27 27 28 28 28 28 29 29 30 30 30 31 31
25 26 27 28 29 29 29 29 29 29 28 28 27 27 27 26 26 26 26 26 26 26 26 26 26 27 27 27 27 28 28 28 29 30 30 30 30 30 30 31 31 31 32 32
24 25 26 28 29 30 30 30 30 30 30 29 28 28 28 28 28 28 28 28 28 27 28 28 28 28 28 29 29 30 30 30 31 31 31 31 31 31 31 32 32 32 33 34
22 23 24 26 27 28 29 29 30 30 30 30 29 29 29 29 29 29 29 29 29 29 29 29 30 30 30 30 30 30 31 32 32 32 33 33 33 34 34 34 34 34 34 35
21 22 23 24 25 26 27 28 28 29 29 30 30 30 30 30 30 30 30 31 31 31 31 31 31 31 31 32 32 32 32 32 32 33 33 34 34 35 35 35 35 36 36 36
22 23 23 23 24 25 27 28 29 30 30 31 31 31 31 31 31 31 31 31 31 31 31 30 30 31 31 32 32 32 32 33 33 33 33 34 35 35 35 36 36 36 37 37
23 24 24 25 26 27 28 29 29 30 31 31 32 32 32 32 32 31 30 30 30 30 30 30 30 30 30 30 31 31 32 32 33 33 33 33 34 34 35 35 35 36 37 37
26 27 27 27 28 28 28 28 29 29 30 31 32 32 32 31 31 31 31 31 31 31 31 31 31 31 30 30 30 30 30 31 32 32 32 33 33 33 34 34 35 36 37 37
30 30 30 31 31 31 31 30 30 30 30 31 32 32 32 32 31 31 31 32 32 32 31 31 31 31 31 31 30 29 29 30 30 31 31 31 32 32 33 34 34 35 35 36
33 33 33 33 33 32 32 31 31 31 31 31 31 31 32 32 32 31 31 31 31 31 31 31 30 30 30 31 30 30 29 29 29 29 30 30 31 31 31 32 32 33 33 34
37 36 36 35 35 34 33 33 32 32 31 31 31 31 31 31 31 31 31 30 30 29 29 29 29 29 30 30 30 30 29 29 29 29 29 29 29 30 30 30 31 31 32 32
40 39 38 37 37 36 35 34 34 34 33 32 31 30 30 30 31 31 30 30 29 29 29 28 28 28 28 28 29 29 29 29 29 29 29 29 29 30 30 30 30 30 30 31
41 40 39 38 38 37 36 34 33 33 32 32 32 31 31 31 30 30 30 30 29 29 29 29 28 28 28 28 28 28 28 28 28 29 29 29 29 29 29 29 29 29 29 29
42 40 39 38 36 35 35 34 33 32 32 32 32 32 31 31 30 30 30 30 29 29 29 29 28 28 27 27 27 27 27 28 28 29 29 29 29 29 28 29 29 29 30 30
41 39 38 36 35 34 33 32 32 32 32 32 32 32 31 31 30 30 30 30 29 29 29 29 29 28 28 27 27 26 26 27 27 27 27 27 27 27 28 28 29 29 30 31

GEFSNGP_500_meanwind_072.txt.gz
Wind_Speed
14 14 15 17 18 20 22 22 22 21 22 23 24 25 25 25 24 25 26 26 27 27 28 29 29 31 32 33 34 36 37 38 39 40 42 43 44 45 46 46 47 47 48 48
17 17 17 18 19 20 21 23 23 24 23 24 25 25 25 25 25 26 27 28 28 29 29 30 31 32 32 33 34 35 36 37 38 39 40 42 43 44 44 44 45 45 45 45
19 20 21 21 20 21 22 23 24 24 24 25 25 25 26 26 27 27 28 29 30 30 30 31 32 32 33 33 34 35 36 37 38 38 39 40 41 42 42 42 42 43 42 42
21 21 22 21 22 23 23 24 25 26 26 26 27 27 28 28 29 29 30 30 31 31 31 32 32 32 33 34 34 35 35 36 37 37 38 39 40 40 40 41 41 41 41 40
22 22 23 22 21 22 24 25 26 27 27 28 28 28 29 29 29 29 30 31 31 32 32 32 33 33 34 34 35 35 35 36 36 37 37 38 38 38 38 38 38 39 39 39
21 22 23 23 22 23 25 26 26 26 27 27 28 29 29 29 30 30 30 31 31 32 32 33 33 33 34 34 35 35 35 35 35 35 35 36 36 36 36 36 36 35 35 35
22 23 24 23 22 23 25 26 25 26 27 27 28 28 29 29 30 30 30 30 31 31 32 32 32 32 32 33 33 33 33 34 34 34 34 33 33 33 32 32 32 32 32 32
24 24 25 25 24 25 25 26 26 27 27 28 28 28 28 29 29 29 30 30 30 30 30 30 31 31 32 32 31 31 32 32 32 32 32 32 31 31 30 30 30 29 29 29
22 24 25 26 26 26 27 27 28 28 28 28 28 29 29 29 29 30 30 30 29 29 29 29 29 30 30 31 31 31 31 31 31 31 31 31 30 29 29 28 28 28 28 28
21 22 24 26 26 27 28 28 29 29 29 29 29 29 29 29 30 30 30 30 30 30 30 30 30 30 30 30 31 31 31 31 31 31 30 30 29 28 28 28 27 27 27 27
21 22 23 24 25 26 27 28 28 29 29 29 29 30 30 30 31 31 30 31 31 31 31 31 30 30 30 30 30 30 30 30 29 29 29 29 29 29 29 28 27 27 27 27
22 23 24 25 25 25 27 28 29 29 30 30 31 30 31 31 31 31 31 31 32 32 31 31 31 31 31 31 30 30 30 29 29 28 28 28 28 28 28 28 28 28 28 28
21 22 24 26 27 27 27 29 29 30 30 31 32 32 32 33 33 33 32 32 32 32 32 32 32 32 31 31 30 29 28 28 28 29 29 29 29 29 29 29 29 29 29 29
21 22 23 26 27 28 30 31 32 32 32 32 33 33 34 34 34 34 34 34 33 33 32 32 32 32 32 31 31 30 30 30 29 29 29 29 29 29 29 30 30 30 30 31
22 23 24 26 27 29 30 31 32 33 34 34 35 35 35 35 36 36 36 36 35 35 34 33 33 33 33 32 32 32 31 31 31 31 30 30 31 31 31 31 31 31 31 32
24 25 26 26 27 29 30 31 32 33 34 35 35 36 37 37 37 37 37 37 37 37 36 35 35 35 34 34 33 33 33 33 33 32 32 32 33 33 33 33 33 34 34 34
27 28 29 29 30 30 31 31 32 32 33 35 36 36 37 38 38 37 37 38 37 37 37 36 36 36 35 35 34 34 34 33 33 33 33 33 33 34 34 34 34 34 35 35
30 31 31 31 32 32 33 33 33 33 33 34 35 36 37 37 37 37 37 37 37 38 37 37 36 36 36 35 35 34 34 33 33 33 33 32 33 33 33 33 34 34 35 36
33 34 34 35 35 35 35 35 35 36 36 36 36 36 37 37 37 37 37 37 37 37 37 37 37 36 36 35 35 34 34 34 34 33 33 33 33 33 33 33 33 34 34 34
37 37 37 38 39 39 38 38 39 39 38 38 37 37 37 36 36 37 37 37 37 38 38 37 36 35 35 34 34 34 33 33 33 33 33 33 33 33 33 33 33 33 33 33
40 40 40 41 42 42 42 42 42 41 40 40 39 38 37 37 36 36 36 36 36 36 36 37 36 36 35 35 34 34 33 33 33 33 33 33 33 33 33 33 32 33 33 33
43 44 44 44 44 43 43 43 43 42 41 41 40 39 38 37 37 36 36 35 35 35 35 35 35 35 35 35 34 34 33 33 33 32 32 33 33 32 32 32 32 32 32 32
47 47 47 47 46 45 45 44 44 42 41 41 40 39 38 38 37 37 36 36 35 34 34 34 34 34 35 34 34 34 33 33 33 32 32 32 32 32 32 32 31 31 31 31
50 50 49 49 48 47 46 45 44 42 41 40 39 38 37 36 36 36 36 36 35 34 34 33 33 33 32 33 32 32 32 32 32 32 31 31 30 30 30 30 30 30 30 30
53 52 50 50 49 48 46 45 43 41 39 37 37 36 35 34 33 33 33 34 34 34 34 34 34 33 32 31 31 31 31 31 30 30 30 30 29 29 29 29 29 29 29 30
53 52 51 50 49 47 45 44 42 40 38 37 36 35 34 34 33 32 31 31 31 32 33 33 33 32 32 31 31 30 30 29 28 28 28 28 28 28 28 28 28 29 29 29
53 52 50 49 47 46 44 43 41 40 38 36 35 34 33 33 32 31 31 30 31 31 31 31 31 31 31 31 30 30 29 28 27 27 27 27 27 27 27 27 27 27 27 27

GEFSNGP_500_meanwind_078.txt.gz
Wind_Speed
10 10 12 13 14 15 15 16 17 17 18 20 21 22 24 25 26 27 28 29 31 33 34 34 35 35 35 35 36 36 37 37 38 39 40 40 41 42 42 43 45 45 45 45
11 12 13 14 15 16 16 17 18 20 21 21 23 24 25 26 27 27 28 30 31 32 33 34 34 34 34 35 35 36 37 37 38 38 39 40 41 41 41 42 43 43 43 43
12 13 15 16 17 19 19 20 21 22 22 24 25 26 27 27 28 29 30 31 32 33 33 34 35 35 35 35 36 36 36 37 38 39 39 39 40 40 41 41 42 42 42 42
13 15 16 16 18 19 21 23 24 24 25 26 27 29 29 30 31 31 31 32 33 34 34 35 36 36 36 37 37 37 38 38 38 39 39 40 41 41 41 42 42 42 42 42
13 16 17 18 19 20 21 23 24 26 27 28 29 30 31 32 33 33 34 35 35 36 36 37 37 38 38 38 39 39 40 40 40 41 41 42 42 42 42 42 42 42 41 41
13 15 16 18 20 22 23 23 24 26 27 28 30 31 32 33 34 35 36 36 37 37 37 38 38 38 38 39 39 39 40 40 40 41 41 41 41 42 42 42 42 41 41 40
11 13 14 17 19 21 22 23 24 26 27 28 30 31 32 33 34 35 35 36 36 37 37 38 38 38 39 38 38 39 39 39 40 40 40 41 41 41 41 41 40 40 39 38
9 11 12 16 18 19 21 23 25 26 27 28 30 31 32 33 34 35 35 36 36 36 37 37 37 37 38 38 38 38 38 38 38 39 39 39 39 39 39 38 38 38 37 36
8 9 12 14 17 19 21 23 24 26 27 28 30 31 32 33 34 35 35 36 37 37 37 37 37 37 37 37 37 37 37 37 37 37 37 37 38 38 37 37 36 36 35 34
10 10 12 14 16 18 21 23 25 26 27 29 30 31 32 33 34 35 35 35 36 36 37 37 37 37 37 37 37 36 36 36 36 36 36 36 36 36 36 36 35 34 33 33
12 13 14 15 16 18 20 22 24 26 28 29 30 31 33 34 34 35 35 36 36 36 36 36 36 37 36 36 36 36 36 36 36 36 36 36 36 35 35 34 34 33 32 32
15 16 17 17 18 19 21 23 25 27 29 30 31 32 33 34 34 35 36 36 37 37 37 37 37 36 36 37 37 37 37 36 36 36 36 36 35 35 34 34 33 32 31 31
17 18 19 20 21 22 23 24 26 27 29 31 33 33 34 35 35 35 36 36 37 38 38 38 38 38 37 37 37 37 37 37 36 36 36 35 35 34 34 33 33 32 32 32
20 21 22 23 23 25 25 26 27 29 30 32 33 35 36 37 37 37 38 38 38 38 39 39 39 39 39 38 38 38 38 37 37 36 36 35 35 34 33 33 33 32 32 32
23 24 25 26 27 27 28 29 30 30 31 32 33 34 35 36 37 38 38 39 40 39 39 40 41 41 41 40 40 39 39 38 38 37 36 36 35 35 34 33 33 32 32 33
26 27 28 29 30 31 32 32 33 33 34 34 35 35 36 36 37 38 39 40 40 41 41 41 41 42 42 41 41 40 40 39 39 38 37 37 36 36 35 35 34 34 33 34
29 30 31 32 33 35 35 36 36 37 37 37 37 38 38 39 39 39 40 40 41 41 42 42 42 42 42 41 41 41 40 40 40 39 38 38 38 37 36 36 35 35 35 35
31 33 34 35 36 37 38 39 40 40 40 40 40 40 40 40 40 41 40 41 41 41 41 41 41 41 41 41 41 41 41 40 40 40 39 39 38 38 37 36 36 35 35 35
34 35 37 38 40 41 41 42 43 43 43 42 42 42 42 41 41 41 40 39 39 39 39 39 39 39 40 39 39 40 40 40 40 39 39 39 39 38 37 36 36 36 35 35
37 39 40 42 43 44 45 45 45 45 44 44 43 42 42 42 41 41 39 39 38 38 37 37 37 38 38 38 38 38 38 39 39 39 38 38 37 37 36 36 36 36 36 36
40 42 44 46 47 47 48 47 46 46 45 44 43 43 42 41 40 39 38 37 37 37 36 36 36 36 37 37 37 36 36 37 37 37 37 37 36 36 35 35 35 35 34 34
44 46 47 49 50 49 49 48 47 46 45 44 43 42 41 40 39 38 37 37 36 36 35 35 35 35 36 36 36 36 36 36 36 36 35 35 35 34 34 34 33 33 33 33
47 49 51 51 51 51 50 48 47 46 45 44 43 41 40 39 38 36 35 35 35 34 34 34 34 34 35 36 36 36 35 35 35 35 34 34 33 33 33 33 32 32 32 32
50 52 52 52 52 51 50 49 47 45 43 42 40 39 38 37 36 36 35 34 34 33 33 32 33 33 33 34 35 35 35 35 35 34 33 33 33 33 32 32 32 32 32 31
52 53 53 53 52 52 51 49 47 44 42 41 40 39 38 37 35 34 34 33 33 33 32 32 31 31 32 32 33 34 34 34 34 34 33 33 33 33 33 32 31 31 31 30
54 54 53 54 53 53 52 49 46 44 42 40 39 38 37 36 35 34 33 31 31 30 30 29 30 30 30 30 31 32 32 32 33 33 33 32 32 32 32 31 31 30 30 30
55 54 54 54 54 53 51 49 46 44 42 40 37 35 34 33 33 31 30 29 28 27 26 26 26 27 28 29 29 30 30 31 31 31 31 31 31 31 31 30 30 30 29 28

GEFSNGP_500_meanwind_084.txt.gz
Wind_Speed
4 5 6 6 6 7 8 8 9 10 11 13 15 17 19 21 23 24 26 29 31 33 36 37 39 41 42 44 45 45 46 46 47 47 48 48 48 48 48 49 49 48 48 47
5 6 7 7 8 9 10 10 11 12 13 15 17 19 21 22 24 26 28 30 32 34 37 39 40 42 43 45 45 46 46 46 47 47 47 47 46 46 47 47 46 46 46 46
5 7 8 8 10 11 12 12 13 14 15 17 18 20 22 24 26 28 30 32 35 37 38 40 41 42 44 45 46 46 47 47 47 47 47 47 47 46 46 46 46 46 45 45
5 7 7 8 9 11 12 14 16 17 19 21 22 24 25 27 28 30 32 34 35 37 39 41 42 43 44 45 46 46 47 47 47 47 47 47 47 47 47 46 46 45 45 45
5 6 7 9 11 13 14 15 18 20 22 23 25 27 29 30 32 33 35 36 38 39 40 41 43 44 45 46 47 47 47 48 48 48 48 48 47 47 47 47 46 45 45 45
4 5 7 8 11 12 14 15 18 21 23 24 26 28 30 32 34 36 37 38 40 41 42 43 44 45 46 46 47 47 48 48 48 48 48 48 48 48 47 47 46 46 46 46
3 4 6 8 10 12 13 15 17 20 23 25 27 28 30 32 35 37 39 40 41 42 43 44 45 45 46 46 47 47 48 48 48 48 48 48 48 47 47 46 46 46 46 46
4 4 6 8 10 12 14 16 18 20 23 25 27 29 30 32 35 37 38 40 41 43 44 44 45 46 46 46 47 47 47 47 47 48 48 48 47 47 46 46 46 46 45 45
6 7 8 9 11 12 15 17 19 21 24 26 28 30 32 34 36 38 39 40 41 42 44 45 46 46 46 46 46 46 46 47 47 47 47 47 46 46 46 46 45 45 44 44
9 10 11 12 14 15 16 18 20 22 24 27 29 31 33 35 37 39 40 41 42 43 44 45 46 46 47 46 46 46 46 46 46 46 46 46 46 45 45 45 44 44 44 43
11 12 14 15 16 18 19 21 22 24 26 28 31 33 35 36 38 40 41 42 43 43 43 44 45 45 46 46 46 46 46 45 45 45 45 45 45 45 45 44 43 43 43 43
14 15 16 18 19 21 22 24 26 28 30 31 32 34 36 38 39 41 42 43 44 44 44 45 45 45 46 46 46 46 45 45 44 44 44 44 44 44 44 44 44 43 42 42
17 18 20 21 23 24 25 27 29 31 32 34 35 37 38 39 40 41 43 44 45 46 46 46 46 46 46 46 46 46 45 45 44 44 44 44 44 44 44 44 43 42 42 41
20 22 23 24 26 27 29 30 32 34 35 37 38 40 41 42 42 43 44 45 45 46 46 47 47 46 46 46 45 45 45 46 46 45 44 44 44 44 44 43 42 42 41 41
23 24 26 28 29 31 32 34 35 37 38 40 42 43 43 44 44 45 45 45 45 45 45 46 46 46 46 46 45 45 45 44 45 45 45 44 44 44 44 43 43 42 41 40
26 27 29 31 32 34 35 37 38 40 42 44 45 45 45 45 45 46 46 46 45 44 44 44 45 45 45 45 45 45 44 44 45 45 45 44 44 44 44 44 44 43 41 41
28 30 32 33 35 37 38 40 42 44 45 46 46 46 46 46 46 46 46 45 45 44 44 44 44 44 44 43 43 43 43 44 44 44 44 44 44 44 44 44 43 42 41 40
31 33 34 36 38 40 41 43 45 46 48 48 47 47 47 47 46 45 44 44 44 44 44 44 43 42 42 42 42 42 42 42 42 43 43 44 44 44 43 43 42 41 40 39
33 35 37 39 40 42 44 46 48 49 50 50 49 49 48 48 47 46 45 45 45 44 43 42 42 41 41 41 41 41 40 40 40 40 41 41 42 42 42 41 41 40 40 39
35 37 39 41 43 45 47 49 50 51 51 51 51 50 49 49 48 47 46 45 44 43 41 40 39 39 39 39 39 39 39 39 39 39 40 40 40 40 40 39 38 38 39 39
37 39 42 44 46 49 51 52 53 53 53 53 52 51 50 49 49 47 45 43 42 40 39 38 37 37 38 38 39 39 38 38 38 38 38 39 39 39 39 39 38 37 37 37
40 42 45 47 49 51 53 54 55 54 54 53 53 51 50 49 48 46 43 42 40 39 39 38 37 37 37 36 36 36 37 37 37 37 37 38 38 38 38 38 37 36 35 35
42 45 48 50 52 54 55 56 56 55 54 54 54 52 51 49 47 44 41 40 39 38 37 36 36 36 35 35 34 33 33 34 35 36 36 36 36 37 37 36 36 36 35 35
45 48 50 52 54 56 56 56 56 56 55 55 54 53 51 48 45 43 41 38 36 35 35 35 35 34 33 32 31 30 30 30 32 33 34 35 35 35 35 35 35 35 34 34
47 50 53 55 56 57 57 57 57 56 56 56 55 53 50 47 43 41 38 36 34 34 34 34 33 32 30 29 28 27 27 27 28 30 32 33 34 34 34 34 33 33 33 33
50 52 55 56 58 58 58 58 57 57 57 56 54 52 48 44 41 38 36 34 34 33 32 31 30 29 28 27 26 25 24 24 25 26 28 30 31 32 33 32 32 32 32 32
52 55 57 58 58 58 58 58 58 58 57 56 52 49 45 42 39 37 35 34 33 32 31 30 29 27 26 25 24 23 22 21 22 23 24 26 27 29 30 30 30 31 31 30

GEFSNGP_500_meanwind_090.txt.gz
Wind_Speed
10 10 10 11 11 11 11 10 9 9 8 8 8 8 9 10 11 13 15 17 20 22 24 27 29 32 34 35 37 38 40 41 42 43 43 43 44 45 46 46 46 47 47 47
9 9 9 9 9 9 9 8 8 7 7 7 7 8 9 11 13 14 16 19 21 24 26 29 32 35 37 39 40 42 43 44 45 46 47 47 47 48 48 48 48 48 48 48
9 8 8 7 7 6 6 7 6 6 6 6 7 9 11 13 14 16 19 21 23 25 28 31 33 36 39 41 43 45 46 47 48 48 49 50 50 50 49 49 49 49 49 48
8 7 7 6 6 5 5 4 4 4 5 6 8 10 12 15 17 19 21 23 26 28 31 33 36 38 40 42 44 46 47 48 49 50 50 51 51 50 50 50 50 49 49 49
7 6 6 4 4 3 2 2 3 4 6 7 9 11 13 16 19 22 25 27 29 31 34 36 38 40 43 45 46 47 49 50 50 51 51 52 51 51 51 50 50 50 49 49
6 5 4 3 2 1 2 3 5 6 8 10 11 14 16 18 21 24 27 30 33 35 38 40 42 44 46 47 49 50 51 52 52 52 52 52 52 51 51 51 50 50 50 49
4 3 2 1 0 2 3 4 6 8 10 11 13 16 18 21 23 26 29 31 34 36 39 42 44 47 49 50 52 53 54 54 55 54 54 54 53 52 52 51 51 51 51 50
2 1 1 2 3 4 5 7 8 9 11 13 15 18 20 22 25 28 30 33 36 38 40 42 45 47 49 51 53 54 55 56 56 55 55 54 54 53 52 52 52 51 50 50
3 2 3 4 5 6 7 8 10 12 14 16 18 20 22 24 27 30 32 35 38 40 42 44 46 48 49 51 52 53 54 55 55 55 55 54 54 53 52 52 51 51 51 50
3 4 5 5 6 7 9 10 12 14 16 19 21 23 25 27 29 32 35 38 40 41 43 45 48 49 51 52 53 54 54 54 54 53 53 52 52 52 52 51 50 50 50 49
3 5 6 7 9 10 11 13 15 18 20 22 24 26 29 31 34 36 39 41 42 44 46 47 49 50 52 52 53 53 53 53 53 53 53 52 51 51 50 50 49 49 49 49
5 7 8 10 12 13 15 17 19 21 23 25 27 30 32 35 37 40 42 43 45 46 47 49 50 51 51 52 52 52 52 52 52 52 52 52 51 50 49 49 49 49 48 48
8 9 11 13 14 16 18 20 22 24 26 28 30 33 36 38 40 42 44 45 46 47 48 49 50 51 51 50 51 51 51 50 50 50 50 50 50 50 49 48 48 48 47 47
10 12 14 15 17 19 21 23 25 27 30 32 34 37 39 41 43 45 46 47 48 48 49 49 50 50 50 49 49 48 48 48 48 48 48 48 48 48 48 48 48 47 46 46
13 15 16 18 20 22 24 26 29 31 33 36 38 40 43 45 46 47 48 49 49 49 50 50 50 49 49 48 47 47 47 47 46 46 46 46 46 46 46 47 47 47 47 46
15 17 19 21 23 25 27 30 32 34 37 39 42 44 46 48 49 49 50 50 50 50 51 51 49 48 47 47 46 46 46 46 45 44 44 44 44 44 45 45 46 46 46 46
18 20 22 24 26 28 30 33 35 38 41 43 45 47 49 50 51 51 51 51 51 51 51 50 48 47 47 47 46 46 45 45 45 43 43 43 43 43 43 44 44 45 45 45
21 23 24 26 29 31 34 36 39 41 44 47 48 50 51 52 52 52 52 52 52 51 51 50 48 48 47 47 45 44 43 43 43 43 42 41 41 41 42 42 43 43 44 45
23 25 27 29 32 34 37 39 42 45 47 49 51 52 53 54 54 54 53 53 52 51 49 49 48 47 46 44 42 41 40 40 39 39 39 39 39 39 39 40 40 41 42 43
25 27 29 32 34 37 39 42 45 47 49 51 53 54 55 55 55 55 55 53 52 51 49 47 46 44 42 40 39 38 37 37 36 35 35 36 36 36 37 37 38 39 40 40
27 29 31 34 36 39 42 44 47 49 52 54 55 55 56 57 57 56 55 53 52 50 48 46 44 42 39 37 36 36 36 35 34 34 33 33 32 32 33 35 36 37 38 39
29 31 33 36 39 41 44 47 49 52 54 56 56 57 57 57 57 57 56 53 50 48 46 44 42 39 37 36 36 36 35 34 33 31 30 29 28 29 30 31 32 34 36 36
31 33 35 38 41 44 47 49 52 54 56 57 58 58 58 58 58 57 55 52 50 47 44 41 39 37 36 36 35 35 33 31 29 28 27 26 26 26 26 28 30 32 34 35
32 34 37 40 43 46 49 51 53 55 57 58 58 59 59 59 59 57 55 51 48 45 42 39 37 36 35 34 33 32 30 27 26 25 25 25 25 25 25 26 27 29 31 33
34 36 39 42 45 48 50 52 55 57 58 59 59 59 60 60 58 56 53 49 46 42 38 36 35 34 33 32 30 28 26 24 23 22 22 22 22 23 23 24 25 26 28 30
35 38 41 43 47 49 52 54 56 57 58 59 59 60 60 59 57 54 51 47 43 40 37 35 34 33 31 29 27 25 23 21 20 20 19 19 19 20 20 22 23 24 26 27
37 39 42 45 49 51 53 55 57 58 59 59 59 59 59 58 56 53 49 45 42 38 36 34 32 30 28 26 24 22 20 19 18 17 17 17 17 17 18 19 21 22 23 25

GEFSNGP_500_meanwind_096.txt.gz
Wind_Speed
11 11 11 10 10 10 10 10 10 10 9 9 8 8 7 5 4 3 3 3 2 2 3 5 7 9 11 13 15 17 19 21 23 25 26 28 30 32 33 34 36 37 38 40
10 10 10 10 10 10 10 9 9 8 8 7 6 6 4 3 3 2 2 3 4 6 7 10 12 14 15 17 19 21 24 26 27 29 31 33 35 36 38 39 41 43 44 44
10 10 10 9 9 9 8 7 6 6 5 4 4 3 2 1 1 2 4 6 8 9 11 13 15 17 19 21 23 26 28 30 32 34 36 39 40 42 43 44 45 46 47 48
9 9 8 8 7 7 6 6 5 5 4 4 3 2 2 3 4 6 8 9 11 13 15 16 18 21 23 25 27 30 32 34 37 39 41 43 45 46 47 49 50 50 51 51
9 8 7 7 7 6 6 5 4 3 2 2 2 3 4 5 7 9 10 12 14 16 18 20 23 25 27 30 32 34 37 40 42 45 47 48 50 51 52 52 53 53 54 54
7 7 7 7 6 5 4 3 2 1 2 3 4 4 6 8 9 10 12 15 17 19 22 24 26 29 31 33 36 39 41 44 47 49 51 52 54 55 55 56 56 56 55 54
6 6 6 5 4 3 2 1 1 2 3 5 6 8 9 11 12 14 16 18 20 22 24 27 30 32 35 38 40 43 46 48 50 52 54 56 57 57 58 58 57 56 56 55
5 4 4 3 2 1 1 2 3 4 6 7 9 10 12 13 15 16 18 21 23 25 28 31 34 36 39 42 45 47 49 52 54 56 58 59 59 60 60 59 59 58 56 55
3 3 2 1 1 1 2 3 5 6 7 8 10 12 13 15 17 19 22 24 27 29 32 36 39 41 44 47 50 52 53 55 57 59 61 62 62 62 61 60 58 57 56 55
2 1 0 1 1 2 3 4 6 7 8 10 12 14 16 19 21 23 26 29 31 34 37 40 43 46 49 51 53 55 57 58 60 61 62 63 63 62 61 60 59 57 56 54
2 1 0 1 3 4 5 6 7 9 11 13 15 17 20 22 25 27 30 32 35 38 41 44 47 50 52 55 56 58 60 61 61 61 62 62 61 60 59 58 58 56 55 54
2 1 2 3 4 6 7 9 10 12 14 16 19 21 23 26 28 31 33 36 39 42 45 48 50 53 55 57 59 60 60 60 61 61 61 60 59 58 57 56 55 55 54 52
4 4 5 6 7 8 10 12 13 15 18 20 22 24 27 29 32 34 37 40 42 45 48 50 53 55 57 58 58 59 59 60 60 60 60 58 57 57 56 55 55 53 52 50
7 7 8 9 10 11 13 15 16 19 21 23 25 28 30 33 36 38 40 43 46 48 51 54 56 57 58 58 58 59 59 59 59 58 57 56 55 55 55 53 52 51 50 49
10 11 12 12 13 15 16 18 20 22 24 26 29 32 34 37 39 41 44 46 49 52 54 56 57 57 57 57 58 58 58 57 56 55 54 53 53 53 52 50 49 47 46 46
14 14 15 16 17 18 19 21 23 25 28 30 33 35 38 40 42 44 47 50 53 55 56 58 58 58 57 57 57 56 56 55 54 52 51 51 50 50 48 46 45 43 42 41
17 18 18 19 20 21 23 25 27 29 31 34 36 39 41 43 45 48 51 54 56 57 58 59 58 57 57 56 56 55 54 52 51 50 49 48 47 45 43 41 40 39 39 39
21 21 22 23 24 25 26 28 30 32 35 37 39 42 44 46 48 51 54 56 58 59 59 59 58 57 56 56 55 54 52 50 48 47 46 44 42 39 38 37 36 36 36 36
24 24 25 25 26 28 29 31 33 35 38 40 42 44 46 49 51 54 56 58 58 59 58 58 58 57 56 55 54 52 50 48 45 43 41 39 37 35 33 32 32 33 32 32
26 27 28 28 29 31 32 34 36 38 40 42 44 46 49 51 54 56 57 58 59 59 59 58 57 56 55 54 52 50 48 45 42 40 37 35 33 32 31 30 29 28 28 28
29 30 30 31 32 33 35 36 38 40 42 44 46 48 51 53 56 57 58 58 59 60 59 58 57 56 54 52 50 48 45 42 38 36 34 32 31 29 28 27 26 25 24 24
31 32 32 33 34 35 37 38 40 42 43 45 47 50 52 55 56 58 59 59 59 60 59 58 56 55 52 50 48 45 42 39 36 34 31 30 28 27 26 24 23 23 22 22
32 33 34 35 36 37 38 40 41 43 45 47 49 51 54 55 57 58 59 59 60 59 59 57 55 53 50 48 46 43 40 37 34 32 30 28 26 25 24 22 21 21 20 19
34 34 35 36 37 38 39 40 42 44 46 48 50 52 54 56 57 59 59 59 59 58 57 55 53 50 48 46 44 41 37 35 32 30 28 27 25 24 22 21 20 19 19 18
35 36 36 37 38 39 40 41 43 45 47 49 51 53 55 56 58 58 59 58 58 57 55 53 51 48 46 44 41 38 34 32 30 27 25 24 23 22 21 20 19 18 18 17
36 37 37 38 39 40 41 42 44 46 48 50 51 53 55 57 57 58 58 57 57 56 54 51 48 45 43 40 38 35 32 29 27 24 22 21 20 19 18 17 17 16 16 16
36 36 37 38 39 40 41 43 45 47 48 50 52 54 55 56 57 57 57 56 55 54 52 49 45 42 39 37 35 32 29 27 24 22 20 18 17 16 15 14 14 13 14 14

GEFSNGP_500_meanwind_102.txt.gz
Wind_Speed
9 9 9 9 10 10 10 11 12 12 11 12 12 12 12 11 11 10 10 9 9 8 8 8 7 6 5 5 6 6 6 7 8 10 13 15 17 20 23 26 29 32 35 37
10 10 10 10 11 11 11 12 12 11 11 11 11 10 10 9 9 8 7 7 7 7 6 6 6 4 3 1 3 4 6 7 9 11 13 16 19 21 23 26 29 32 35 38
9 9 9 10 10 10 10 10 11 10 10 9 9 9 8 8 8 8 7 6 6 5 4 3 2 1 1 2 4 5 7 10 12 15 17 20 23 25 27 30 32 35 38 41
7 7 7 8 9 9 8 9 9 8 7 7 6 7 7 7 6 6 5 4 3 3 3 3 4 5 6 8 10 12 14 16 18 21 24 26 29 31 33 35 37 39 42 45
6 6 7 7 7 6 6 7 7 7 6 6 6 6 5 5 4 3 2 2 3 4 6 7 9 11 12 14 16 18 20 22 25 27 30 32 35 37 40 42 44 46 48 50
6 5 5 5 5 4 5 4 4 4 4 5 4 3 2 2 1 2 3 4 6 8 10 12 13 16 18 19 21 23 25 27 30 32 35 38 41 43 46 49 51 53 54 55
5 4 4 3 3 2 2 2 2 2 2 1 1 1 2 2 4 5 6 8 10 12 14 16 18 20 22 24 26 28 30 32 35 38 41 43 46 49 52 54 57 59 60 60
5 4 4 3 3 2 2 2 1 1 1 2 3 4 5 6 7 9 10 12 14 16 17 19 21 23 25 27 30 32 35 37 40 43 46 49 52 55 57 60 62 63 64 64
5 4 4 4 4 4 3 3 3 3 4 5 6 7 8 9 10 11 12 14 16 18 21 23 25 27 29 31 33 36 39 42 45 48 51 54 57 60 62 64 65 65 66 66
5 5 5 5 5 5 5 5 5 6 6 6 7 8 9 11 12 13 15 17 20 22 24 26 29 31 33 36 38 41 44 46 49 52 55 58 61 63 65 66 66 66 66 66
7 7 7 7 7 7 7 8 8 8 8 9 10 11 12 14 15 17 19 22 24 26 29 31 33 36 38 41 44 46 49 52 54 57 59 61 63 64 64 64 65 65 64 64
10 10 10 10 10 10 10 10 11 11 11 12 13 14 16 17 19 21 24 26 28 31 33 35 38 41 43 46 49 51 54 56 59 61 62 63 63 62 62 61 61 62 61 61
13 13 12 12 12 13 13 13 14 14 15 16 17 18 19 21 23 25 27 30 32 34 37 39 42 45 48 51 53 56 58 59 61 62 62 62 61 60 58 58 58 58 58 57
16 16 16 15 15 16 16 17 17 17 18 19 20 22 23 25 27 29 31 33 36 38 41 44 46 49 51 54 56 58 60 61 61 61 61 60 59 58 57 55 55 55 56 56
18 18 18 18 19 19 19 19 20 21 22 23 24 25 27 28 31 33 35 37 40 42 45 47 50 52 55 57 58 60 60 60 60 60 60 59 57 56 55 54 53 52 52 52
20 20 21 21 21 21 22 22 23 24 24 26 27 28 30 32 34 36 39 41 43 46 48 51 53 55 57 59 60 60 60 60 59 59 58 57 55 54 53 52 51 50 49 48
22 23 23 23 23 24 25 25 26 26 27 28 30 31 33 35 37 40 42 44 47 49 51 53 55 57 58 60 60 60 59 59 58 58 56 55 53 52 51 50 49 47 46 44
26 26 26 26 26 26 27 28 28 29 30 31 33 34 36 38 40 42 44 47 49 51 53 55 56 58 59 59 59 59 58 58 57 56 55 53 52 50 49 47 45 44 42 40
29 29 29 29 29 29 30 30 31 32 33 34 36 37 39 40 42 44 47 49 50 52 54 56 57 58 58 58 58 58 57 57 56 55 53 51 50 48 46 43 41 39 36 34
31 31 31 31 31 32 32 33 34 35 36 37 38 40 41 43 45 47 48 50 51 53 55 57 57 57 57 57 58 58 57 56 55 52 50 49 47 45 43 40 37 34 32 31
33 33 32 32 33 33 34 35 36 37 38 39 40 41 43 44 46 48 49 51 52 54 56 57 57 57 57 58 58 58 56 55 53 50 48 47 45 42 39 36 33 31 29 27
34 34 34 34 34 35 36 37 37 38 40 41 42 43 44 45 47 48 50 51 53 54 56 56 56 57 57 58 58 57 55 53 51 49 46 44 42 39 35 33 30 28 26 24
34 35 36 36 36 37 37 38 38 39 41 42 43 44 45 46 48 49 51 52 54 55 55 56 56 56 57 58 57 55 53 51 49 47 44 42 38 34 31 29 26 24 22 21
35 35 36 37 37 38 38 39 39 40 41 42 43 44 45 47 48 50 51 53 54 55 55 55 55 56 57 57 56 54 51 49 47 44 41 38 34 31 28 26 23 22 20 19
36 37 37 37 38 38 39 39 40 41 42 43 44 45 46 47 49 50 52 53 54 54 54 55 55 56 56 56 54 51 48 46 43 40 37 33 30 28 25 23 21 19 17 16
37 37 38 38 39 39 39 40 41 42 43 44 45 46 47 48 49 50 52 52 53 54 54 54 55 55 55 54 51 48 45 42 39 36 32 29 26 24 22 20 18 16 15 14
36 37 38 38 39 39 40 40 41 42 43 44 45 46 47 48 49 50 51 51 52 52 52 53 53 53 52 51 48 44 41 38 35 32 28 25 23 21 20 17 15 14 12 11

GEFSNGP_500_meanwind_108.txt.gz
Wind_Speed
8 7 7 6 6 6 5 5 5 6 6 7 7 7 7 8 8 8 8 8 9 8 8 9 8 8 8 6 4 3 4 5 7 9 12 14 16 18 20 23 26 27 29 31
8 8 7 6 6 5 5 4 5 4 5 5 5 5 5 6 6 6 6 6 6 6 6 6 5 5 5 4 3 2 2 4 7 9 11 14 16 18 20 23 25 28 30 32
6 6 5 5 5 4 4 3 3 2 3 3 3 3 3 3 4 4 4 5 5 6 6 5 5 5 4 3 2 2 2 4 6 9 11 14 17 20 22 24 26 28 30 33
4 4 4 4 4 3 2 2 1 1 2 2 3 2 2 3 4 4 4 4 5 5 4 4 4 5 5 5 5 5 5 6 8 10 13 15 18 21 24 26 28 30 33 35
3 3 4 3 3 2 2 2 2 2 2 3 3 3 3 3 4 4 5 5 5 5 6 6 6 6 7 8 9 10 11 12 14 16 18 20 22 25 28 31 34 36 37 40
0 0 1 1 1 0 1 2 2 3 4 3 3 4 4 5 5 6 7 8 8 8 8 9 10 11 12 13 14 15 17 18 20 22 24 26 28 30 33 36 39 42 44 46
2 2 2 2 2 3 3 4 4 5 5 5 5 5 6 7 8 9 10 11 11 12 12 13 15 16 17 18 20 20 22 23 24 26 28 30 32 34 37 40 43 46 49 51
4 5 5 6 6 6 6 7 7 6 6 7 8 8 9 10 11 12 13 14 15 15 16 17 18 19 21 22 23 25 26 27 29 30 32 35 37 39 42 45 48 51 54 56
7 7 8 8 9 9 9 9 9 9 10 10 11 12 13 14 15 16 16 17 18 18 19 20 21 22 24 25 26 28 29 31 33 35 38 40 43 45 48 50 53 55 58 60
10 10 11 10 10 10 10 10 11 12 13 14 14 15 16 17 18 18 19 20 20 21 22 23 25 26 27 29 30 32 34 36 38 41 43 45 48 50 52 54 56 57 59 61
13 13 12 12 13 13 13 13 14 15 16 17 18 18 19 19 19 20 21 22 23 24 25 26 28 30 32 33 35 37 39 40 42 45 47 49 52 54 55 56 58 59 61 63
15 16 15 15 16 16 17 17 18 18 19 19 20 21 22 22 23 23 24 25 26 27 29 30 32 34 36 37 39 41 42 44 46 49 51 53 54 55 57 58 60 61 62 63
17 18 18 18 19 19 19 20 20 21 22 23 23 24 24 25 26 26 27 28 29 31 32 34 36 37 39 41 42 44 46 49 51 53 54 55 56 56 57 59 61 61 61 61
21 21 21 21 22 22 23 23 24 25 25 25 26 27 27 28 28 29 30 31 33 34 36 37 39 41 43 44 46 48 50 52 53 55 55 56 57 58 59 59 59 59 60 60
25 25 25 25 26 26 26 27 27 28 29 29 30 30 31 31 32 32 33 35 36 37 39 41 42 44 45 47 49 51 52 54 55 56 57 58 58 59 59 59 59 58 58 58
27 28 28 28 29 29 30 30 30 31 32 32 32 33 33 34 34 35 36 38 39 40 42 43 45 46 48 49 51 52 54 55 56 57 58 59 59 59 59 59 58 57 56 55
29 30 30 31 31 32 32 33 33 34 34 34 35 35 35 36 37 37 39 40 41 43 44 46 47 48 50 51 52 53 55 57 57 58 59 59 59 59 58 58 57 55 54 52
30 31 31 32 33 34 34 34 35 35 35 36 37 37 37 38 39 40 41 42 43 45 46 47 49 50 51 52 53 54 56 57 58 59 59 59 58 58 57 57 55 53 51 49
32 32 32 32 33 34 35 36 36 36 36 37 38 38 39 40 41 41 43 44 45 46 47 48 49 51 52 53 54 55 56 57 58 59 59 58 57 56 56 55 53 50 48 45
32 33 34 34 34 35 35 36 37 37 37 38 39 40 41 41 42 44 45 45 46 47 48 49 50 52 53 54 55 56 57 58 58 58 57 56 55 54 53 52 50 47 45 42
34 34 34 35 35 36 36 37 38 38 38 39 40 41 42 42 43 44 45 45 46 48 49 50 51 52 53 54 55 56 57 58 58 57 56 55 53 52 50 49 47 44 42 38
35 35 35 35 36 36 37 38 38 39 39 40 41 41 42 43 44 44 45 46 47 48 49 50 51 52 53 54 54 55 56 57 57 56 54 52 51 49 47 46 44 41 37 34
36 36 36 36 37 38 38 38 39 39 39 40 41 42 42 43 44 45 46 46 48 49 50 50 51 52 53 53 54 55 56 56 55 54 51 49 48 46 44 42 39 36 32 30
37 37 37 37 38 38 39 39 39 39 40 40 41 42 43 44 44 45 46 47 48 49 49 50 51 51 52 52 52 53 54 54 53 51 49 47 45 43 40 38 34 31 28 26
38 38 39 39 39 40 40 40 40 40 41 41 42 42 43 44 44 45 46 47 47 48 48 49 50 50 50 50 51 52 52 51 50 48 45 43 41 39 36 33 30 27 25 23
39 39 40 40 40 40 40 40 40 41 41 42 42 43 43 43 44 45 45 46 46 46 47 48 49 49 49 49 50 50 49 49 47 44 42 39 37 34 31 29 26 24 23 22
41 41 41 40 40 40 40 41 41 41 42 42 43 43 43 43 44 44 45 45 45 45 46 47 47 47 47 48 48 47 47 46 43 41 38 35 33 30 28 26 24 23 21 20

GEFSNGP_500_meanwind_114.txt.gz
Wind_Speed
8 8 7 7 7 6 5 5 6 7 7 7 6 6 7 7 8 9 10 11 12 12 13 13 13 13 12 10 8 7 5 3 3 3 4 6 9 12 15 19 23 25 28 31
8 7 7 6 5 5 5 6 6 7 7 7 7 6 6 7 7 8 9 10 11 12 13 13 13 12 12 11 10 9 7 6 6 5 5 6 7 9 12 16 19 22 25 29
6 6 5 5 5 5 5 6 6 7 7 6 6 6 6 7 8 9 10 10 11 11 12 12 13 12 12 11 10 9 9 8 8 8 8 9 9 11 13 15 18 20 23 27
5 4 4 4 4 4 4 5 5 6 6 6 6 6 7 8 9 9 10 11 11 11 12 12 11 11 11 11 11 10 11 11 11 11 12 13 14 15 17 18 20 23 26 29
3 3 3 3 3 3 3 4 5 5 5 6 6 7 7 9 10 11 11 11 12 12 13 13 13 12 12 12 12 13 13 13 14 15 16 16 17 18 20 22 23 26 29 32
2 3 3 4 4 4 5 5 6 6 6 6 7 8 9 10 11 11 12 12 13 13 14 14 14 14 14 14 14 15 16 16 17 18 20 21 21 22 24 25 27 29 32 34
4 4 5 5 6 6 7 7 8 8 9 9 10 10 10 11 12 13 14 15 15 16 16 16 17 17 17 17 17 18 19 20 21 22 23 24 25 26 27 29 31 34 35 37
6 7 7 8 8 8 8 9 10 10 10 10 11 12 12 14 15 15 16 17 18 18 19 19 19 20 20 20 21 21 22 23 24 25 26 28 29 31 32 34 36 37 39 41
8 8 9 9 9 10 10 11 11 11 12 12 13 14 15 16 17 18 18 19 20 20 21 21 22 22 22 23 24 25 26 27 28 30 31 32 34 35 37 38 40 42 43 45
9 10 10 10 11 12 12 12 13 13 14 15 16 17 18 19 19 20 21 21 22 23 23 24 24 24 25 26 27 29 30 31 32 33 35 37 38 40 41 43 44 45 47 48
13 12 12 12 13 14 14 14 14 15 16 17 18 19 20 21 21 22 23 23 24 25 25 26 27 28 28 29 30 31 33 34 35 37 39 41 42 44 45 46 47 48 49 50
15 15 15 14 15 16 16 16 16 17 18 19 20 21 23 24 24 25 25 26 27 28 28 29 30 31 32 33 34 35 36 38 39 41 43 44 45 47 48 50 50 51 51 52
18 18 18 18 18 18 19 19 19 20 20 21 22 23 24 25 26 27 28 29 30 30 31 32 33 34 35 36 37 38 39 41 42 44 45 47 48 49 50 51 52 52 52 53
20 21 21 21 21 22 22 22 22 23 23 24 25 26 27 28 29 30 30 31 32 32 33 34 35 36 37 38 39 40 42 43 45 46 48 49 50 51 51 51 52 52 53 53
22 23 23 24 24 25 25 25 26 26 26 26 27 29 30 31 32 32 32 33 34 34 35 36 37 37 39 40 41 42 44 45 47 48 50 51 51 52 52 52 52 52 52 52
24 24 24 25 25 26 26 27 27 28 28 28 29 30 31 32 33 33 34 35 36 36 37 38 39 39 40 41 43 44 45 46 48 49 50 51 52 52 53 52 52 51 51 51
27 27 27 27 27 28 28 28 28 29 29 30 31 32 33 34 35 35 36 37 37 38 39 40 40 41 42 43 44 45 46 47 49 50 51 52 52 53 53 52 51 51 51 51
30 30 29 29 29 29 30 30 31 31 31 32 33 34 35 35 36 37 38 38 38 39 40 41 41 42 43 44 45 46 48 49 51 52 52 53 53 53 52 51 51 50 50 50
31 31 31 32 32 32 32 32 33 33 33 34 34 35 36 37 38 38 39 39 39 40 41 41 42 43 45 46 47 48 49 50 51 52 52 53 53 52 52 51 50 50 49 49
31 32 32 32 33 33 34 34 34 34 34 35 36 37 38 38 39 40 40 40 40 41 42 43 44 44 46 47 47 48 49 50 51 52 52 52 52 52 51 50 49 48 48 47
33 33 33 33 33 34 34 34 35 35 36 37 37 38 39 40 40 40 41 41 41 42 43 43 44 45 46 47 47 48 49 50 51 51 52 52 51 50 49 48 47 45 45 44
35 35 34 34 34 34 34 35 35 36 37 38 39 39 40 40 40 41 41 41 41 42 43 43 44 45 46 47 47 48 49 49 50 50 50 50 49 48 47 45 43 43 42 41
35 36 36 35 35 35 36 36 36 37 37 38 38 39 39 40 40 41 41 41 42 42 43 44 44 45 46 46 47 47 48 48 49 49 48 48 46 45 43 42 41 40 39 37
36 36 36 36 37 37 37 38 38 38 38 39 39 39 40 40 41 41 42 42 42 43 43 44 44 45 45 45 45 45 46 46 47 47 46 45 43 41 40 39 39 38 36 33
37 36 36 37 37 38 38 39 39 39 39 40 40 40 40 40 41 42 42 42 42 42 43 43 43 44 44 44 44 44 44 44 44 44 43 41 40 39 38 38 36 35 32 30
37 37 37 38 38 39 39 39 39 39 40 40 40 40 40 40 41 41 42 42 41 41 41 41 42 42 42 42 41 41 41 41 41 40 40 38 37 37 36 35 33 31 28 26
39 39 39 39 39 39 40 40 40 40 40 40 39 39 40 41 41 41 40 40 39 39 40 40 40 40 40 39 39 39 39 38 38 37 37 36 35 35 34 32 29 27 25 24

GEFSNGP_500_meanwind_120.txt.gz
Wind_Speed
4 3 3 2 2 2 3 3 3 4 4 5 6 6 6 7 8 9 10 10 10 11 12 13 13 13 14 14 13 13 12 12 11 11 10 9 10 11 12 14 16 18 20 22
4 4 3 2 3 4 4 4 4 4 4 5 6 6 7 8 8 9 10 10 11 12 13 14 14 14 14 14 14 14 13 12 11 11 10 10 11 11 12 14 15 16 17 19
4 4 3 3 4 4 5 4 5 5 5 5 6 7 8 8 9 10 11 11 12 13 13 14 14 14 14 14 13 13 13 12 12 12 12 11 12 13 13 14 16 18 18 20
5 4 5 4 4 5 5 5 5 6 5 5 6 8 9 10 10 11 12 13 13 14 14 14 14 15 15 14 14 14 14 13 13 13 14 14 14 14 15 17 18 19 20 21
7 6 5 5 6 7 7 7 7 7 7 7 7 8 10 11 12 13 13 14 14 15 15 15 15 15 15 16 16 16 16 15 15 15 15 16 17 17 18 19 20 21 22 24
9 9 7 7 8 8 9 8 9 9 9 10 10 11 11 13 13 14 15 15 15 16 16 17 17 17 17 17 18 17 17 17 18 18 19 19 20 20 22 23 23 24 25 27
11 11 10 10 10 10 10 11 11 11 12 13 13 14 14 14 14 15 15 16 16 17 17 18 18 19 19 19 19 19 20 20 20 21 21 22 23 24 25 26 27 28 29 31
13 13 13 13 12 12 12 13 13 13 14 15 15 15 16 16 16 17 17 18 19 19 19 20 20 20 21 21 22 22 23 23 24 24 25 26 27 27 28 29 31 32 33 35
16 15 16 16 15 15 15 15 15 16 16 17 17 17 18 18 19 19 20 20 21 22 22 22 23 23 24 24 25 25 26 26 27 28 28 29 30 31 32 34 35 35 37 38
19 19 19 19 18 18 17 17 17 18 19 20 20 20 20 21 21 22 22 23 24 24 24 25 25 26 27 27 28 29 29 30 31 31 32 33 33 35 36 37 38 39 40 41
22 21 21 21 21 20 20 20 20 20 21 21 21 22 22 22 23 24 24 25 25 26 27 27 27 28 29 30 31 31 32 33 34 34 35 36 37 38 39 40 41 42 43 44
25 24 24 23 23 24 23 23 22 22 23 23 24 24 24 25 25 25 25 26 27 27 28 29 29 31 32 33 34 34 35 36 37 37 38 39 40 41 42 43 44 45 45 46
28 27 26 26 26 26 26 26 25 25 25 25 26 26 27 27 27 28 28 29 29 30 30 31 32 34 35 36 36 37 37 38 39 40 40 41 42 43 44 45 46 47 47 48
30 29 28 28 29 29 28 28 28 28 28 28 28 28 29 29 30 30 31 31 32 32 33 34 35 35 36 37 37 38 38 39 40 41 42 43 44 45 46 46 47 48 49 49
31 31 30 30 30 30 30 30 30 30 30 30 31 31 31 32 33 33 33 33 33 34 35 35 36 36 37 38 38 39 40 40 41 42 43 45 45 46 47 47 48 48 49 50
33 33 33 32 32 32 32 32 32 32 32 32 32 33 33 33 34 34 35 35 35 35 36 36 37 38 39 40 40 41 41 41 42 43 44 45 46 47 47 48 48 49 49 49
34 34 35 35 35 34 34 34 34 33 33 34 34 34 34 34 35 35 36 36 36 36 37 38 39 40 41 42 42 42 42 42 43 44 45 46 46 47 47 48 49 49 50 50
35 35 35 36 36 36 36 36 36 36 36 36 36 36 36 36 36 37 37 37 38 38 39 40 40 41 42 43 42 42 42 43 44 45 46 47 47 48 48 49 49 49 50 50
36 35 35 36 36 36 36 36 37 37 37 37 38 38 38 38 38 38 38 39 39 40 41 41 42 43 43 43 43 43 43 44 45 46 47 48 48 48 48 49 49 49 49 48
36 36 36 36 36 36 36 37 37 37 38 38 39 39 39 39 39 39 40 40 41 42 42 42 43 43 44 44 44 44 44 44 45 46 47 47 48 48 48 47 48 47 46 46
37 37 37 37 37 37 37 37 38 38 38 38 39 39 40 40 40 40 41 41 42 42 42 43 43 43 44 44 44 44 44 45 45 46 47 47 47 46 46 45 45 44 43 43
38 38 37 37 38 38 38 38 38 39 39 39 39 40 40 40 40 41 41 42 42 42 43 43 43 43 43 44 44 44 44 44 45 45 45 46 45 44 43 42 41 41 40 40
39 39 39 39 39 39 39 39 39 39 39 39 39 40 40 40 40 41 42 42 42 42 43 43 43 43 43 43 42 43 43 43 43 43 43 43 42 41 40 39 39 39 39 39
39 39 39 39 39 39 39 39 39 39 39 39 39 39 40 40 41 42 42 42 42 42 43 43 43 42 42 42 42 42 42 41 41 41 40 40 39 39 38 38 38 37 37 37
40 40 40 40 40 40 40 39 39 39 39 39 39 39 39 40 41 41 41 41 42 42 42 42 43 42 41 41 41 40 39 38 38 38 38 37 37 37 37 36 36 36 36 36
41 40 40 40 40 40 40 39 39 39 40 40 39 40 39 39 40 40 40 40 40 41 41 42 42 41 40 40 39 38 37 36 36 36 36 35 35 35 35 35 35 35 34 33
41 41 40 40 40 40 40 40 40 40 40 40 39 39 39 39 39 39 39 39 40 40 41 41 40 39 38 37 36 35 35 35 35 34 33 34 34 35 35 34 33 32 31 30

GEFSNGP_500_meanwind_126.txt.gz
Wind_Speed
2 2 2 2 3 4 5 5 5 4 5 6 6 6 6 6 7 7 7 8 9 10 11 11 12 11 11 11 11 12 13 13 15 16 16 17 16 17 17 17 18 19 20 21
3 3 4 3 4 4 4 4 5 5 5 6 6 6 6 6 6 7 7 8 9 10 10 11 11 11 11 11 12 12 13 14 15 16 17 17 17 17 18 18 18 19 20 21
5 5 5 5 5 5 5 6 6 5 6 6 6 6 6 7 7 7 8 8 9 10 10 11 11 11 12 13 13 14 15 16 16 17 17 17 17 18 18 19 19 20 22 23
6 7 6 7 7 7 7 7 7 7 7 8 8 8 8 8 8 9 9 10 10 11 12 12 13 14 14 14 15 15 16 17 17 18 18 19 19 19 20 20 21 22 23 24
9 9 8 8 9 10 10 9 9 9 9 10 10 10 10 10 11 11 12 12 12 13 13 14 15 15 16 16 16 17 18 19 20 20 21 21 21 22 22 23 23 24 25 25
13 13 11 11 11 11 12 11 12 12 11 12 12 12 12 14 14 14 14 15 15 15 15 15 16 17 17 18 18 19 19 20 21 22 22 23 23 24 25 25 26 27 27 28
16 16 14 15 15 14 14 15 15 15 14 14 14 15 15 16 17 17 17 18 18 18 18 18 18 19 19 20 21 21 22 23 23 24 24 25 26 27 27 28 29 30 29 30
19 18 18 18 18 18 18 17 17 17 17 17 18 18 18 18 19 18 19 19 19 19 20 20 21 21 22 22 23 24 25 25 26 26 27 28 29 30 31 31 32 32 32 32
22 21 21 21 22 21 21 20 20 20 20 21 21 21 21 21 21 21 21 22 22 22 22 22 23 24 24 25 25 26 27 27 28 28 29 30 31 32 33 33 34 34 34 34
25 24 25 25 25 25 25 24 23 23 23 23 23 23 23 23 24 24 25 25 25 25 25 25 25 26 26 27 28 29 30 30 31 31 32 33 34 34 35 35 36 36 36 37
29 29 29 29 29 29 29 29 28 27 26 25 25 25 25 26 27 27 27 27 28 28 27 28 28 29 29 30 31 31 32 33 33 34 34 35 36 36 37 37 37 37 38 38
31 30 31 31 31 31 31 30 30 30 28 28 28 28 28 28 28 29 29 29 29 29 29 30 30 30 31 31 32 33 33 34 35 35 36 36 37 37 38 39 39 39 40 41
35 34 33 32 31 32 32 32 32 32 31 31 31 31 31 31 30 30 30 30 30 31 31 32 32 32 33 33 34 34 34 35 36 36 37 38 39 40 40 40 41 42 43 43
37 37 35 34 33 33 33 33 33 33 33 33 33 33 32 32 33 33 33 33 33 33 33 33 33 33 33 34 34 35 36 37 37 38 39 40 41 41 42 42 43 43 43 44
39 39 38 37 35 35 34 34 34 34 34 34 34 34 34 34 34 35 35 35 35 34 34 34 34 34 34 35 35 36 37 38 39 40 40 41 42 43 43 43 43 43 44 44
42 41 41 39 37 37 36 35 34 34 34 34 34 34 35 35 35 35 35 35 35 35 34 34 34 34 35 36 37 38 38 39 40 40 41 42 43 43 43 43 43 43 44 45
43 42 41 40 39 38 37 36 35 35 34 34 34 34 34 34 35 35 35 35 35 35 35 35 35 35 36 37 38 39 39 40 40 40 41 42 43 43 43 43 43 43 44 45
43 42 41 40 39 38 37 37 36 35 34 34 34 34 35 35 35 35 35 36 36 35 35 35 36 36 37 38 39 39 40 40 40 41 42 43 43 42 42 42 43 43 43 43
41 41 41 40 39 39 38 37 36 36 36 36 36 35 36 36 35 35 36 36 36 35 36 36 36 36 37 37 38 38 39 40 40 41 42 42 41 41 42 42 42 42 41 41
38 38 39 38 38 38 37 37 36 36 35 35 35 35 35 35 35 35 35 35 35 35 35 35 35 36 36 37 38 39 39 40 40 41 41 40 40 41 41 41 41 41 40 39
36 37 37 36 36 35 35 35 35 35 35 34 34 35 35 35 35 35 35 35 35 35 35 35 35 36 36 37 38 38 39 40 40 40 40 40 40 40 40 40 39 38 37 36
34 34 34 34 33 33 33 34 33 34 34 34 34 34 34 34 34 34 34 34 34 35 35 36 36 37 37 38 38 39 39 40 40 40 40 40 39 39 39 39 37 36 35 34
32 32 32 32 32 32 33 33 33 33 33 33 34 34 34 34 34 34 33 33 34 35 36 36 36 37 37 38 38 39 39 40 40 40 40 39 38 38 37 36 35 34 33 33
34 33 33 33 33 32 32 33 34 34 34 34 34 34 34 34 34 34 34 34 34 35 35 35 36 36 36 37 38 38 39 39 39 39 38 37 36 36 35 34 33 33 33 32
35 34 35 34 34 34 34 34 35 35 35 35 35 35 34 34 34 34 34 34 34 34 34 34 35 35 35 36 37 38 38 38 38 37 36 34 34 33 33 33 33 32 32 32
36 36 35 35 35 35 35 35 35 35 36 36 36 35 35 34 34 34 33 34 34 34 34 34 34 35 35 36 37 37 37 36 35 34 33 33 32 32 32 32 32 32 31 31
38 37 36 36 36 35 35 34 34 34 35 35 35 35 35 34 34 34 34 34 34 34 34 34 34 34 35 36 36 35 35 34 33 32 32 31 31 31 31 31 31 31 30 29

GEFSNGP_500_meanwind_132.txt.gz
Wind_Speed
8 8 8 8 9 10 10 11 11 10 11 13 15 15 15 16 16 17 17 18 18 19 19 19 20 20 20 21 21 21 21 22 22 23 24 25 26 26 27 26 26 27 27 28
10 10 10 10 10 11 11 11 12 12 12 14 14 15 15 16 16 17 18 19 19 20 20 19 19 20 20 20 21 22 22 22 23 24 25 25 26 26 26 27 27 28 29 29
10 11 11 10 11 11 12 12 13 13 13 14 14 14 15 15 16 17 19 19 19 20 20 20 20 20 20 21 22 22 22 23 24 24 25 26 26 27 27 27 28 29 30 31
12 12 12 12 12 13 13 14 14 14 15 15 15 15 16 16 17 18 18 18 19 19 20 20 20 21 21 21 22 22 22 23 23 24 24 25 26 27 28 29 30 31 32 32
16 15 14 15 15 15 16 16 16 16 16 16 17 17 17 18 18 18 18 18 19 19 19 20 21 22 22 22 23 23 24 24 24 25 26 26 27 28 29 30 31 32 32 33
20 20 19 18 18 18 19 19 19 19 18 18 19 19 20 20 20 20 20 20 21 21 21 22 22 23 23 24 25 25 26 27 27 27 28 28 28 29 30 31 32 33 34 35
23 23 22 22 22 22 22 22 22 22 21 22 22 22 22 23 23 23 23 23 23 24 25 25 25 25 26 26 27 28 28 29 29 29 29 30 30 31 32 33 33 34 35 36
27 26 26 26 26 25 25 25 25 25 25 25 25 26 26 26 26 26 26 26 27 27 27 28 28 28 29 29 30 30 31 31 31 32 32 32 33 33 34 34 35 35 36 37
30 29 30 30 29 29 30 29 29 29 28 28 28 28 28 29 29 29 29 29 30 30 30 30 31 31 31 32 33 33 33 33 34 34 34 34 35 35 35 35 36 37 38 39
34 32 33 33 33 33 33 33 33 33 33 33 32 31 31 31 31 32 32 32 33 32 32 33 33 33 33 34 35 35 35 35 36 36 36 36 36 36 37 37 38 38 39 39
38 37 37 36 36 37 37 36 36 36 36 35 34 34 33 33 34 34 35 35 35 34 34 35 35 35 36 36 36 36 36 36 37 37 37 37 37 38 38 39 39 40 40 41
41 40 41 39 40 40 40 40 39 39 38 38 37 37 36 36 37 37 37 37 37 36 37 37 37 37 37 37 37 36 37 37 37 37 37 37 38 39 39 39 40 41 41 42
44 43 44 44 43 43 43 43 42 41 40 39 39 39 38 38 38 38 38 38 38 38 37 37 37 37 37 37 37 37 37 37 37 37 37 37 38 39 39 40 41 42 43 44
47 47 47 46 46 45 45 44 43 43 42 41 41 40 40 40 40 40 39 39 39 38 38 38 38 38 37 37 37 37 37 37 36 36 37 38 38 39 40 40 42 43 44 44
49 49 49 48 47 46 46 45 45 44 43 42 42 41 41 40 40 40 40 39 39 39 39 38 38 38 38 38 38 37 37 37 37 37 37 38 39 39 40 41 42 43 44 44
49 49 49 48 47 46 45 45 45 45 44 43 42 42 41 40 40 39 39 38 38 38 38 38 38 38 38 37 37 36 36 37 37 37 38 39 39 40 41 42 43 43 43 42
48 47 47 46 45 45 44 44 44 44 43 43 42 42 42 41 40 39 39 38 37 37 37 37 37 37 37 37 37 37 37 37 37 38 38 39 40 40 41 41 42 42 42 41
46 45 45 44 43 42 42 42 42 42 42 42 42 42 42 41 40 39 39 38 37 37 37 37 37 37 37 37 37 38 38 38 38 38 39 39 40 40 40 40 41 40 40 39
44 43 43 42 41 40 40 40 40 40 40 40 41 41 41 40 40 39 38 37 37 36 36 36 36 36 36 37 37 37 37 37 37 37 38 38 38 38 39 39 39 39 38 38
43 42 41 40 40 39 38 38 38 38 38 39 39 39 39 39 38 38 37 36 36 36 36 36 36 37 37 37 37 36 36 36 36 37 37 37 38 38 39 38 38 38 37 37
41 40 40 39 39 37 36 36 36 36 36 37 37 37 37 38 38 37 36 36 36 36 36 36 36 36 36 37 36 35 36 36 36 36 37 37 38 38 38 38 37 37 37 37
39 39 38 38 37 36 35 35 35 35 35 35 35 36 36 36 36 36 36 36 36 37 37 37 36 36 36 36 36 35 35 36 36 36 37 37 37 37 37 37 36 36 36 36
38 38 38 38 37 36 35 35 35 35 35 34 34 35 35 36 36 36 36 37 37 37 37 36 36 36 36 35 35 35 35 35 35 35 36 36 36 36 36 36 36 36 36 36
39 39 39 38 37 36 36 36 35 35 35 34 34 35 36 36 36 36 37 37 37 36 36 35 35 35 35 35 35 35 35 35 35 35 35 35 35 35 35 35 35 35 35 35
41 41 40 40 39 39 38 36 36 36 36 35 35 35 35 35 35 35 35 36 35 35 35 34 34 34 34 34 34 34 34 34 35 35 35 34 34 34 34 34 34 35 35 35
43 43 42 42 42 41 40 38 37 37 37 37 36 36 35 35 34 34 34 34 34 34 33 33 33 33 33 33 33 33 33 34 34 34 34 34 34 34 33 33 33 34 34 33
44 43 43 42 41 40 40 38 38 38 37 37 36 36 36 35 34 34 33 33 32 33 33 33 32 32 32 32 32 32 33 33 33 33 33 33 32 32 32 33 33 33 33 32

GEFSNGP_500_meanwind_138.txt.gz
Wind_Speed
10 10 10 10 10 10 10 10 10 10 12 14 16 16 16 17 18 18 19 20 20 20 21 21 22 23 24 24 25 25 26 27 27 27 28 28 29 30 31 32 33 33 34 35
12 12 12 12 12 12 12 12 12 12 12 14 15 15 16 17 18 18 19 20 21 22 22 23 23 24 24 25 26 26 27 27 27 27 27 28 29 29 30 31 33 34 35 35
14 14 14 13 13 14 14 14 14 13 14 14 15 16 16 17 18 19 20 21 22 23 24 24 25 25 25 26 27 27 27 27 28 28 28 29 30 30 31 32 32 33 34 35
16 16 15 15 16 16 17 17 17 16 17 16 17 17 18 18 19 20 21 22 23 23 24 24 25 26 27 27 28 28 28 28 29 29 30 30 30 31 32 33 34 34 35 35
19 19 18 18 18 18 19 19 19 18 18 19 19 19 19 20 21 21 22 23 24 24 25 25 26 26 27 27 28 29 29 30 30 31 31 31 31 32 33 34 35 35 36 36
23 23 23 22 21 21 22 22 21 21 21 22 22 22 22 23 23 23 24 24 25 25 25 26 26 27 27 28 28 29 30 31 31 32 32 33 33 34 35 35 35 36 36 36
27 27 27 26 25 25 25 25 25 25 25 25 25 25 25 26 26 27 27 27 28 28 28 28 29 29 30 30 31 31 31 31 32 32 33 34 34 35 36 36 36 36 37 37
31 31 31 30 29 28 28 28 28 29 29 29 29 29 29 29 29 30 30 31 31 31 31 31 32 32 32 32 33 33 33 33 33 34 34 35 36 37 37 37 37 37 38 38
34 33 34 34 33 32 32 32 32 33 33 33 33 32 32 33 33 33 33 33 33 33 34 34 34 34 34 34 35 35 35 35 35 35 36 36 37 37 38 37 38 38 39 38
36 36 36 36 36 36 36 36 36 36 36 36 36 36 35 35 35 36 36 36 36 36 36 36 36 36 37 37 37 37 37 37 37 37 38 38 38 38 38 38 38 38 38 38
38 37 37 36 37 38 38 38 39 38 38 38 38 38 38 38 38 38 38 39 39 39 39 38 38 38 38 38 38 38 38 38 38 39 39 38 38 38 39 39 39 38 38 38
39 38 39 38 39 40 40 40 41 41 41 41 41 41 41 40 40 40 40 40 40 40 40 40 39 39 39 39 38 38 38 38 38 38 38 38 38 38 38 38 38 37 38 38
41 41 42 42 42 42 43 42 42 43 43 42 43 43 42 42 41 41 41 41 41 41 41 40 40 39 39 39 38 38 38 38 38 37 37 37 37 37 37 37 37 37 38 39
43 44 43 44 44 44 45 45 44 44 44 44 44 43 42 42 41 41 41 41 41 40 40 40 40 39 38 38 38 38 38 38 38 37 37 36 36 37 37 37 37 38 39 39
45 45 45 45 45 45 46 46 45 45 44 44 43 42 41 41 41 41 41 40 40 40 40 39 39 39 39 38 38 37 37 37 37 37 36 36 36 37 37 37 38 38 39 39
46 46 46 46 46 45 45 45 45 44 44 43 42 41 41 41 41 41 40 40 39 39 39 39 38 38 38 37 37 36 36 36 35 35 35 35 36 37 37 37 37 37 38 38
46 45 45 45 45 44 44 44 43 42 41 40 40 40 40 40 40 39 39 38 38 38 38 38 38 38 37 36 36 35 34 34 34 34 35 35 36 36 36 36 36 37 37 37
45 45 44 43 43 43 43 42 41 40 39 38 38 38 38 38 38 38 37 36 36 36 36 37 37 36 36 36 35 34 34 33 34 34 34 35 35 35 36 36 36 36 36 36
44 43 43 42 42 42 41 40 40 39 38 38 37 37 37 37 37 37 36 35 35 35 35 34 34 35 35 35 34 34 33 33 34 33 34 34 34 34 34 34 34 34 35 35
43 42 41 41 41 40 39 39 39 38 37 37 36 36 36 36 36 35 35 34 34 34 33 33 33 33 33 33 33 33 33 33 33 33 33 33 33 33 33 33 33 33 34 34
42 41 40 40 39 39 39 39 38 37 37 37 37 36 36 35 35 34 34 33 33 33 33 32 33 33 32 32 32 32 32 32 32 32 32 31 32 32 32 32 32 32 32 32
42 42 41 40 39 39 39 39 38 38 37 37 38 38 37 36 35 34 34 33 33 33 33 33 33 32 32 32 31 32 32 31 31 31 30 30 31 31 31 31 31 32 32 32
43 42 42 41 41 40 40 40 40 39 38 37 37 37 36 36 35 34 33 32 32 32 32 32 32 31 31 31 31 31 31 31 31 30 30 30 29 29 30 30 31 31 31 31
44 43 43 42 43 42 41 40 40 39 38 36 36 36 35 35 34 33 32 32 31 31 30 30 30 30 30 30 30 30 30 30 30 29 29 29 29 29 30 30 30 29 30 30
45 44 44 44 43 43 42 41 40 39 38 36 35 34 34 34 33 33 33 32 31 30 29 29 30 30 30 30 30 29 29 29 29 29 28 29 29 29 29 29 28 28 29 29
46 46 46 45 44 43 43 41 40 38 38 36 35 34 34 34 33 33 32 31 31 30 29 29 29 29 29 29 29 29 28 28 28 28 28 28 28 28 28 28 28 28 28 28
47 47 46 46 45 44 44 42 41 39 38 37 35 35 34 34 33 32 31 31 30 30 29 29 29 28 28 27 27 27 27 26 26 26 26 26 26 27 27 28 28 28 28 28

GEFSNGP_500_meanwind_144.txt.gz
Wind_Speed
14 14 14 14 15 15 16 16 16 15 16 17 19 19 19 19 20 21 22 23 25 26 27 28 28 29 30 31 32 32 33 34 34 35 36 36 37 37 37 38 38 38 38 38
16 17 16 16 16 17 17 17 17 18 18 20 20 20 20 20 20 22 23 24 25 26 27 28 29 29 30 31 32 32 33 33 34 34 35 35 36 36 37 37 38 38 38 39
18 19 19 18 18 19 19 19 18 18 19 20 20 21 22 22 22 23 24 24 25 26 28 29 30 30 31 32 32 33 33 33 34 35 35 35 36 36 37 38 38 38 39 40
21 21 21 20 20 20 20 20 20 20 20 21 21 22 23 24 24 25 25 26 27 28 29 30 30 31 31 32 33 33 34 35 36 36 36 36 37 38 38 38 38 39 40 40
24 24 24 23 22 22 23 22 23 23 23 24 24 25 25 26 27 27 28 29 29 29 30 31 31 32 32 32 33 34 34 35 36 36 37 37 37 38 38 38 39 40 40 41
28 28 27 25 25 25 26 26 25 25 26 26 27 27 27 28 29 29 30 30 31 31 32 33 34 34 34 34 34 35 35 36 37 37 37 37 37 38 38 38 39 40 41 41
30 31 30 29 28 28 29 29 29 28 29 29 29 30 30 31 31 32 32 33 33 34 34 35 35 36 36 37 37 37 37 37 37 37 38 38 38 38 39 39 39 40 41 41
33 33 32 31 31 31 31 32 32 33 33 33 33 33 33 34 34 35 36 36 37 37 37 38 38 38 38 38 38 38 38 38 38 38 39 39 39 39 39 40 40 40 41 41
36 34 34 34 34 34 34 35 35 36 36 36 36 36 37 37 38 39 39 40 40 41 40 40 40 41 40 40 40 40 39 38 38 39 39 39 40 40 40 41 41 41 41 41
38 36 36 36 37 37 37 37 37 37 38 38 38 39 40 40 40 41 42 42 42 43 43 42 42 42 42 42 42 41 41 40 40 40 40 40 40 40 41 41 41 41 41 41
40 38 38 38 38 39 39 39 39 39 40 41 41 41 42 42 43 43 43 43 43 43 43 43 43 43 42 42 42 42 41 41 40 40 40 41 41 41 41 41 41 41 41 41
41 40 41 40 40 40 41 41 41 41 41 42 43 44 44 44 45 45 45 45 44 44 43 43 43 42 42 42 42 41 41 41 41 41 41 41 41 41 41 41 40 40 39 39
43 43 43 43 43 43 43 43 43 43 44 44 45 45 46 46 47 47 47 46 45 44 44 43 42 42 42 41 41 41 41 41 41 41 41 41 41 40 40 40 40 39 39 38
43 44 44 44 44 44 45 45 45 45 45 45 46 46 47 47 47 46 46 45 44 44 43 43 42 42 42 41 41 41 41 41 40 40 41 41 40 40 39 39 39 39 38 38
44 44 44 44 45 45 45 45 45 45 45 46 46 46 47 46 46 46 45 44 44 43 43 42 42 41 41 41 41 41 40 40 39 39 39 39 39 39 39 39 39 39 38 38
45 45 45 45 45 45 45 45 46 46 46 47 47 46 46 46 45 44 44 44 43 42 42 42 41 41 41 40 40 40 39 39 39 38 38 38 38 38 38 38 37 37 37 37
46 46 46 45 44 44 45 46 47 47 47 47 47 46 46 45 44 43 43 42 42 41 41 41 41 40 40 40 39 39 39 38 38 37 37 36 36 36 36 35 35 35 36 36
46 46 46 45 44 44 45 45 45 45 45 45 45 45 44 44 43 42 41 41 40 40 40 40 39 39 39 39 39 38 37 37 36 36 36 35 34 34 34 34 34 34 35 35
45 45 45 45 45 45 45 44 44 43 43 43 43 43 42 42 42 41 40 39 39 39 39 39 39 39 38 38 38 37 36 35 35 34 34 33 33 33 33 33 33 33 33 33
45 45 44 44 44 44 44 43 43 43 42 42 42 42 41 41 41 40 39 39 39 39 39 38 38 38 37 37 36 35 35 34 33 32 32 32 32 32 33 32 32 32 32 32
44 44 44 44 44 44 44 44 44 43 42 42 42 41 41 40 40 39 39 39 38 38 38 37 37 37 36 36 35 34 34 33 33 32 32 32 32 32 32 32 31 31 31 30
46 45 45 45 45 45 45 45 45 44 43 43 42 42 41 40 40 39 39 39 38 38 37 36 36 36 35 35 34 33 33 33 32 32 32 32 32 32 31 31 30 29 29 29
47 47 46 46 46 46 46 46 46 46 45 44 43 43 42 42 41 41 40 39 38 37 37 37 36 36 35 34 33 33 32 32 31 31 31 31 31 31 30 29 29 29 29 29
48 48 47 47 47 47 46 46 46 45 45 44 44 44 43 43 42 41 41 40 39 38 38 37 36 34 34 33 33 32 31 30 30 30 30 30 30 29 29 28 28 28 28 28
48 48 47 47 47 46 47 46 46 46 46 45 45 44 44 44 43 41 40 39 39 38 37 36 35 34 33 32 32 31 30 29 29 29 29 28 28 27 27 27 27 27 27 27
48 48 47 47 47 47 48 48 47 47 47 46 45 45 44 43 42 41 39 38 37 37 36 35 33 32 32 31 31 30 29 29 28 28 27 26 26 26 26 26 26 26 26 26
47 46 46 46 47 47 47 47 46 45 45 45 44 43 42 41 40 39 37 36 35 34 34 33 32 32 31 30 29 29 28 27 26 26 25 25 24 25 25 25 25 25 25 25

GEFSNGP_500_meanwind_150.txt.gz
Wind_Speed
13 13 13 13 13 14 14 15 15 16 17 18 19 19 20 21 22 23 24 25 25 26 27 28 29 30 31 32 33 34 36 36 37 37 38 39 40 41 42 43 43 43 44 44
16 16 15 15 15 16 17 17 17 17 18 19 20 20 21 21 23 24 25 26 26 26 27 28 29 30 31 32 33 34 35 37 37 37 38 39 40 41 42 43 44 44 45 46
19 19 19 18 18 19 19 19 20 19 20 21 21 22 23 23 24 24 25 26 27 28 29 30 30 31 32 33 34 34 35 36 37 38 39 40 40 41 42 43 44 45 45 46
23 22 23 22 21 22 22 21 22 22 22 23 24 24 25 26 26 27 27 28 29 30 30 31 31 32 33 34 34 35 36 38 39 39 40 41 41 42 43 43 43 44 44 45
25 25 25 24 24 24 24 24 24 25 25 25 25 26 26 26 27 27 28 29 30 31 32 32 33 34 34 36 37 37 38 38 39 40 41 42 43 43 43 43 43 43 44 44
29 29 29 27 27 27 28 27 27 27 27 27 27 27 27 28 29 30 31 32 32 33 34 34 35 36 36 37 38 39 39 40 41 42 43 43 43 43 43 44 43 44 44 44
32 33 32 31 30 30 30 30 30 29 29 29 29 30 30 30 31 32 33 34 34 35 35 36 37 38 38 39 40 41 41 42 43 44 44 44 44 44 43 43 43 44 44 44
35 35 34 33 33 32 32 32 32 32 32 32 32 32 33 33 34 34 35 36 37 37 37 38 39 40 40 41 42 43 44 44 44 45 45 44 44 44 44 43 43 43 43 44
37 37 36 36 35 35 35 35 34 34 34 34 34 35 35 35 35 36 37 38 39 39 40 41 41 42 42 43 44 45 45 45 45 44 44 44 44 44 44 44 43 43 43 43
39 38 38 37 37 37 37 37 37 37 37 37 37 37 38 38 38 38 39 40 41 41 42 42 43 43 44 45 45 45 45 45 45 44 44 43 43 43 43 43 43 43 43 43
41 40 40 39 38 38 39 39 39 39 39 39 39 39 39 39 40 40 41 42 42 43 43 43 44 44 45 45 45 44 44 44 44 44 44 43 43 43 43 43 43 43 43 43
42 42 43 41 40 40 40 40 40 40 40 41 41 41 41 41 41 41 42 42 43 43 43 44 44 44 45 45 44 44 43 43 44 43 43 43 43 43 43 43 43 43 43 42
45 44 44 43 42 41 42 42 41 41 41 41 41 42 42 42 42 42 42 43 43 44 44 44 44 44 44 44 43 43 43 43 44 43 43 43 43 43 43 43 42 42 41 41
45 45 45 44 44 43 43 43 42 42 42 42 42 43 43 43 43 43 43 43 44 44 44 45 45 44 44 43 43 43 43 43 44 44 43 43 43 43 43 42 41 40 40 40
45 46 45 45 44 44 44 44 43 43 43 44 44 44 44 44 44 44 44 44 44 45 45 45 45 44 44 44 44 43 43 43 43 42 42 43 42 42 41 40 40 39 39 39
45 45 45 45 45 45 44 44 44 44 44 45 45 45 45 45 45 45 45 45 45 45 45 44 44 44 43 43 43 42 42 41 41 41 40 40 40 39 38 38 38 37 37 36
45 45 45 45 46 45 45 45 45 45 45 45 45 45 45 45 45 46 46 46 46 45 44 44 43 43 42 42 41 40 40 40 39 39 38 38 38 37 36 36 36 35 35 34
44 44 44 45 45 45 45 45 45 45 45 45 45 45 45 45 45 45 45 45 45 44 44 43 43 42 41 41 40 40 39 38 38 37 36 36 36 36 36 35 34 34 33 32
43 44 43 44 44 44 44 44 44 45 45 45 45 46 46 46 46 45 45 45 44 43 43 43 42 41 41 40 40 39 39 38 38 37 36 36 35 35 34 33 32 32 32 32
43 44 44 43 44 44 44 44 44 44 45 45 46 46 46 46 46 46 46 45 44 44 43 43 42 41 40 40 39 39 38 37 37 36 35 35 34 33 32 31 31 30 31 31
43 44 44 44 44 44 44 44 44 45 45 46 46 47 47 47 46 46 46 45 44 44 44 43 42 41 40 39 39 38 37 36 36 35 35 34 33 32 31 30 30 30 30 30
44 45 45 45 45 45 45 46 46 46 47 47 47 46 47 46 46 46 45 45 44 43 43 42 41 40 40 39 39 38 37 36 35 35 34 33 33 31 30 29 29 29 29 29
46 46 46 46 46 46 47 47 47 48 47 47 47 47 46 46 46 45 44 43 43 42 41 41 40 39 38 38 37 37 35 35 34 34 33 33 32 31 30 29 29 29 29 28
46 46 46 46 47 47 47 47 47 47 47 46 46 45 45 45 44 44 43 42 42 41 40 40 39 38 37 36 36 35 35 34 34 33 33 32 31 30 29 29 28 28 27 27
44 44 44 45 46 47 47 47 47 47 46 45 44 43 43 43 43 42 42 42 41 40 39 38 38 37 36 35 34 34 33 33 33 32 31 30 29 29 28 28 27 27 26 26
45 45 45 46 46 46 46 46 46 45 44 44 43 42 41 41 41 41 41 40 39 38 37 37 36 36 35 34 33 33 32 32 31 30 29 28 27 27 26 25 25 25 25 24
45 45 45 45 45 46 46 46 45 44 44 43 42 41 40 40 40 39 39 38 37 36 36 35 35 35 34 33 33 32 31 30 29 28 27 27 26 25 25 24 23 23 22 22

GEFSNGP_500_meanwind_156.txt.gz
Wind_Speed
17 17 17 17 17 17 18 19 19 18 19 20 22 21 21 22 23 24 26 27 27 28 29 29 30 31 32 33 33 34 35 36 36 37 38 39 41 41 42 43 44 45 46 46
19 19 20 19 19 19 19 20 20 20 20 22 23 23 23 24 25 26 27 27 28 28 29 30 32 33 33 34 35 35 36 37 38 39 40 41 42 42 43 43 44 45 46 47
22 22 23 21 21 22 23 23 23 23 23 25 25 25 26 27 27 28 29 30 30 31 31 32 33 33 34 35 37 37 38 39 40 40 41 41 42 43 43 44 44 45 46 46
26 25 26 24 23 24 25 25 26 26 27 28 28 28 28 29 30 31 31 32 33 33 33 34 35 35 36 37 38 38 39 40 40 41 41 42 42 43 44 44 45 45 46 47
29 29 29 27 27 27 28 28 28 29 29 30 30 31 31 32 32 33 34 34 35 35 35 35 36 37 38 38 39 39 40 41 42 42 42 43 43 43 44 44 45 46 46 46
33 34 33 31 31 31 32 32 31 32 32 32 33 34 34 35 36 36 36 37 37 37 37 38 38 39 39 40 40 41 42 42 43 43 43 44 44 45 45 45 46 46 46 47
36 37 36 35 35 35 35 35 35 35 35 35 36 36 37 37 37 38 38 39 39 39 40 40 40 40 41 41 42 42 42 43 43 44 44 45 45 46 47 47 47 47 47 47
39 39 38 37 38 38 38 38 37 37 37 37 37 37 38 38 38 38 39 40 40 40 41 41 42 42 43 43 43 44 44 44 44 45 45 46 46 47 47 48 48 47 47 47
41 40 40 40 41 40 40 39 39 38 38 39 38 38 39 39 39 39 40 40 41 41 42 43 43 44 44 44 45 45 45 45 45 45 46 47 47 48 48 48 48 47 47 47
43 42 42 42 42 42 42 41 40 40 40 40 40 40 41 41 40 40 41 41 42 43 43 44 44 45 45 46 46 45 45 45 46 46 47 48 48 48 48 48 48 48 47 47
46 45 45 44 44 44 43 43 43 43 43 43 43 42 42 42 42 42 42 42 42 43 43 44 45 45 46 46 46 46 46 46 46 47 48 48 48 48 48 48 48 48 48 47
47 46 46 45 44 45 45 45 44 44 44 44 44 43 43 43 43 43 43 43 43 44 44 44 45 46 46 46 46 46 46 46 47 47 48 48 48 48 48 48 48 48 47 47
48 47 47 46 46 46 46 46 46 45 45 45 45 45 44 45 45 45 44 45 45 45 45 46 46 47 48 48 48 48 47 47 47 48 48 48 48 48 47 47 47 47 47 46
48 48 48 48 48 47 47 47 47 47 46 46 46 46 46 46 46 46 46 46 47 47 47 47 47 48 49 49 49 48 48 48 48 48 49 48 48 48 47 47 46 45 45 45
48 49 49 48 47 46 47 47 47 47 47 47 47 47 47 47 47 47 47 48 48 48 48 49 49 49 49 49 49 49 49 49 48 48 48 47 47 46 46 45 45 44 44 43
48 48 48 48 47 47 46 46 46 46 46 46 46 47 47 47 47 48 48 48 48 49 49 50 50 49 49 49 49 49 49 48 48 47 47 46 45 45 45 44 43 43 42 41
47 47 48 48 47 47 47 46 46 47 46 46 46 46 47 47 47 48 48 49 49 49 50 50 50 50 50 50 49 49 48 48 47 46 46 45 45 44 44 43 42 41 39 39
47 47 47 46 46 46 46 46 46 46 46 45 45 46 46 46 46 47 47 48 48 49 49 50 50 49 49 49 49 48 48 47 46 45 45 44 44 43 42 41 40 38 37 36
45 45 45 45 45 45 45 45 45 45 45 45 45 46 46 46 46 46 47 47 48 48 48 49 49 49 49 49 49 48 47 46 45 45 44 43 43 42 41 39 38 36 36 36
43 43 43 43 44 44 44 44 45 45 45 45 46 46 46 46 47 47 47 48 48 49 48 48 48 48 48 47 47 47 46 45 44 43 43 42 41 40 39 37 36 35 35 34
42 43 43 43 43 44 44 44 44 45 45 45 46 46 47 47 47 48 48 48 47 48 48 47 47 47 46 46 45 45 44 43 42 41 40 39 39 38 37 36 35 34 33 33
41 41 42 42 43 43 43 44 44 45 45 46 46 47 47 47 47 47 47 46 46 46 46 46 46 45 45 43 43 42 41 40 40 39 38 37 37 36 35 34 33 32 31 31
41 41 41 41 42 43 43 43 44 45 45 45 45 46 46 46 46 46 45 44 44 44 44 44 43 42 42 41 40 39 39 38 38 37 36 35 34 33 32 31 31 30 30 30
41 42 42 42 42 43 43 43 44 44 44 44 44 45 45 46 45 45 44 43 43 43 42 41 41 40 39 38 37 36 36 35 35 35 34 33 32 31 30 30 30 29 29 29
43 43 43 43 43 43 43 43 43 43 43 43 43 42 43 43 43 42 42 41 41 41 39 38 38 37 36 35 35 34 34 34 33 33 32 31 30 30 29 29 28 28 28 27
45 44 44 44 43 43 43 43 43 43 42 42 41 41 41 41 41 41 40 40 40 39 38 37 36 35 34 34 34 33 33 32 31 31 30 29 29 29 28 28 27 26 26 25
45 45 45 45 44 44 43 43 43 42 41 41 40 40 40 40 40 40 40 39 38 37 36 35 34 34 33 33 33 32 31 30 29 29 28 28 27 27 26 26 25 25 24 23

GEFSNGP_500_meanwind_162.txt.gz
Wind_Speed
17 17 17 16 16 17 18 18 19 18 19 20 21 22 23 24 25 25 26 27 28 29 29 30 31 32 33 34 34 34 35 35 36 37 38 39 39 40 41 42 42 43 43 44
20 19 20 19 18 19 20 20 20 21 21 22 24 24 25 26 27 28 29 29 30 31 31 32 32 33 34 35 36 36 36 37 37 38 39 40 40 41 41 42 43 44 44 44
24 23 23 22 21 22 22 23 23 23 23 24 25 26 26 27 29 29 30 31 32 32 33 34 34 35 36 36 37 38 38 39 39 40 41 41 42 42 43 43 44 45 45 45
28 27 27 26 25 25 25 25 26 26 26 26 27 28 29 30 31 32 32 33 34 35 35 36 36 37 38 38 38 39 39 40 40 41 42 43 44 44 44 44 44 44 44 45
31 31 31 29 28 28 29 28 28 29 29 29 30 30 31 32 32 33 34 34 35 36 37 38 38 39 39 40 40 40 41 41 42 42 43 44 44 44 44 44 44 44 44 44
35 35 35 33 32 32 33 32 31 31 31 32 32 33 33 34 35 35 36 36 37 38 39 39 39 40 40 40 40 41 41 42 42 43 43 44 44 44 44 44 44 45 44 44
38 38 38 36 35 35 34 35 34 34 34 34 34 35 35 36 37 38 38 39 39 39 39 40 40 41 41 41 41 42 42 43 43 44 44 44 44 44 44 45 45 45 45 46
41 41 40 39 38 38 37 37 37 37 37 37 37 37 37 38 39 39 40 40 40 40 40 40 41 41 41 41 42 42 42 43 44 44 45 45 45 45 45 46 46 46 46 46
43 42 42 41 41 41 41 40 40 40 40 40 40 39 39 40 40 40 41 41 41 41 41 41 41 41 41 41 42 42 43 43 44 45 45 46 46 46 46 46 47 47 47 47
45 43 43 43 43 43 42 42 42 42 41 41 41 41 41 41 41 41 41 42 42 42 42 42 42 42 42 42 43 43 43 44 44 45 45 46 46 46 47 47 47 47 47 48
46 44 45 44 44 44 44 44 43 43 43 43 43 42 42 42 42 42 42 42 43 43 42 42 42 42 43 43 43 43 44 45 45 45 46 46 46 47 47 47 48 48 48 48
46 46 46 45 45 45 45 45 44 44 44 44 44 44 43 43 43 43 43 43 43 43 43 43 43 43 44 44 44 45 45 45 46 46 46 47 47 47 47 47 48 48 49 49
47 46 46 45 45 45 45 45 45 44 44 44 44 44 44 44 44 44 44 44 44 44 44 44 44 44 44 45 45 45 46 46 46 46 47 47 47 48 47 48 48 49 49 49
46 46 45 45 46 46 46 45 45 45 45 44 44 44 44 44 44 44 45 45 45 45 45 45 45 45 45 45 46 46 46 47 47 47 47 48 48 49 49 49 48 48 48 48
45 46 46 46 46 46 46 45 44 44 44 44 44 43 43 43 43 43 44 44 44 45 45 45 45 45 46 46 47 47 47 48 48 48 49 49 49 50 50 49 48 48 47 47
43 44 45 46 46 46 45 45 45 44 43 43 43 43 43 42 42 43 43 44 44 44 44 44 45 46 47 48 48 48 48 48 49 49 49 50 50 50 49 49 48 47 46 46
42 42 43 44 44 44 45 45 44 44 44 44 44 44 44 43 43 43 44 43 43 43 44 45 46 47 48 48 49 49 49 49 49 50 50 49 49 49 48 47 46 46 45 44
42 42 42 41 42 42 42 42 43 43 43 44 44 44 43 43 43 43 43 43 43 43 44 45 46 47 47 48 48 48 49 49 49 49 49 48 48 47 46 45 44 44 43 42
41 40 40 40 40 40 40 40 40 40 41 42 42 43 43 42 42 41 41 42 42 42 43 44 45 45 46 47 47 48 48 48 48 47 47 46 46 45 44 43 43 42 41 40
38 38 38 38 38 38 38 38 39 39 40 41 41 41 41 41 41 41 41 41 42 42 42 42 43 44 44 45 46 46 46 46 45 44 44 44 43 42 42 41 40 39 38 37
37 37 37 37 37 37 37 38 38 38 38 39 39 39 39 40 40 40 40 41 41 42 41 41 42 42 43 43 43 43 43 43 42 41 40 40 39 39 38 38 37 37 36 34
36 37 37 37 37 38 38 38 38 38 38 38 38 38 39 39 39 39 39 40 40 40 40 40 41 40 41 41 40 40 40 39 39 39 38 37 37 36 36 35 35 34 33 32
37 38 38 39 39 39 39 39 39 39 39 39 38 38 38 38 39 39 38 38 39 39 39 39 39 39 39 39 38 38 38 37 37 37 37 36 35 34 33 32 32 31 30 30
38 39 39 39 39 39 38 38 39 39 39 38 38 39 39 39 39 39 39 38 37 38 38 38 38 38 38 38 37 37 37 36 36 35 34 33 33 32 31 30 30 29 29 28
37 38 38 38 39 39 39 40 39 39 39 39 39 40 40 40 40 39 38 38 38 38 37 37 37 37 37 37 37 36 35 34 33 32 31 31 30 30 29 29 28 27 27 26
38 39 39 40 40 40 40 40 40 40 40 40 40 40 40 40 39 38 38 38 38 37 36 35 35 35 36 35 34 33 32 32 31 30 29 28 27 27 27 26 25 25 25 24
40 40 40 40 40 41 41 40 40 39 40 40 39 39 39 38 38 38 38 37 36 36 35 34 34 34 33 33 31 30 30 29 28 27 27 26 26 25 25 24 23 23 23 22

GEFSNGP_500_meanwind_168.txt.gz
Wind_Speed
21 21 21 20 20 20 21 21 22 21 21 21 22 23 23 24 25 26 27 28 29 30 32 33 34 35 36 37 38 38 39 39 39 39 40 40 40 41 41 42 42 43 43 43
23 23 23 22 22 22 23 23 24 24 23 24 24 25 26 27 28 28 29 30 31 33 34 35 36 37 38 39 39 39 40 40 40 41 41 41 42 42 42 43 43 43 44 44
26 26 26 24 24 25 25 25 26 27 27 28 28 28 28 29 30 30 31 33 34 35 36 37 38 39 39 40 40 41 41 41 41 42 42 42 43 43 44 44 44 44 45 45
31 30 30 29 29 29 30 29 30 30 30 31 31 31 32 32 32 33 34 35 36 37 38 39 39 39 40 41 41 41 42 42 42 42 42 43 43 44 44 44 45 45 45 45
35 35 34 32 32 32 33 33 33 33 33 33 34 34 34 34 35 35 36 37 37 38 39 39 40 41 42 42 42 42 42 43 43 43 43 43 43 44 44 45 45 46 46 46
39 39 38 37 36 36 37 37 37 37 37 36 36 36 37 37 37 37 38 38 39 40 41 41 42 43 43 43 44 44 44 44 44 44 44 44 44 44 45 45 45 46 46 46
41 42 42 40 40 40 41 40 40 40 40 40 39 39 39 38 39 39 40 41 41 42 42 43 43 44 44 45 45 45 45 45 45 45 45 45 45 45 46 46 46 47 47 47
44 45 44 43 43 43 43 43 43 42 42 42 41 41 41 41 41 41 41 42 43 43 43 44 45 46 46 46 46 45 45 45 45 45 46 46 46 46 46 47 47 47 48 48
47 46 46 45 45 45 45 45 44 43 43 43 43 43 43 43 43 44 44 44 45 45 45 45 46 47 47 46 47 46 46 46 46 46 46 46 46 47 47 48 48 48 47 48
48 47 47 46 46 47 47 46 46 45 45 45 45 44 44 45 45 45 46 46 46 46 47 47 47 47 47 47 47 47 47 47 47 47 47 47 47 47 47 47 47 47 48 48
49 48 48 48 48 48 48 47 47 47 46 46 45 45 45 45 46 46 46 47 47 48 48 48 48 48 48 48 48 48 48 47 47 47 47 47 46 46 47 47 47 47 48 48
49 48 50 49 49 49 49 48 48 47 47 47 46 46 46 46 46 46 46 47 47 48 48 49 48 48 47 48 48 48 47 47 47 47 46 46 46 46 46 47 47 47 48 48
49 49 50 50 50 50 49 48 48 48 48 47 47 47 47 46 46 46 47 47 48 48 49 48 48 47 47 47 47 47 47 47 47 47 46 46 46 46 46 46 47 47 47 48
49 50 50 50 50 50 49 49 48 48 48 48 48 48 48 47 47 47 47 48 48 48 48 47 47 46 46 46 46 46 46 46 46 46 46 46 46 46 46 46 46 46 47 48
49 50 50 49 49 49 48 48 47 47 47 47 48 48 47 47 47 47 47 47 47 47 47 47 46 46 46 46 46 46 46 46 46 46 46 47 47 46 46 46 47 47 47 48
49 49 48 48 47 47 46 46 46 46 46 46 46 45 45 45 45 45 45 46 46 46 46 46 46 46 46 46 46 45 45 45 45 45 46 46 46 46 46 47 47 47 48 48
47 47 47 46 45 45 45 45 45 44 44 44 44 43 44 44 44 44 44 45 45 45 46 46 46 45 45 45 45 44 44 44 44 45 45 45 46 46 47 47 47 47 47 46
45 45 45 44 44 44 44 43 43 43 43 43 42 42 42 42 42 43 43 43 43 43 43 44 44 44 43 43 43 43 43 43 44 44 45 45 45 45 46 46 46 46 45 45
43 44 44 43 43 43 42 42 42 41 41 41 40 40 40 41 41 42 42 43 43 42 42 42 42 41 41 41 41 42 42 42 42 43 44 44 44 44 45 45 45 45 45 44
41 41 41 41 41 41 40 40 40 40 40 40 40 39 40 40 41 41 41 41 41 41 41 41 40 39 40 40 40 40 40 40 41 42 42 43 43 43 43 44 44 43 43 42
37 38 38 39 39 40 40 40 40 40 40 40 40 40 40 40 40 41 40 40 39 40 40 40 40 40 40 40 40 40 39 39 40 40 41 42 42 42 42 42 41 40 40 39
38 37 38 38 38 38 39 39 39 39 39 39 39 39 39 39 39 39 38 38 38 39 39 39 39 40 40 39 39 39 39 39 39 39 39 39 39 39 39 38 37 37 36 35
38 38 38 38 38 38 38 38 38 38 38 38 38 38 38 39 39 38 37 37 38 37 37 37 38 39 39 38 37 37 38 38 38 38 37 37 36 36 36 35 34 33 32 31
37 37 37 37 37 37 37 37 38 38 38 38 39 39 40 40 40 40 39 39 39 38 38 38 38 37 37 37 37 36 36 36 36 36 35 35 35 34 34 33 31 30 30 29
37 36 36 35 35 35 36 37 37 38 39 40 40 41 41 41 41 40 40 40 39 39 38 38 37 37 36 36 36 35 35 34 34 33 33 33 32 32 31 29 29 28 27 26
35 35 34 35 36 36 36 37 37 38 39 40 40 41 41 41 40 40 40 40 39 39 38 37 36 36 36 35 35 34 33 32 32 31 31 30 30 29 27 26 25 25 24 23
35 35 35 35 36 37 37 38 38 39 40 40 40 40 39 39 39 39 39 39 38 37 36 36 35 35 35 34 34 33 32 31 30 30 29 28 28 26 25 24 24 23 23 22

GEFSNGP_500_meanwind_174.txt.gz
Wind_Speed
21 20 20 20 19 19 19 19 19 17 17 18 19 19 19 19 20 20 21 22 24 25 26 27 28 29 30 32 33 35 36 38 39 41 41 42 43 43 43 43 44 44 45 45
23 23 22 22 21 21 21 21 21 21 20 21 22 22 22 23 23 24 24 25 26 28 29 30 31 32 33 34 36 38 39 40 42 43 43 44 44 44 44 44 45 45 45 46
27 26 26 25 23 23 24 24 25 25 24 24 25 25 25 25 26 27 28 29 29 30 31 32 33 34 35 36 38 39 40 42 43 44 44 44 44 45 45 45 45 46 46 46
31 30 30 28 27 27 27 28 28 28 28 28 28 29 29 29 30 30 31 32 33 33 34 34 35 36 36 37 39 40 42 42 43 44 44 44 45 45 46 46 46 47 47 47
34 34 32 30 31 31 32 31 31 32 32 32 32 32 32 33 33 33 34 35 35 36 37 37 37 38 39 40 41 42 43 43 44 45 45 45 45 45 46 46 47 47 47 47
37 37 36 34 34 35 35 35 34 35 35 35 36 36 35 36 36 36 37 37 38 39 39 39 40 40 41 42 43 44 44 45 45 46 46 46 46 46 47 47 47 47 47 48
38 39 38 36 36 37 37 37 37 38 38 39 39 39 38 38 38 38 39 40 40 40 41 41 42 42 43 44 44 45 46 46 46 46 46 47 47 48 48 48 48 48 48 49
39 40 40 39 40 40 40 41 40 40 41 41 41 41 41 40 40 41 41 42 42 42 42 43 43 44 44 45 46 47 47 47 47 47 48 48 48 49 49 50 50 50 49 49
42 42 42 43 43 44 44 44 44 43 44 44 44 43 43 43 42 43 43 43 44 44 44 45 46 46 46 47 47 47 47 47 48 48 48 49 49 49 50 50 51 50 50 50
44 44 44 45 46 47 47 47 46 46 45 45 45 45 45 45 44 44 45 45 45 45 46 46 47 47 48 48 48 47 47 48 48 49 49 48 48 49 49 50 50 50 50 50
48 47 48 48 49 49 49 49 49 48 47 47 47 46 46 46 45 45 45 46 46 47 46 46 47 47 48 48 48 48 48 48 48 48 48 48 48 48 49 49 49 49 49 50
49 49 50 50 50 51 51 51 50 50 49 48 48 47 46 46 46 45 45 46 46 47 47 47 47 47 48 48 48 48 48 48 48 48 48 48 48 48 48 48 48 48 48 48
50 50 51 51 51 51 51 51 50 50 49 49 48 48 47 47 47 47 47 47 47 48 48 47 47 47 47 47 47 48 47 47 46 46 47 47 47 47 47 47 47 47 47 47
50 51 51 51 51 51 51 50 50 50 49 49 48 48 47 47 46 46 47 47 47 47 47 47 47 47 46 46 47 47 47 47 47 46 46 46 46 46 46 45 45 45 45 46
49 50 50 49 49 49 49 49 49 49 48 47 47 47 47 46 45 46 46 46 45 46 46 46 46 46 46 46 46 46 46 46 46 46 45 45 45 44 44 44 44 44 44 45
48 48 48 48 48 47 47 47 47 47 46 45 45 45 45 45 45 45 44 44 44 44 44 44 44 44 45 44 44 44 44 44 44 44 44 43 43 43 43 43 43 43 44 44
46 46 46 46 45 45 45 45 45 44 44 43 43 43 43 43 43 42 42 43 43 43 43 42 42 42 42 43 43 42 42 41 42 42 41 41 41 41 41 41 42 42 42 43
44 44 44 43 43 42 42 42 42 42 42 42 41 41 41 41 41 41 41 41 41 41 41 41 41 41 40 40 40 39 39 40 40 39 39 39 39 39 40 40 41 41 41 41
42 41 40 40 40 39 39 39 39 40 40 40 40 40 40 40 40 40 40 40 40 40 40 40 40 39 39 39 39 38 38 38 38 38 38 38 38 39 39 39 39 39 39 40
38 38 38 38 38 38 38 38 38 38 39 39 39 39 38 38 38 38 39 39 39 39 39 38 38 38 38 38 37 38 38 37 37 37 37 37 37 37 37 38 38 38 39 39
36 36 36 36 37 37 37 37 38 38 37 37 37 37 37 37 37 37 38 38 37 38 38 37 37 37 37 37 37 36 36 36 36 36 36 36 36 36 37 37 37 37 37 37
35 35 36 36 36 36 36 36 36 36 35 35 35 35 36 36 37 37 37 37 37 37 37 37 36 36 36 36 36 36 36 36 35 35 35 35 35 35 35 35 35 35 34 34
33 33 34 35 35 35 34 34 34 33 33 34 34 35 35 36 36 36 35 36 36 36 36 36 36 36 36 36 36 35 35 35 35 34 34 34 34 34 34 33 32 32 32 31
30 31 33 33 34 34 33 33 33 34 34 34 34 35 35 35 35 35 35 35 36 36 36 35 36 36 36 36 35 35 35 34 34 33 33 33 33 33 32 31 31 31 30 29
30 30 31 32 32 33 33 33 34 34 34 34 34 34 34 34 34 34 35 35 35 35 36 36 36 36 36 35 35 34 34 33 33 32 32 32 31 30 30 29 29 28 27 27
31 32 32 33 32 33 33 33 33 33 33 34 34 34 35 35 35 35 35 35 35 35 35 35 35 35 34 34 33 32 32 32 32 31 30 30 29 28 27 27 26 26 25 25
32 33 33 33 33 34 34 34 34 33 33 34 34 34 35 35 35 35 35 35 35 35 35 34 34 33 32 31 31 30 30 30 29 29 28 28 27 26 26 25 24 24 24 24

GEFSNGP_500_meanwind_180.txt.gz
Wind_Speed
24 24 23 23 22 21 21 20 20 19 19 19 19 19 19 19 19 19 20 21 22 24 25 26 27 28 31 33 34 35 36 37 38 39 40 41 42 42 43 44 45 46 46 47
26 26 26 25 24 23 23 23 22 22 21 22 22 22 22 22 22 22 23 23 25 26 27 28 29 31 32 34 35 36 37 38 39 40 42 43 44 45 46 46 47 47 48 48
29 28 29 28 26 26 27 26 25 25 25 25 25 25 25 25 26 26 26 27 28 29 29 30 32 33 34 35 36 37 38 39 41 42 43 44 45 46 46 47 48 48 49 49
32 30 31 30 29 29 29 29 29 29 29 30 29 29 28 28 29 29 30 30 31 32 33 34 35 36 36 37 38 40 40 41 42 43 44 45 46 47 47 48 49 49 49 49
35 35 34 32 32 33 33 32 32 32 33 33 33 32 32 32 32 33 33 34 35 35 36 37 38 39 40 40 41 42 43 44 45 45 46 46 47 48 49 49 50 50 50 50
38 38 38 36 36 36 36 35 35 35 35 35 36 36 35 36 36 36 36 37 38 39 39 40 41 42 42 43 44 44 45 46 47 47 48 48 49 49 50 50 51 51 51 51
39 41 40 39 39 39 39 38 38 38 38 38 38 38 38 38 39 39 40 40 41 41 42 43 43 44 44 44 45 47 48 48 49 50 50 51 51 52 52 52 52 52 52 52
41 42 41 41 41 41 41 41 41 41 41 41 41 41 41 41 42 43 43 43 44 45 45 45 45 46 46 46 47 48 49 50 50 51 52 52 52 53 53 52 53 53 53 53
43 43 42 43 43 43 43 43 43 43 43 43 44 44 44 44 44 45 46 46 46 46 45 45 46 47 47 47 47 48 49 49 50 51 52 53 53 53 53 53 53 53 54 53
44 43 43 44 44 44 45 45 46 46 46 46 46 46 46 46 46 46 46 46 46 45 45 45 46 46 47 47 47 48 49 49 50 51 51 52 52 53 53 53 53 53 53 53
46 45 45 45 45 46 47 48 48 48 48 48 48 48 48 48 48 47 47 46 46 46 46 46 46 47 47 48 48 48 48 49 50 51 51 51 51 51 52 52 52 52 53 53
47 47 48 47 47 48 48 49 49 49 49 49 50 49 49 49 49 48 47 47 47 47 47 47 47 48 48 48 49 49 49 49 50 50 50 50 50 50 50 51 51 51 52 52
49 49 49 49 49 49 50 50 50 50 50 51 50 50 50 49 49 49 49 49 49 49 49 49 49 48 49 49 49 49 49 49 49 50 50 50 50 50 50 49 50 50 50 51
50 50 50 50 50 50 51 50 50 51 51 51 51 51 51 51 51 50 50 50 51 50 50 50 49 49 49 49 49 49 48 49 49 49 50 50 50 50 50 49 49 49 49 49
50 50 50 50 50 50 51 51 50 51 51 51 51 51 51 50 50 51 51 50 50 50 49 49 48 48 48 48 48 48 48 48 49 49 49 49 50 50 49 49 48 48 47 47
50 50 50 50 50 50 50 50 50 49 50 50 49 49 49 49 49 49 48 48 48 47 47 47 47 47 47 47 47 47 46 46 47 47 47 47 48 48 47 47 46 45 44 44
49 49 49 49 49 49 48 48 48 47 47 47 47 47 47 47 47 46 45 45 45 45 44 44 44 44 45 45 45 44 44 44 45 45 45 45 45 45 44 44 43 42 41 41
46 47 47 47 47 46 46 46 46 45 45 45 45 44 44 44 44 43 43 43 43 43 43 43 43 43 43 43 43 43 43 43 43 43 43 42 42 42 42 41 40 40 40 40
44 44 44 45 45 45 44 44 44 43 43 43 43 42 42 42 41 41 41 41 41 41 41 42 42 42 42 42 42 42 42 42 42 41 41 41 40 40 39 39 39 38 38 38
42 42 42 42 42 42 42 42 42 41 41 41 41 41 41 41 41 41 40 40 41 41 41 41 41 41 41 42 41 41 40 40 40 40 39 39 39 38 38 38 37 37 37 37
40 40 40 40 40 40 40 41 40 40 40 41 41 41 41 41 41 40 40 40 40 40 40 40 40 40 40 41 40 40 39 39 38 38 38 37 37 37 37 37 37 37 36 36
37 38 38 38 38 38 38 39 39 39 40 40 40 41 40 40 39 40 40 39 39 39 38 38 38 38 38 38 38 38 38 38 38 37 37 36 36 36 36 36 36 35 35 34
34 35 36 36 37 37 37 38 38 38 38 38 39 39 39 38 38 38 37 37 37 37 37 37 36 37 37 36 36 36 36 36 37 37 36 36 35 35 35 34 34 33 32 32
34 35 36 37 37 37 36 36 37 37 37 37 37 37 37 36 35 36 35 35 35 35 35 35 36 35 35 35 34 35 35 35 35 35 35 35 35 34 33 33 32 31 31 31
35 35 36 36 37 36 36 36 36 36 36 36 36 36 36 35 35 34 34 34 34 34 34 34 34 34 33 33 33 33 33 33 34 34 34 33 33 32 31 30 30 29 29 29
33 34 34 35 35 35 36 36 36 35 35 35 35 35 35 35 35 35 35 34 34 34 33 33 33 33 33 33 33 33 32 32 32 31 31 30 29 29 28 28 28 27 27 27
32 32 33 33 33 34 34 34 34 34 34 34 34 34 34 34 34 34 34 34 33 33 33 32 32 32 31 31 31 31 30 30 29 28 27 26 26 25 26 26 25 25 25 25

GEFSNGP_500_meanwind_186.txt.gz
Wind_Speed
28 27 26 25 24 23 23 23 22 20 20 19 20 20 19 18 17 16 17 17 18 19 21 22 23 25 27 28 29 30 32 33 34 37 37 39 40 41 43 43 43 44 44 45
29 28 28 28 27 26 25 24 23 23 22 21 23 23 22 21 20 20 19 19 20 21 23 24 25 26 28 29 31 32 32 34 35 36 38 40 41 42 43 43 44 45 46 46
32 30 30 30 28 27 27 26 25 25 24 25 26 26 25 24 23 23 23 24 24 24 25 26 26 28 29 31 32 32 33 35 36 37 39 41 42 42 43 44 45 46 46 47
34 33 33 31 30 29 29 28 28 27 26 27 28 28 27 27 27 27 27 27 28 28 29 29 29 30 31 33 34 35 36 37 37 39 40 41 42 43 44 45 47 47 48 49
35 35 35 32 31 30 30 30 30 30 30 30 30 30 30 30 30 30 30 30 30 30 31 31 32 33 33 34 35 37 38 39 39 41 42 43 44 45 46 47 48 49 50 51
37 37 36 34 32 32 32 32 31 32 32 32 32 33 32 32 33 33 33 33 33 33 34 34 34 35 36 36 37 38 39 40 41 42 44 45 46 47 48 49 49 50 51 51
38 38 36 35 34 33 34 33 32 33 33 34 34 34 34 34 35 35 35 35 36 36 36 36 37 37 38 38 39 40 41 41 42 44 45 46 47 48 48 49 50 50 51 51
39 40 38 36 35 35 35 35 35 35 35 35 35 35 35 36 37 37 38 38 38 38 38 38 38 39 39 40 40 41 42 43 43 44 45 46 47 47 48 49 50 50 50 51
40 40 38 38 37 36 36 36 36 37 37 37 37 37 37 38 38 38 39 39 39 39 39 39 40 40 41 41 41 41 42 42 43 44 45 46 47 48 48 48 49 50 50 50
41 40 39 39 38 37 37 38 38 38 38 38 38 38 38 38 38 38 39 39 39 40 40 40 40 40 41 41 41 42 42 43 44 44 45 46 47 47 47 47 48 48 49 49
42 41 41 41 40 39 39 39 39 39 39 39 39 39 39 39 39 40 40 40 40 41 41 41 41 41 42 42 42 42 43 43 44 44 45 46 46 46 46 46 47 48 48 49
41 41 42 42 41 41 41 41 41 41 41 41 41 41 41 41 41 41 41 41 41 42 42 43 43 42 42 43 43 43 43 43 44 44 45 45 45 46 47 47 47 47 48 49
42 42 42 42 42 42 42 42 42 42 42 42 42 42 42 42 42 42 42 43 43 43 43 43 44 44 44 44 44 44 44 44 44 44 44 44 46 47 47 47 47 47 48 48
42 42 42 42 42 42 42 43 43 43 43 43 43 43 43 43 43 43 43 43 44 44 44 44 44 45 45 45 45 45 45 45 45 45 45 45 46 46 46 46 46 46 46 47
42 41 41 41 41 42 42 43 43 43 44 44 44 44 44 44 43 43 44 44 44 45 45 45 45 46 46 46 46 46 46 46 46 46 46 46 46 46 46 46 45 46 46 46
41 41 41 42 42 42 42 43 43 44 44 44 44 44 44 44 44 44 44 45 45 45 46 46 46 46 45 45 45 45 45 45 45 45 45 45 45 45 45 44 45 45 45 45
41 41 41 41 41 42 43 43 43 44 44 44 44 44 44 44 45 45 45 46 46 46 46 46 46 45 45 45 44 44 44 44 44 44 44 44 44 44 44 43 43 43 43 43
41 41 41 41 41 41 42 42 42 42 42 42 43 43 44 44 45 45 45 45 45 46 46 46 45 44 44 44 44 43 43 43 43 43 43 42 42 42 42 42 42 42 42 42
39 39 39 40 40 40 40 40 40 40 41 41 42 42 41 42 42 43 44 44 44 44 43 44 44 44 43 43 43 42 42 42 42 42 42 42 42 41 41 41 41 40 40 40
36 36 36 37 37 38 38 39 39 39 40 40 40 40 40 40 41 41 42 42 42 42 42 42 42 42 42 41 41 41 41 41 40 40 40 40 40 39 39 39 39 39 39 38
34 35 35 36 37 38 38 39 39 39 39 39 39 39 39 40 40 40 41 40 40 41 41 41 41 40 40 40 39 39 39 39 38 38 38 38 38 38 38 37 37 37 37 37
33 34 35 36 37 37 38 38 39 39 39 39 39 39 38 38 38 39 39 39 39 39 39 39 38 38 38 38 37 37 37 37 37 37 37 37 36 36 35 34 34 34 34 34
31 32 32 33 34 35 36 37 37 38 38 39 39 39 39 38 38 38 38 38 38 37 37 37 36 36 36 36 36 36 35 35 35 34 34 34 34 33 33 32 32 31 31 31
31 31 31 32 33 34 35 36 36 37 38 38 38 38 38 37 37 38 38 37 37 37 36 35 34 34 34 34 34 33 33 32 32 32 32 32 31 31 30 30 30 29 29 29
30 30 31 32 33 33 34 34 35 36 36 35 35 36 36 36 35 35 35 35 35 35 34 33 33 32 32 32 31 31 31 31 30 30 29 29 28 28 27 27 26 26 26 26
30 30 31 31 32 32 33 33 33 33 33 33 33 34 34 34 33 33 33 34 34 33 32 32 31 31 30 30 30 30 30 29 28 27 27 27 26 26 25 24 24 23 23 24
29 29 30 30 30 31 31 31 30 30 30 31 31 32 32 32 32 31 31 31 30 29 29 29 29 29 29 29 29 28 27 27 26 25 25 24 24 23 22 22 22 22 22 22

GEFSNGP_500_meanwind_192.txt.gz
Wind_Speed
37 36 35 34 32 31 31 31 30 28 26 25 24 24 24 24 23 22 21 21 20 20 20 21 21 22 22 22 24 25 26 27 28 29 32 34 35 36 37 38 39 40 40 41
39 38 37 36 34 33 32 31 31 29 27 26 27 26 26 25 25 24 24 23 22 22 22 23 23 24 24 25 25 27 28 29 30 31 32 34 36 38 38 39 40 41 41 42
40 38 39 38 34 33 32 31 31 30 28 28 28 28 28 27 27 26 25 25 25 25 25 25 25 26 27 27 28 29 30 31 32 33 33 34 36 37 38 39 40 41 43 44
42 40 40 37 35 34 33 32 32 31 30 29 29 29 29 29 29 28 28 28 27 28 28 28 28 28 28 29 30 30 32 33 33 34 35 36 37 38 39 41 42 43 44 46
41 41 41 37 35 34 34 33 32 31 30 31 31 31 31 31 31 31 31 30 30 29 30 30 31 31 31 31 32 32 33 34 35 35 36 38 38 39 40 41 43 44 45 46
41 42 42 38 36 35 35 35 32 32 31 31 32 33 32 32 32 32 32 32 32 32 32 32 32 33 33 33 33 34 34 34 35 37 38 39 40 41 41 42 43 45 46 47
41 42 42 40 38 37 37 36 35 34 33 32 33 34 34 33 33 33 33 33 33 33 34 34 34 35 35 35 35 35 35 36 36 37 39 40 41 42 42 42 43 44 46 46
41 43 42 40 40 38 38 37 37 36 35 34 34 35 35 35 35 35 34 34 34 34 35 35 35 36 36 35 35 36 36 36 37 38 39 40 41 42 43 43 44 44 45 46
42 42 41 41 42 41 40 40 39 38 37 37 36 36 36 36 36 36 36 36 36 36 36 36 37 37 36 36 37 37 38 38 39 40 40 40 41 41 42 43 43 44 45 45
42 42 42 42 42 42 42 42 41 40 39 39 38 37 37 37 37 37 37 37 37 37 38 38 38 38 38 38 38 39 39 40 40 40 40 41 41 42 42 43 43 44 45 45
42 41 42 42 43 43 43 42 41 40 39 39 39 38 38 38 38 38 38 38 38 38 38 38 38 39 39 40 40 40 41 41 41 41 41 42 42 42 43 43 44 44 44 44
39 39 40 40 41 42 42 42 41 40 40 39 39 39 38 38 39 39 39 39 39 39 38 38 39 39 40 41 41 41 41 41 42 42 43 43 43 43 44 44 44 43 43 44
38 38 38 39 39 40 40 40 40 39 39 39 39 39 39 39 40 40 40 40 40 39 39 40 40 40 41 42 42 42 42 42 43 43 44 44 44 44 43 43 44 44 44 45
38 37 37 37 38 38 38 38 38 38 39 39 40 40 40 40 40 39 39 40 40 40 40 40 41 41 42 42 43 43 43 44 44 44 45 45 44 44 43 43 43 44 45 45
36 36 36 36 36 36 37 37 38 39 39 40 40 41 41 40 40 40 40 40 40 40 41 41 42 42 42 43 43 43 44 44 45 45 45 45 45 45 45 45 45 45 45 46
35 35 36 36 36 36 36 37 38 39 40 40 40 40 40 41 41 41 41 41 41 41 42 42 42 42 43 44 44 44 44 44 45 45 45 45 45 45 45 45 46 46 47 47
34 35 36 36 36 36 37 38 39 40 40 40 40 40 40 41 41 41 42 42 42 42 43 43 43 44 44 45 45 44 44 45 45 45 45 45 45 45 46 46 46 46 46 46
34 35 36 37 37 37 37 38 39 39 39 39 40 40 40 41 41 41 41 42 42 43 43 44 44 45 45 45 45 45 45 45 45 45 45 45 45 45 46 45 45 45 45 44
33 34 36 37 37 37 38 38 39 39 39 39 40 40 41 41 40 40 40 41 42 43 43 44 45 45 45 45 45 45 46 46 45 45 45 45 45 45 44 43 42 42 42 42
31 33 34 35 35 36 36 37 37 38 39 39 40 40 40 40 40 41 41 42 43 43 43 44 43 43 43 44 45 45 45 45 45 44 44 43 43 42 41 41 40 40 39 39
30 31 31 32 33 34 34 35 35 36 37 38 38 38 38 39 40 41 42 42 42 43 43 43 42 43 43 43 43 43 43 42 42 41 41 40 39 39 39 38 38 37 37 36
30 30 31 31 31 32 33 34 34 35 36 37 37 38 39 39 40 40 41 41 42 42 42 42 42 42 42 41 41 41 40 40 39 39 38 37 37 37 36 36 35 34 34 33
30 31 32 32 32 32 33 33 34 35 36 37 38 38 39 39 39 39 39 40 41 41 41 41 41 40 39 39 38 38 37 37 37 36 35 35 35 34 34 33 32 32 31 31
31 31 32 33 33 33 33 34 35 35 36 36 37 37 38 38 38 38 39 39 39 38 38 38 38 37 36 36 35 35 35 35 34 34 33 33 33 32 31 30 30 29 29 28
31 31 32 32 33 33 34 35 35 35 35 36 36 37 37 37 37 37 36 36 36 35 35 35 34 34 33 33 33 33 33 33 32 32 32 31 30 30 29 29 28 27 27 26
30 30 31 31 32 32 33 33 33 34 34 35 35 35 35 35 35 35 35 34 34 34 33 33 32 32 32 32 31 31 31 31 30 30 29 29 29 28 28 27 26 25 25 24
29 30 30 30 30 30 30 31 31 31 32 32 32 32 33 33 33 33 33 33 33 33 32 32 31 31 30 30 29 29 29 29 28 28 27 27 26 26 25 24 23 23 22 22

GEFSNGP_500_meanwind_198.txt.gz
Wind_Speed
36 35 35 35 33 33 34 34 34 32 30 27 27 27 27 26 26 25 24 24 23 22 22 21 22 22 21 21 22 22 22 22 23 23 24 25 27 29 31 33 34 35 36 37
37 36 37 37 35 35 35 35 35 34 31 29 29 29 28 27 27 26 26 26 25 24 24 23 23 23 23 22 23 23 23 24 25 25 25 26 28 29 32 33 35 36 36 36
38 37 38 37 34 35 36 35 35 34 31 30 30 29 29 29 28 28 27 27 26 26 26 25 25 25 25 25 25 25 25 25 25 25 25 26 28 30 32 34 35 36 36 37
40 39 40 35 33 35 35 33 33 33 31 30 30 30 30 29 28 28 28 28 28 27 27 27 27 27 27 27 28 28 28 28 28 28 28 28 29 30 31 32 33 34 35 37
41 41 40 34 33 33 33 32 31 32 31 30 31 31 30 29 29 28 28 28 28 28 28 28 28 28 29 28 29 29 30 30 30 30 29 29 29 29 30 32 34 36 36 37
40 41 41 35 34 33 33 32 30 31 31 31 31 32 31 30 30 30 30 30 30 30 29 29 29 29 29 29 30 30 31 31 31 31 31 31 31 31 32 33 35 37 38 39
38 40 40 37 36 35 35 33 31 32 32 32 31 32 32 32 32 32 32 31 31 31 31 30 30 30 30 30 30 31 32 33 33 32 33 33 33 33 34 35 36 37 39 40
37 39 38 36 36 36 35 33 33 33 34 33 33 33 33 33 33 33 33 33 33 32 32 32 32 32 32 32 32 32 33 33 34 34 35 35 35 35 36 37 38 39 39 40
38 38 37 36 36 36 36 34 34 34 35 35 35 35 34 34 33 34 34 34 34 34 33 33 33 33 33 33 33 33 34 34 35 35 36 37 37 37 37 37 38 39 40 40
37 37 36 37 36 36 35 35 36 36 36 36 36 36 35 35 35 35 35 35 35 34 34 35 34 34 33 33 34 34 34 34 35 36 37 37 38 38 38 38 38 38 39 40
36 35 36 36 36 36 36 37 37 37 37 36 36 36 36 36 36 35 35 35 35 35 35 35 35 35 35 35 35 35 35 35 36 36 37 37 38 38 38 38 39 40 41 41
33 32 35 34 34 34 34 35 36 36 36 36 36 36 36 36 35 35 35 35 35 36 35 35 35 35 35 35 35 35 36 37 37 37 38 38 38 38 38 39 40 41 42 42
32 32 32 32 32 32 33 34 35 35 35 36 35 35 35 35 35 35 35 35 35 35 35 35 35 35 36 36 36 36 37 37 38 38 39 39 39 39 39 40 41 41 41 41
32 31 31 30 31 31 32 32 32 33 33 33 34 34 34 34 34 34 35 35 35 35 35 35 36 36 36 36 37 37 37 37 38 38 39 39 39 40 40 40 40 40 40 40
30 30 30 30 30 30 31 31 31 31 32 32 32 32 33 33 33 34 34 34 34 35 35 35 36 36 36 37 37 37 37 38 38 38 39 39 39 39 40 40 40 40 40 40
28 29 29 29 28 29 29 30 31 32 32 32 32 32 33 33 33 33 34 34 34 35 35 35 36 36 37 37 37 37 38 38 38 38 38 39 39 39 39 40 40 40 40 40
27 28 28 28 28 29 29 29 30 30 30 30 31 32 32 32 32 33 34 34 35 35 35 36 36 36 37 37 38 38 38 39 39 39 39 39 40 40 39 39 39 39 40 41
26 25 25 26 27 27 28 28 29 29 29 29 29 30 30 31 31 32 33 34 34 35 35 36 36 37 37 37 38 39 39 39 40 40 40 40 40 40 40 40 40 40 40 40
25 24 24 25 26 27 27 28 28 28 28 29 29 29 30 31 32 33 33 34 35 35 36 37 37 37 37 38 39 39 39 39 40 40 40 40 40 40 40 41 41 41 41 41
25 25 25 25 26 26 27 28 29 29 30 30 30 31 32 33 34 35 35 36 36 36 37 37 38 38 38 39 39 39 39 39 40 40 40 40 41 41 41 42 41 41 41 41
24 25 25 26 26 28 28 29 30 31 31 31 32 33 34 34 35 36 36 36 37 37 37 37 38 38 39 39 39 39 39 39 39 39 40 41 41 41 41 41 41 40 40 39
24 25 25 26 26 28 29 30 31 31 32 32 32 33 33 34 35 36 36 36 36 37 37 37 38 38 38 38 38 38 38 38 39 39 40 40 40 40 40 40 39 38 38 37
24 24 24 26 27 28 28 29 30 31 32 32 33 33 34 34 35 36 36 36 36 37 37 38 38 38 38 38 37 37 37 37 37 38 38 38 38 38 37 37 36 35 34 34
23 24 25 26 27 28 28 29 30 31 32 32 33 33 34 34 35 35 35 35 36 36 37 37 37 37 36 36 35 35 35 35 35 35 35 35 35 35 34 34 33 32 32 32
23 24 25 26 26 27 28 29 30 30 31 31 31 32 32 32 32 32 32 33 34 34 35 35 35 35 34 34 34 34 34 33 33 33 32 32 32 32 31 31 30 29 29 28
24 25 25 25 26 26 27 27 28 28 29 30 30 30 30 30 30 30 31 31 32 32 32 33 33 32 32 32 32 32 32 32 31 31 30 30 30 29 28 28 27 27 26 25
24 24 25 25 25 26 27 27 27 27 28 28 28 29 30 30 30 30 31 31 31 31 31 31 30 30 30 30 30 29 29 29 29 29 29 28 27 26 26 25 24 23 23 23

GEFSNGP_500_meanwind_204.txt.gz
Wind_Speed
38 37 37 37 37 36 36 36 38 36 35 32 31 31 30 30 30 29 29 29 29 29 28 28 27 27 26 26 26 26 26 26 27 28 28 29 30 29 29 30 31 32 33 34
39 38 38 39 37 37 37 37 37 36 35 33 33 32 31 30 30 30 30 30 30 29 29 29 28 27 27 26 26 26 27 27 28 28 29 30 31 30 31 31 32 33 33 33
40 39 40 39 35 36 37 36 36 35 34 34 33 32 31 31 31 31 31 30 30 30 29 29 29 28 27 27 28 28 27 27 28 28 28 29 30 30 31 31 31 32 33 34
41 40 41 37 36 36 36 36 35 35 34 35 34 32 31 31 31 31 31 30 29 28 28 28 29 28 27 27 28 27 27 27 27 27 27 28 29 30 31 31 31 32 33 34
41 41 41 38 37 36 36 35 36 36 35 35 34 33 31 31 31 31 31 30 29 28 28 28 28 28 27 27 28 28 28 28 28 28 28 29 29 30 30 30 31 32 33 33
38 40 40 39 38 37 37 36 35 36 35 35 34 33 31 32 32 32 31 31 29 29 29 29 29 29 28 28 28 29 29 28 27 28 29 29 29 30 31 31 32 33 33 33
36 38 39 37 36 36 37 36 35 36 36 35 34 33 32 33 33 33 32 32 31 30 29 30 30 29 29 29 29 29 29 29 28 28 28 29 29 29 30 30 30 31 32 32
36 37 36 34 36 37 36 36 35 35 34 34 33 33 33 32 33 34 33 33 32 32 31 31 31 30 30 30 30 30 30 30 29 29 29 29 30 30 30 30 29 30 30 31
36 36 35 36 37 37 36 36 35 35 34 34 33 33 33 32 33 34 35 34 33 33 33 33 32 32 32 31 30 29 30 30 31 31 30 30 30 30 30 30 31 31 31 32
35 34 35 35 36 37 37 36 36 35 34 33 33 32 32 32 33 34 34 34 34 33 33 33 33 33 33 32 31 31 31 31 31 32 32 31 31 31 31 32 32 33 33 33
34 33 33 33 33 33 34 35 35 35 35 35 34 34 34 34 34 33 33 34 35 34 34 33 33 34 33 33 33 33 32 33 33 33 33 33 33 32 32 33 34 34 34 35
32 31 32 32 32 33 32 32 33 34 34 34 33 33 33 33 34 34 35 35 35 35 35 34 34 33 33 33 33 33 33 34 34 34 34 34 34 34 34 35 35 36 36 37
32 32 32 32 32 31 31 31 31 32 32 32 32 32 32 32 33 34 34 34 34 34 34 33 32 32 33 33 34 34 34 34 34 34 34 35 35 36 35 36 37 37 37 37
31 31 30 30 30 30 30 30 30 30 29 29 30 32 32 31 31 31 31 32 32 32 33 33 32 32 32 32 33 33 33 34 35 35 35 35 35 36 36 37 36 37 37 38
30 30 29 28 27 28 28 28 28 28 28 29 29 31 31 32 31 31 30 31 31 32 32 32 33 33 33 33 34 34 34 35 35 35 35 35 35 35 36 36 36 37 37 38
28 28 29 28 27 27 27 27 27 27 28 29 29 30 31 31 31 31 31 31 31 31 32 32 32 33 33 34 34 35 35 35 35 35 36 35 35 35 35 36 36 36 37 37
27 27 27 27 27 27 27 27 28 28 28 28 29 29 30 30 30 30 30 31 32 32 32 33 33 34 34 35 35 35 35 35 35 35 35 35 35 35 36 36 36 37 37 37
25 25 26 26 26 27 27 27 27 27 27 27 28 28 28 28 28 29 30 31 31 32 33 33 34 34 34 34 34 34 34 34 34 34 35 35 36 36 37 37 37 37 37 37
23 24 25 26 26 26 27 27 26 26 26 26 27 28 28 29 29 30 30 30 31 32 32 32 33 33 33 33 33 33 34 34 34 35 35 36 37 37 37 37 37 37 37 37
24 25 25 25 25 25 25 26 26 26 26 27 28 29 29 29 30 30 30 30 31 31 31 32 32 32 33 33 33 33 34 34 35 35 36 36 37 37 38 38 37 37 37 38
25 25 25 25 25 25 26 27 27 28 28 28 29 30 30 30 31 31 31 31 32 32 32 32 32 33 33 33 33 34 34 35 35 35 36 37 37 37 37 37 37 37 38 38
23 23 23 24 25 26 26 27 27 28 29 29 30 30 30 30 31 31 32 32 33 33 33 33 34 34 34 34 35 35 35 35 36 36 36 36 36 36 36 36 37 37 37 37
22 22 22 23 24 25 26 26 27 27 28 29 29 29 30 30 31 32 32 33 34 34 34 35 35 35 35 35 35 35 35 35 36 36 36 36 36 36 36 36 36 36 36 36
21 21 21 21 22 23 24 24 25 26 27 28 29 29 29 30 30 31 32 33 33 34 34 34 35 35 35 35 35 35 35 35 36 36 36 36 35 35 35 35 35 35 34 33
21 20 21 21 22 22 23 24 24 24 25 26 27 28 29 30 30 31 31 32 32 33 33 33 33 34 34 34 34 35 35 35 35 35 35 34 34 34 34 33 32 31 31 30
20 20 20 21 21 22 22 23 24 24 25 26 27 27 28 29 29 29 30 30 30 31 31 31 31 32 32 33 33 33 33 33 33 33 33 32 32 31 31 30 29 29 28 28
20 20 21 21 21 22 22 23 23 24 25 26 26 27 28 28 28 28 29 29 30 30 30 30 30 30 30 31 31 31 31 31 30 30 30 29 29 28 28 27 27 27 27 27

GEFSNGP_500_meanwind_210.txt.gz
Wind_Speed
36 36 37 37 36 37 38 38 39 37 36 33 32 33 33 33 32 30 30 31 31 31 31 31 31 31 32 31 31 31 30 30 30 30 30 30 31 32 34 34 33 33 34 34
37 36 37 38 37 37 37 37 38 38 36 33 33 33 33 33 32 31 30 31 31 31 30 31 31 32 32 32 31 31 31 30 30 30 30 30 31 31 31 31 33 33 33 34
36 37 38 38 37 37 37 36 37 37 36 35 34 33 33 33 33 32 31 32 31 31 31 31 31 31 32 32 31 31 31 31 30 30 29 29 29 30 30 30 31 32 32 32
34 34 36 36 36 36 37 37 38 37 35 35 34 33 33 32 32 32 32 32 32 32 32 31 31 31 31 31 30 30 31 30 30 29 29 29 28 29 30 30 30 31 30 30
34 35 36 34 34 34 35 36 37 38 37 35 34 34 33 32 32 32 32 32 32 32 32 32 31 31 30 30 30 29 29 29 29 29 29 29 29 28 28 29 30 29 29 30
33 34 34 33 32 33 35 36 35 36 37 36 35 34 33 33 32 32 31 32 32 32 31 31 30 30 30 30 29 29 29 28 28 28 28 28 29 29 28 28 28 29 29 29
32 33 33 32 32 31 33 33 33 35 35 35 36 35 34 33 33 32 31 31 31 31 30 30 30 30 30 30 29 28 28 28 28 27 27 27 27 28 28 28 29 29 29 29
31 31 31 31 31 31 32 32 32 33 34 34 34 35 35 35 34 33 32 31 31 31 30 30 31 31 31 31 30 29 28 28 28 27 26 27 27 27 27 27 28 29 29 29
31 31 30 30 31 31 31 32 33 33 33 34 34 34 34 34 34 33 33 33 32 31 31 30 30 30 31 31 30 29 29 29 29 28 28 28 28 28 28 28 28 28 28 28
32 30 29 30 30 30 31 31 32 33 32 32 32 33 33 33 33 33 33 32 32 32 31 31 31 31 31 30 30 30 29 29 29 28 28 29 28 28 29 29 29 30 30 31
31 30 29 29 30 30 30 30 30 30 30 30 30 31 30 31 32 32 32 32 32 31 31 31 31 31 31 31 30 29 29 28 28 29 29 30 30 29 29 30 30 30 31 32
31 30 30 29 29 29 30 30 30 29 29 29 29 30 30 29 29 29 29 29 30 31 31 30 30 30 31 31 30 30 30 29 29 29 29 30 30 30 30 31 31 32 32 33
29 28 29 29 29 28 28 28 29 28 28 28 28 28 28 28 28 28 28 28 28 28 29 29 30 30 30 30 30 30 31 31 30 30 30 30 31 31 32 32 32 33 34 34
27 27 28 28 27 28 28 27 28 27 26 26 27 27 27 27 27 27 27 28 28 28 28 28 28 28 29 29 29 30 30 30 29 30 30 31 31 32 32 32 33 33 34 34
24 25 26 26 26 26 27 27 27 26 26 26 26 27 26 26 27 27 27 27 27 27 27 27 28 28 28 29 29 30 30 29 30 30 30 31 32 32 33 33 33 33 34 34
22 23 24 25 24 24 24 24 24 25 25 25 25 26 27 27 27 27 27 27 27 27 28 28 28 28 28 29 29 29 29 30 30 30 30 31 31 32 32 33 33 34 34 35
22 22 23 23 24 23 23 23 23 24 24 24 24 24 25 27 28 28 27 28 28 28 28 28 28 29 29 29 30 30 30 31 31 31 31 31 31 31 32 33 34 34 35 35
20 20 21 21 21 21 22 22 22 23 23 23 23 24 25 26 26 27 27 27 28 28 29 29 30 30 30 30 31 31 31 32 32 32 31 31 32 32 32 33 33 34 34 35
20 21 21 21 21 21 21 21 22 22 23 24 24 24 25 26 26 26 27 27 28 29 30 30 31 31 31 32 32 32 32 32 32 32 31 32 32 32 33 33 34 34 34 35
19 20 20 20 20 20 20 20 20 21 21 22 22 23 24 25 25 26 26 26 27 28 29 30 30 30 31 31 32 32 32 32 32 32 32 32 32 32 32 32 32 33 33 33
17 17 18 18 19 19 19 20 20 20 20 21 21 22 23 24 24 25 25 26 27 27 28 28 29 30 30 31 31 31 31 31 31 31 31 31 31 31 31 32 32 32 32 33
18 18 18 18 18 19 19 20 20 21 21 21 21 22 22 23 24 25 26 26 27 27 28 28 29 29 30 31 31 30 30 30 31 31 31 31 31 32 32 32 32 32 32 32
18 18 18 18 18 19 19 19 20 20 20 21 22 22 23 23 24 24 25 26 27 27 28 28 29 29 30 30 30 30 30 30 30 31 31 31 31 32 32 32 32 32 31 31
18 18 18 18 18 18 18 18 18 19 19 20 21 22 22 23 24 25 25 26 27 28 28 29 29 30 30 31 31 31 31 31 31 31 31 32 32 32 32 32 32 32 32 31
17 17 17 17 17 17 18 18 18 18 19 20 21 22 22 23 24 25 26 26 27 27 28 28 29 30 30 30 30 31 31 31 31 31 32 32 32 32 32 32 32 31 31 31
17 17 17 17 17 17 17 18 18 18 19 20 21 21 22 23 24 24 25 25 26 26 26 27 28 28 29 29 30 30 30 30 30 31 31 31 31 31 31 31 31 30 30 29
15 16 16 17 17 18 18 18 18 18 19 19 20 20 22 22 23 24 24 24 24 25 25 26 26 26 27 28 28 29 29 30 30 31 31 31 31 30 30 29 29 28 28 27

GEFSNGP_500_meanwind_216.txt.gz
Wind_Speed
34 33 34 35 36 37 39 40 42 41 40 38 38 38 38 38 38 38 38 37 36 35 34 34 34 34 35 34 34 34 33 34 34 34 34 34 34 35 35 35 35 36 36 36
33 32 33 35 35 37 38 40 42 42 42 40 40 40 39 38 38 38 38 37 36 35 35 35 34 34 35 34 34 34 33 34 34 35 35 35 35 35 35 35 35 35 35 35
32 32 33 35 34 35 36 37 39 41 40 40 40 40 40 39 39 39 39 39 38 37 35 35 34 34 34 34 34 34 34 35 35 35 35 35 35 35 35 34 34 34 34 33
33 32 34 33 33 35 36 37 37 38 39 39 40 40 40 39 39 39 39 39 38 37 36 35 35 34 33 33 34 34 34 34 34 34 34 34 34 34 34 33 32 32 32 32
32 33 35 34 34 34 35 36 37 38 38 38 38 39 40 40 39 39 39 39 38 37 36 35 35 35 34 33 33 33 33 33 33 33 33 33 32 32 32 32 31 31 31 31
31 32 33 32 33 33 34 36 36 38 38 38 38 39 38 38 38 38 39 39 38 37 36 36 36 35 35 34 34 33 33 32 32 32 32 31 31 31 31 30 31 31 31 31
30 30 31 31 32 32 33 34 35 36 37 37 38 37 36 36 36 37 38 37 37 36 36 35 36 35 35 34 34 33 32 31 31 31 30 30 30 30 30 30 30 30 30 31
29 30 30 30 30 31 33 34 35 36 36 37 36 36 36 36 35 35 35 36 36 35 35 35 35 35 35 34 33 33 32 32 31 30 30 30 30 29 29 30 30 30 29 29
30 30 30 30 31 31 32 33 34 34 34 35 35 35 34 34 35 34 34 34 35 35 35 35 35 35 34 33 33 32 32 31 31 30 29 29 29 29 29 29 30 29 29 30
29 29 30 30 31 32 32 33 33 32 33 34 34 33 33 33 33 33 33 33 33 34 34 34 34 34 34 33 33 32 31 31 31 30 29 29 29 28 28 28 28 29 29 29
30 30 31 31 31 31 30 31 31 30 30 31 31 31 31 31 31 31 31 31 32 32 32 32 32 32 32 32 32 31 30 30 30 29 28 28 28 28 28 28 28 28 29 29
29 30 31 30 30 30 30 29 29 29 28 28 29 29 29 28 28 29 29 30 30 30 31 31 31 31 30 30 30 30 29 29 29 29 28 28 27 27 27 27 27 28 29 29
28 28 29 29 30 30 31 30 29 29 29 28 28 28 28 27 27 27 28 28 29 29 29 29 29 29 29 29 28 28 28 28 28 28 28 27 27 27 27 28 28 28 28 29
27 27 27 28 29 29 29 29 29 28 27 27 27 26 26 25 26 26 27 28 27 27 27 27 28 28 28 28 28 27 26 27 27 27 27 26 26 27 28 28 28 29 29 29
27 28 28 27 27 27 27 26 26 26 26 26 25 25 25 24 25 25 27 27 27 26 26 26 27 27 28 28 28 27 27 26 27 27 26 26 27 27 27 28 28 29 30 30
26 26 26 25 25 25 25 24 24 24 24 24 24 24 24 24 24 24 25 26 26 26 26 26 26 27 27 27 27 27 27 27 27 26 26 26 27 27 28 28 28 29 30 30
23 24 24 24 24 23 23 23 22 22 22 22 22 22 22 22 23 23 24 25 25 25 25 26 26 26 27 27 27 26 26 26 26 27 27 27 28 28 28 29 29 30 30 30
22 22 22 22 22 21 21 20 20 20 20 21 22 22 23 23 23 23 23 23 24 24 25 25 25 25 26 26 25 26 26 26 27 27 28 28 28 29 29 29 29 30 30 30
21 21 21 21 21 20 19 19 20 19 19 20 21 21 22 22 22 22 22 23 23 24 24 24 24 25 25 26 26 26 27 27 28 28 29 29 29 29 29 29 30 30 30 31
21 21 21 21 20 20 19 19 19 20 20 20 20 21 21 21 21 21 22 22 23 23 23 23 24 24 25 26 27 27 27 28 28 29 29 29 29 29 30 30 30 30 31 31
21 21 21 21 21 20 20 19 19 20 20 19 19 19 20 20 21 21 21 22 23 23 24 24 24 25 26 27 28 28 28 28 29 29 29 29 30 30 30 30 30 31 31 31
20 20 20 20 19 19 19 18 18 18 18 18 19 19 19 20 21 21 22 22 22 23 23 23 24 25 26 27 27 27 28 28 29 29 29 29 29 30 30 31 31 31 31 31
19 19 19 19 18 18 18 18 18 18 17 17 17 18 18 19 20 21 22 23 23 23 23 24 24 25 25 25 26 27 27 28 28 28 28 29 29 30 30 31 31 31 31 30
18 18 18 18 18 18 18 18 18 18 18 18 18 19 19 19 20 21 22 23 24 24 25 25 26 26 26 27 27 28 28 28 29 29 29 30 30 30 31 31 31 31 31 30
18 18 18 17 17 17 18 18 18 18 18 18 19 19 20 20 21 21 22 23 24 25 25 26 27 27 27 27 28 28 28 29 29 29 30 30 31 31 31 31 31 31 30 30
18 18 17 17 17 17 18 18 18 18 18 18 18 19 20 21 21 22 23 23 24 24 25 26 27 27 27 27 27 28 28 28 29 29 29 29 29 29 30 30 30 30 30 30
17 17 17 18 18 18 18 18 18 18 18 18 18 19 20 20 21 22 22 23 23 23 24 25 25 26 26 26 26 26 27 27 27 27 28 28 29 29 29 29 29 30 30 30

GEFSNGP_500_meanwind_222.txt.gz
Wind_Speed
31 31 32 33 33 34 36 36 37 36 36 36 38 38 38 38 38 38 39 39 39 40 40 40 40 40 40 39 39 39 38 38 38 38 38 38 38 38 38 38 38 39 39 39
30 31 32 33 33 34 35 36 37 38 38 36 37 38 38 39 38 38 38 38 39 40 40 39 40 40 40 40 40 39 39 39 39 39 38 38 38 38 39 39 38 38 38 38
30 30 32 32 31 32 34 35 36 38 38 37 37 37 37 37 37 37 38 39 40 40 40 40 39 39 40 40 40 39 39 39 39 39 39 38 38 38 38 38 38 38 38 38
31 30 30 29 30 31 32 33 34 35 36 36 37 36 36 37 37 37 38 38 39 39 39 38 38 38 39 39 39 39 39 39 39 38 38 38 38 37 37 37 37 37 37 37
31 30 29 27 27 27 29 30 32 33 34 35 35 35 35 36 36 37 37 37 37 38 38 38 38 38 38 38 38 38 38 38 38 38 38 37 37 36 36 36 36 36 36 35
30 30 29 27 26 27 28 29 30 32 33 35 36 36 36 36 36 36 37 37 38 38 38 38 38 38 38 38 38 38 38 37 37 37 37 37 36 35 35 35 35 35 34 34
29 30 29 26 26 26 27 28 29 30 32 33 35 35 35 36 36 35 35 35 36 37 37 37 37 37 37 38 38 38 37 37 37 36 36 36 36 35 35 34 34 34 33 33
26 27 25 24 24 25 26 26 27 28 30 31 31 32 33 34 34 33 33 33 34 35 35 36 36 37 36 37 37 37 37 37 37 36 36 35 35 35 34 34 34 33 33 33
25 25 24 25 26 26 27 28 27 28 28 29 30 31 31 33 34 34 34 33 34 34 33 33 34 35 35 34 35 36 36 36 36 36 35 34 34 33 33 32 33 33 33 33
24 24 24 25 26 27 28 29 29 29 29 29 31 32 32 32 33 34 34 33 33 33 33 33 33 33 34 33 33 33 34 34 34 34 34 33 33 33 33 33 33 32 32 32
25 25 25 25 26 26 27 27 28 29 29 30 32 32 32 32 32 33 33 33 33 32 31 31 31 32 32 32 32 31 31 31 32 32 31 32 31 32 32 32 32 31 31 31
25 26 26 26 26 27 27 27 27 29 30 30 31 31 31 31 31 31 31 31 31 31 30 29 29 30 30 30 31 31 30 29 29 29 29 29 29 29 29 29 29 29 29 29
26 26 27 27 27 28 28 28 28 28 28 29 29 29 29 30 30 30 30 30 29 29 29 29 29 29 29 29 29 31 31 30 29 28 28 27 27 26 26 26 26 26 27 28
26 26 27 27 27 28 28 28 28 27 27 27 27 27 27 27 28 28 28 29 28 28 27 27 28 28 29 28 28 30 31 30 28 28 27 27 26 25 24 24 25 25 26 27
26 26 26 26 26 26 27 26 26 26 26 25 24 25 25 25 26 27 26 26 27 27 26 26 26 27 27 27 27 27 28 28 28 27 27 27 26 25 25 24 24 24 25 25
23 23 23 23 24 24 25 24 24 23 23 23 23 23 23 23 23 25 25 25 25 25 25 25 25 26 26 26 26 26 26 27 27 26 26 26 25 25 24 24 24 24 25 25
21 21 21 22 22 23 23 23 22 22 22 22 22 21 21 21 21 22 23 24 24 24 24 24 24 24 24 25 26 26 26 26 26 25 24 24 25 25 25 25 25 25 25 26
21 21 21 21 21 22 21 21 21 21 20 20 20 20 20 20 20 21 21 22 22 23 24 24 24 23 23 23 24 25 26 27 26 26 26 26 26 26 26 26 26 26 27 27
20 20 21 21 20 20 19 19 19 19 19 19 19 19 20 20 20 20 21 21 21 22 23 23 23 23 23 24 24 25 25 26 27 26 26 26 26 26 26 26 26 26 27 27
19 19 19 19 19 19 19 18 18 17 17 18 18 18 18 19 19 20 20 20 20 21 21 22 22 22 22 23 23 23 24 26 26 27 26 26 26 26 27 27 27 27 28 28
19 19 19 19 19 19 18 18 17 17 16 16 16 16 17 17 18 18 18 19 19 20 20 21 21 22 22 22 23 23 24 25 25 26 26 26 26 27 27 27 27 27 28 28
20 19 19 19 19 18 18 18 17 16 16 15 15 15 15 16 17 17 17 17 18 19 20 21 22 22 22 22 23 23 24 24 25 25 26 26 27 27 27 27 27 27 27 27
20 19 19 19 19 18 18 18 18 16 16 15 15 15 15 15 16 17 18 18 18 18 19 20 21 22 23 23 23 24 24 25 25 26 26 27 27 27 27 27 27 28 28 28
20 19 19 19 19 18 18 18 17 17 16 16 16 16 15 15 16 16 17 17 18 19 19 19 20 21 22 23 24 24 24 25 26 26 26 27 26 27 27 27 28 28 28 28
19 20 20 20 19 18 18 17 17 16 16 16 16 16 16 16 16 16 17 17 18 19 19 19 20 21 22 23 24 24 25 25 26 27 27 26 27 27 27 27 28 28 28 29
20 20 20 19 19 18 17 17 16 16 16 16 16 16 16 16 16 16 17 17 18 18 18 19 19 20 20 21 22 23 24 25 26 26 27 27 27 27 28 28 28 29 29 30
20 20 19 19 19 18 17 16 16 16 16 16 16 16 16 16 17 17 17 18 18 18 19 19 19 20 21 21 22 23 24 24 25 26 26 26 26 27 27 28 28 28 29 29

GEFSNGP_500_meanwind_228.txt.gz
Wind_Speed
35 34 33 33 33 34 36 37 39 38 38 38 38 38 39 38 38 38 39 40 40 42 42 43 43 43 44 45 45 44 44 43 43 43 43 43 43 43 43 43 42 43 43 43
35 34 34 34 34 34 35 36 37 39 39 38 39 39 38 38 37 37 39 39 40 41 41 41 42 43 43 43 43 43 44 44 43 44 44 44 44 44 43 43 43 43 44 44
35 34 35 35 34 34 34 34 35 35 35 36 36 37 38 37 37 37 38 39 40 40 41 41 42 41 41 42 43 43 44 44 44 44 44 44 44 43 43 43 43 44 44 44
36 35 34 33 33 33 33 33 34 35 34 34 34 35 35 36 37 37 37 37 38 38 38 39 40 41 41 42 42 42 43 43 44 45 44 44 44 44 44 44 44 44 44 44
35 35 34 32 31 31 31 31 32 33 33 34 33 32 33 34 36 36 36 37 37 37 37 37 38 38 39 40 41 41 42 43 44 44 44 44 44 44 43 43 44 43 43 43
35 34 33 32 32 31 31 30 30 31 32 33 33 33 33 34 35 36 37 37 38 38 37 37 36 36 37 38 39 40 41 42 42 42 43 43 43 43 43 43 42 42 42 41
33 33 32 31 30 29 30 30 30 29 30 31 32 33 34 34 35 35 36 37 37 37 37 36 36 36 37 37 38 39 40 41 41 41 40 41 41 41 41 41 41 40 40 40
30 30 29 29 29 28 28 28 28 28 30 31 31 32 33 34 34 35 35 35 35 36 36 36 37 37 36 36 37 38 39 39 39 39 39 39 39 39 39 39 38 38 38 38
29 29 29 28 28 28 28 27 27 28 29 30 31 32 32 33 34 35 35 35 35 36 37 36 37 37 37 37 37 36 37 37 37 37 37 37 37 36 36 36 36 36 36 36
28 28 28 28 28 28 28 28 29 30 30 31 31 30 30 31 32 33 34 34 35 36 36 36 37 37 36 36 36 36 36 35 35 35 35 35 34 34 34 33 33 34 34 34
28 28 28 27 28 28 28 29 29 29 30 30 29 29 29 29 30 31 32 33 34 34 35 35 36 36 36 34 33 33 33 33 33 32 32 33 33 32 32 32 32 32 33 33
28 28 28 27 28 28 29 29 29 29 28 28 29 28 28 28 28 29 30 30 31 32 32 33 34 34 34 33 32 32 31 30 30 30 30 31 31 31 31 31 30 30 31 32
28 28 28 28 28 28 29 30 30 29 28 27 27 27 27 27 27 27 28 29 29 30 30 31 32 32 32 32 32 32 32 31 30 30 30 30 30 29 30 30 30 29 29 30
29 28 28 28 28 28 29 29 29 29 28 27 27 26 26 26 26 25 26 27 28 28 28 29 29 30 30 31 31 31 32 32 31 29 29 29 29 29 29 29 29 28 29 29
28 27 27 26 27 27 28 29 29 29 28 28 27 27 26 25 25 25 25 26 27 27 28 28 28 28 29 29 30 30 30 30 30 30 29 29 29 29 29 29 29 28 28 28
26 26 26 26 26 27 27 27 27 27 27 26 26 26 25 25 25 24 25 25 26 26 26 26 27 28 28 29 29 29 29 29 29 29 29 29 30 29 29 28 29 28 28 28
24 24 24 24 25 25 25 25 25 24 24 24 24 24 24 24 23 23 23 23 23 24 25 26 26 27 27 27 26 26 27 27 29 30 30 30 29 29 29 29 28 27 27 26
24 24 23 23 23 24 24 23 22 22 22 22 23 23 23 23 22 22 22 23 23 23 23 24 24 25 25 25 25 25 25 26 27 28 29 29 29 29 29 28 28 27 27 26
23 23 23 23 23 23 23 22 22 22 21 21 21 21 21 21 21 21 21 21 21 21 22 23 23 23 24 25 25 25 25 25 25 26 27 27 28 28 27 27 27 27 27 26
23 23 23 23 22 22 22 22 22 22 21 21 20 20 19 19 19 20 21 21 21 21 22 22 22 23 24 25 25 25 24 24 24 25 26 26 26 26 26 27 27 27 27 27
23 23 23 23 23 23 23 22 22 22 21 20 19 19 18 18 18 19 19 19 20 20 21 21 22 21 22 23 24 24 24 24 24 25 25 26 26 26 26 26 27 27 27 27
23 23 23 23 23 23 22 22 21 21 20 19 19 18 18 17 18 18 18 18 19 19 19 20 20 20 20 21 22 23 24 24 24 25 26 26 26 26 26 27 27 26 27 27
24 23 23 23 23 22 22 22 21 20 19 19 18 18 17 17 17 17 18 18 18 18 19 19 20 20 20 20 21 22 23 23 24 25 25 25 26 26 26 26 27 27 27 27
24 24 24 23 22 22 22 21 20 20 19 18 18 18 17 16 16 16 17 17 18 18 18 19 19 19 20 20 21 21 22 23 24 25 25 26 26 26 26 26 27 27 28 28
24 24 23 23 22 22 21 21 21 20 19 19 18 18 17 16 15 15 16 17 18 18 18 19 19 19 20 21 21 22 22 23 24 25 26 26 26 26 27 27 27 27 27 28
24 24 23 23 23 22 22 22 22 21 20 19 18 18 17 17 16 16 17 17 18 18 18 19 20 20 20 21 21 22 22 23 24 25 26 26 26 27 27 27 27 27 27 28
24 23 23 22 22 22 22 22 22 21 20 19 19 18 18 18 18 18 18 18 18 19 19 20 20 20 21 21 22 22 23 23 23 24 25 25 26 26 27 27 27 27 27 27

GEFSNGP_500_meanwind_234.txt.gz
Wind_Speed
33 32 32 32 31 31 31 32 33 33 34 34 35 35 35 35 35 36 36 36 37 39 39 39 40 42 43 44 45 45 45 45 46 46 47 47 46 45 45 46 46 46 46 45
33 32 32 32 31 30 31 31 32 33 33 33 34 34 34 34 34 35 36 36 37 37 38 38 39 40 41 42 43 43 43 44 45 45 46 46 46 46 45 45 46 46 46 46
34 33 33 32 30 30 30 30 31 32 32 33 33 34 34 34 34 35 36 37 37 38 38 38 38 39 40 41 41 41 41 42 42 43 44 44 45 46 45 45 45 46 47 47
34 33 33 32 31 30 30 30 30 31 31 32 32 33 33 34 34 35 36 36 37 37 38 38 38 38 38 39 40 40 39 39 40 41 42 43 44 45 45 45 45 46 46 46
34 33 32 31 31 30 29 29 29 29 30 32 32 32 32 33 34 35 35 36 36 37 37 37 38 38 38 38 38 38 39 39 39 40 41 41 43 44 45 45 45 45 46 46
32 32 32 31 30 30 29 29 29 30 31 31 31 30 30 31 32 33 34 35 36 36 37 38 38 38 38 38 38 38 39 39 39 39 39 40 41 42 43 43 43 44 44 44
30 30 30 30 30 29 29 29 29 29 29 29 29 29 28 29 30 32 32 33 35 35 36 37 38 38 38 38 39 39 39 39 38 38 38 39 39 40 40 41 41 42 42 42
29 28 28 28 28 28 28 28 29 28 28 28 28 28 28 27 28 29 30 31 32 33 35 36 37 37 38 39 39 40 40 39 39 38 38 38 38 39 39 39 39 39 40 40
27 26 26 26 27 27 27 27 28 28 27 28 28 28 28 28 27 27 28 29 30 31 32 34 36 37 37 38 39 40 40 40 40 40 39 39 40 39 39 38 37 37 38 38
26 25 26 26 27 27 27 28 28 27 27 27 27 27 27 27 27 27 27 28 29 29 30 31 32 34 35 36 37 38 39 40 40 41 41 40 39 39 38 37 36 36 35 35
27 27 27 27 27 27 27 27 27 27 27 26 26 26 25 25 25 26 26 27 27 28 28 29 30 32 33 34 35 36 36 37 37 38 38 38 38 38 37 36 35 35 34 34
27 27 27 27 27 27 27 27 26 26 26 26 25 25 24 24 24 25 25 25 26 26 26 27 28 30 32 33 33 34 34 34 34 35 35 36 36 36 36 35 35 34 33 33
27 27 27 27 27 26 26 25 25 25 25 25 26 25 25 24 23 24 25 25 25 25 25 26 27 28 30 31 31 32 32 32 32 33 33 33 33 34 34 35 34 34 34 33
27 27 26 26 26 26 26 25 25 25 26 26 26 25 25 25 24 24 24 25 25 25 25 25 25 26 28 29 29 29 30 30 31 31 31 31 32 32 33 33 34 34 33 33
27 26 26 26 26 26 26 25 25 25 25 25 25 24 24 25 24 24 24 25 24 23 23 24 25 25 27 28 28 29 29 30 30 30 31 31 31 32 32 32 33 33 32 32
26 26 26 26 26 26 25 26 26 25 24 24 23 23 23 23 23 24 24 24 23 23 23 23 24 25 26 26 27 28 28 29 29 30 30 31 31 32 32 32 32 32 32 31
25 25 25 25 25 25 25 25 24 24 23 23 22 22 22 21 21 21 21 22 22 22 23 23 23 24 25 25 26 27 28 29 29 29 29 30 30 31 32 32 31 31 31 31
24 24 24 24 23 23 24 23 23 23 22 22 21 21 20 20 19 19 20 20 21 21 22 21 22 23 23 24 25 26 26 27 28 28 28 29 29 30 30 30 30 30 30 30
24 24 24 24 23 23 23 22 22 21 21 21 20 19 19 19 19 20 20 19 20 20 20 20 21 22 22 23 24 24 24 24 25 26 26 27 27 28 28 29 29 29 29 30
24 25 24 24 24 23 22 22 22 21 21 21 20 20 20 20 20 20 20 20 20 20 20 21 21 21 21 23 23 23 23 23 24 24 25 25 26 27 28 28 28 28 29 29
25 25 25 24 24 23 22 22 22 22 21 21 20 20 20 19 19 19 19 20 20 20 19 20 20 19 20 20 21 22 22 22 23 24 24 25 25 26 27 27 28 28 28 28
25 25 25 25 24 23 22 22 22 22 21 21 21 20 20 19 19 18 18 18 18 18 18 19 19 19 19 19 20 21 21 22 22 23 24 24 25 26 26 26 27 27 27 27
25 25 25 24 23 23 22 22 22 21 21 21 20 20 19 19 18 18 17 17 17 17 18 18 19 19 19 19 20 20 22 22 22 22 23 23 24 25 26 26 27 27 27 27
26 26 25 24 23 22 22 22 22 21 21 20 19 19 19 18 18 17 17 17 17 17 18 18 19 20 20 20 21 21 21 22 22 23 23 24 24 25 25 26 26 27 27 27
25 25 24 23 23 22 22 22 21 21 20 20 19 19 18 18 18 18 18 17 17 17 17 18 19 19 20 21 21 22 22 22 23 23 23 24 24 24 24 25 26 27 27 27
25 24 24 23 22 22 21 21 20 20 20 19 19 19 18 18 18 18 18 18 17 17 17 18 18 19 20 21 21 22 22 22 23 23 23 22 22 23 24 24 24 25 26 26
25 24 23 22 21 21 20 20 19 19 19 19 19 19 19 18 18 18 18 18 18 18 18 18 19 19 20 20 20 21 22 22 22 22 22 22 23 23 23 24 24 24 25 25

GEFSNGP_500_meanwind_240.txt.gz
Wind_Speed
35 35 35 36 36 36 36 36 37 37 37 38 38 38 38 38 37 37 37 38 38 38 39 41 42 42 42 42 44 44 43 43 43 43 44 45 45 45 46 46 46 45 45 44
36 36 36 36 36 37 36 36 36 36 37 36 37 37 38 38 38 38 37 37 37 38 39 40 41 42 43 43 43 44 43 43 44 44 43 44 44 44 45 45 44 44 44 43
37 37 37 37 36 36 36 36 36 35 35 35 35 36 37 37 37 37 37 37 37 38 38 39 40 42 43 43 43 43 44 44 44 44 44 45 45 44 44 44 44 44 43 43
38 37 37 37 36 36 35 35 35 34 34 34 34 34 35 36 37 37 37 37 37 37 38 39 39 40 41 42 42 42 42 42 43 44 45 45 45 45 45 45 44 44 44 43
37 37 37 37 36 35 34 34 34 33 33 33 33 34 34 34 35 36 36 37 37 37 37 38 39 40 40 41 41 42 42 42 42 43 43 43 44 44 44 44 44 43 44 44
36 36 36 36 35 34 34 33 33 32 32 32 32 32 32 32 33 34 34 34 35 36 37 37 38 39 40 41 41 41 41 41 41 42 42 42 42 42 43 43 42 43 43 43
34 34 35 34 34 33 33 33 32 32 32 32 32 32 32 32 32 32 32 32 33 33 34 36 36 37 38 38 38 39 40 40 40 40 40 41 41 41 41 42 43 43 42 42
34 33 33 33 32 32 32 32 32 32 32 32 32 32 32 32 32 32 32 31 31 31 31 32 34 35 35 36 36 37 38 38 39 39 39 39 39 39 40 40 41 42 42 41
33 33 33 33 33 33 33 33 33 32 32 32 32 31 31 31 31 31 31 30 29 29 29 29 30 31 33 33 35 36 37 37 37 38 36 37 37 37 38 38 39 40 40 40
34 33 33 33 33 34 34 34 34 33 33 32 32 31 31 30 29 29 29 28 28 28 27 28 28 29 30 31 32 33 35 36 36 37 36 35 35 36 36 37 37 38 39 39
33 33 34 33 34 34 35 34 34 34 33 33 32 31 30 29 28 27 27 27 27 27 27 27 27 28 28 30 31 32 33 34 36 36 36 35 35 35 35 35 36 37 38 38
33 34 34 33 34 34 34 34 34 33 33 32 32 31 30 29 28 28 27 27 27 26 27 27 27 27 28 29 30 31 32 33 34 35 35 35 35 35 35 35 35 35 36 36
33 33 33 33 33 34 34 33 33 32 32 31 31 31 30 29 29 28 28 27 26 26 25 26 26 27 27 27 28 29 30 31 32 33 34 34 34 34 34 35 35 34 34 35
33 33 33 33 33 33 33 33 32 32 32 31 31 31 30 30 29 29 28 27 26 26 25 25 25 26 26 26 27 27 28 29 30 31 32 33 33 34 34 34 35 35 35 35
33 33 32 32 32 32 32 32 31 31 31 31 31 31 30 29 28 27 27 26 26 25 25 25 25 25 26 26 26 27 28 28 29 30 31 32 33 33 33 33 34 34 35 35
32 32 31 31 31 31 31 31 30 30 30 30 30 29 29 28 27 26 25 25 25 25 25 25 25 25 25 25 25 25 26 27 27 28 28 29 30 31 31 31 32 32 33 33
31 31 31 30 30 30 30 30 30 29 29 28 28 27 27 26 25 25 24 24 24 24 24 24 24 24 25 25 24 24 25 25 26 26 27 27 28 29 29 30 30 30 30 30
31 31 30 30 29 29 29 29 29 28 28 27 27 26 25 24 23 23 24 24 24 23 23 23 23 23 24 25 25 24 24 25 25 26 26 27 27 28 28 29 29 29 29 30
31 30 29 29 29 28 28 28 28 28 28 27 25 24 24 24 23 23 23 22 22 22 22 22 22 21 22 23 23 23 23 23 24 25 25 26 26 27 27 28 28 28 29 29
30 30 29 29 29 28 28 29 28 28 27 26 25 24 24 23 23 22 22 22 22 21 21 21 21 21 21 21 22 22 23 23 23 24 24 25 25 26 26 27 27 28 28 29
30 30 29 29 29 29 29 29 28 28 27 26 24 24 23 22 22 22 21 21 21 21 21 20 20 20 20 20 20 21 22 23 22 23 23 24 25 26 26 26 27 27 28 28
31 30 30 29 29 29 29 29 28 27 26 25 24 23 22 22 21 21 21 21 21 21 21 21 21 21 20 20 20 21 21 22 22 22 23 24 24 25 26 27 27 27 28 28
30 30 30 30 30 30 29 29 27 26 25 23 22 22 21 21 21 20 20 20 21 20 20 20 20 20 20 20 20 21 21 22 22 22 23 23 23 24 25 26 26 27 27 28
31 30 30 30 29 29 28 27 26 25 23 23 22 21 21 21 20 20 20 20 20 20 20 20 20 20 20 20 20 20 21 22 22 23 23 23 24 24 24 24 25 26 27 27
31 30 30 30 29 28 27 26 24 23 23 22 22 21 21 20 20 20 20 20 20 20 20 20 20 20 19 19 20 20 21 22 22 23 23 23 23 24 24 24 24 24 25 26
31 30 30 29 27 26 25 24 23 22 22 22 22 21 21 21 20 20 19 19 19 19 19 19 19 19 19 20 20 20 21 21 22 22 23 24 23 23 23 23 23 24 24 24
30 30 29 27 26 25 24 23 22 22 22 22 21 21 21 21 20 20 20 19 19 19 19 18 18 18 19 19 20 20 20 21 21 21 22 23 23 23 23 23 23 24 24 24